[[{"header":{"parameterUnit":"m.s-1","parameterCategory":1,"la1":31.0,"la2":29.5877,"lo1":-88.7671,"lo2":-86.6584,"dx":0.0162,"dy":0.0185,"nx":115,"ny":88,"refTime":"2023-01-28T06:00:00:Z","depth":0,"parameterNumber":2,"parameterNumberName":"U-component_of_WINDS"},"data":[0.0,0.0,0.0,0.0,0.0,0.0,0.0,0.0,0.0,0.0,0.0,0.0,0.0,0.0,0.0,0.0,0.0,0.0,0.0,0.0,0.0,0.0,0.0,0.0,0.0,0.0,0.0,0.0,0.0,0.0,0.0,0.0,0.0,0.0,0.0,0.0,0.0,0.0,0.0,0.0,0.0,0.0,0.0,0.0,0.0,0.0,0.0,0.0,0.0,0.0,0.0,0.0,0.0,0.0,0.0,0.0,0.0,0.0,0.0,0.0,0.0,0.0,0.0,0.0,0.0,0.0,0.0,0.0,0.0,0.0,0.0,0.0,0.0,0.0,0.0,0.0,0.0,0.0,0.0,0.0,0.0,0.0,0.0,0.0,0.0,0.0,0.0,0.0,0.0,0.0,0.0,0.0,0.0,0.0,0.0,0.0,0.0,0.0,0.0,0.0,0.0,0.0,0.0,0.0,0.0,0.0,0.0,0.0,0.0,0.0,0.0,0.0,0.0,0.0,0.0,0.0,0.0,0.0,0.0,0.0,0.0,0.0,0.0,0.0,0.0,0.0,0.0,0.0,0.0,0.0,0.0,0.0,0.0,0.0,0.0,0.0,0.0,0.0,0.0,0.0,0.0,0.0,0.0,0.0,0.0,0.0,0.0,0.0,0.0,0.0,0.0,0.0,0.0,0.0,0.0,0.0,0.0,0.0,0.0,0.0,0.0,0.0,0.0,0.0,0.0,0.0,0.0,0.0,0.0,0.0,0.0,0.0,0.0,0.0,0.0,0.0,0.0,0.0,0.0,0.0,0.0,0.0,0.0,0.0,0.0,0.0,0.0,0.0,0.0,0.0,0.0,0.0,0.0,0.0,0.0,0.0,0.0,0.0,0.0,0.0,0.0,0.0,0.0,0.0,0.0,0.0,0.0,0.0,0.0,0.0,0.0,0.0,0.0,0.0,0.0,0.0,0.0,0.0,0.0,0.0,0.0,0.0,0.0,0.0,0.0,0.0,0.0,0.0,0.0,0.0,0.0,0.0,0.0,0.0,0.0,0.0,0.0,0.0,0.0,0.0,0.0,0.0,0.0,0.0,0.0,0.0,0.0,0.0,0.0,0.0,0.0,0.0,0.0,0.0,0.0,0.0,0.0,0.0,0.0,0.0,0.0,0.0,0.0,0.0,0.0,0.0,0.0,0.0,0.0,0.0,0.0,0.0,0.0,0.0,0.0,0.0,0.0,0.0,0.0,0.0,0.0,0.0,0.0,0.0,0.0,0.0,0.0,0.0,0.0,0.0,0.0,0.0,0.0,0.0,0.0,0.0,0.0,0.0,0.0,0.0,0.0,0.0,0.0,0.0,0.0,0.0,0.0,0.0,0.0,0.0,0.0,0.0,0.0,0.0,0.0,0.0,0.0,0.0,0.0,0.0,0.0,0.0,0.0,0.0,0.0,0.0,0.0,0.0,0.0,0.0,0.0,0.0,0.0,0.0,0.0,0.0,0.0,0.0,0.0,0.0,0.0,0.0,0.0,0.0,0.0,0.0,0.0,0.0,0.0,0.0,0.0,0.0,0.0,0.0,0.0,0.0,0.0,0.0,0.0,0.0,0.0,0.0,0.0,0.0,0.0,0.0,0.0,0.0,0.0,0.0,0.0,0.0,0.0,0.0,0.0,0.0,0.0,0.0,0.0,0.0,0.0,0.0,0.0,0.0,0.0,0.0,0.0,0.0,0.0,0.0,0.0,0.0,0.0,0.0,0.0,0.0,0.0,0.0,0.0,0.0,0.0,0.0,0.0,0.0,0.0,0.0,0.0,0.0,0.0,0.0,0.0,0.0,0.0,0.0,0.0,0.0,0.0,0.0,0.0,0.0,0.0,0.0,0.0,0.0,0.0,0.0,0.0,0.0,0.0,0.0,0.0,0.0,0.0,0.0,0.0,0.0,0.0,0.0,0.0,0.0,0.0,0.0,0.0,0.0,0.0,0.0,0.0,0.0,0.0,0.0,0.0,0.0,0.0,0.0,0.0,0.0,0.0,0.0,0.0,0.0,0.0,0.0,0.0,0.0,0.0,0.0,0.0,0.0,0.0,0.0,0.0,0.0,0.0,0.0,0.0,0.0,0.0,0.0,0.0,0.0,0.0,0.0,0.0,0.0,0.0,0.0,0.0,0.0,0.0,0.0,0.0,0.0,0.0,0.0,0.0,0.0,0.0,0.0,0.0,0.0,0.0,0.0,0.0,0.0,0.0,0.0,0.0,0.0,0.0,0.0,0.0,0.0,0.0,0.0,0.0,0.0,0.0,0.0,0.0,0.0,0.0,0.0,0.0,0.0,0.0,0.0,0.0,0.0,0.0,0.0,0.0,0.0,0.0,0.0,0.0,0.0,0.0,0.0,0.0,0.0,0.0,0.0,0.0,0.0,0.0,0.0,0.0,0.0,0.0,0.0,0.0,0.0,0.0,0.0,0.0,0.0,0.0,0.0,0.0,0.0,0.0,0.0,0.0,0.0,0.0,0.0,0.0,0.0,0.0,0.0,0.0,0.0,0.0,0.0,0.0,0.0,0.0,0.0,0.0,0.0,0.0,0.0,0.0,0.0,0.0,0.0,0.0,0.0,0.0,0.0,0.0,0.0,0.0,0.0,0.0,0.0,0.0,0.0,0.0,0.0,0.0,0.0,0.0,0.0,0.0,0.0,0.0,0.0,0.0,0.0,0.0,0.0,0.0,0.0,0.0,0.0,0.0,0.0,0.0,0.0,0.0,0.0,0.0,0.0,0.0,0.0,0.0,0.0,0.0,0.0,0.0,0.0,0.0,0.0,0.0,0.0,0.0,0.0,0.0,0.0,0.0,0.0,0.0,0.0,0.0,0.0,0.0,0.0,0.0,0.0,0.0,0.0,0.0,0.0,0.0,0.0,0.0,0.0,0.0,0.0,0.0,0.0,0.0,0.0,0.0,0.0,0.0,0.0,0.0,0.0,0.0,0.0,0.0,0.0,0.0,0.0,0.0,0.0,0.0,0.0,0.0,0.0,0.0,0.0,0.0,0.0,0.0,0.0,0.0,0.0,0.0,0.0,0.0,0.0,0.0,0.0,0.0,0.0,0.0,0.0,0.0,0.0,0.0,0.0,0.0,0.0,0.0,0.0,0.0,0.0,0.0,0.0,0.0,0.0,0.0,0.0,0.0,0.0,0.0,0.0,0.0,0.0,0.0,0.0,0.0,0.0,0.0,0.0,0.0,0.0,0.0,0.0,0.0,0.0,0.0,0.0,0.0,0.0,0.0,0.0,0.0,0.0,0.0,0.0,0.0,0.0,0.0,0.0,0.0,0.0,0.0,0.0,0.0,0.0,0.0,0.0,0.0,0.0,0.0,0.0,0.0,0.0,0.0,0.0,0.0,0.0,0.0,0.0,0.0,0.0,0.0,0.0,0.0,0.0,0.0,0.0,0.0,0.0,0.0,0.0,0.0,0.0,0.0,0.0,0.0,0.0,0.0,0.0,0.0,0.0,0.0,0.0,0.0,0.0,0.0,0.0,0.0,0.0,0.0,0.0,0.0,0.0,0.0,0.0,0.0,0.0,0.0,0.0,0.0,0.0,0.0,0.0,0.0,0.0,0.0,0.0,0.0,0.0,0.0,0.0,0.0,0.0,0.0,0.0,0.0,0.0,0.0,0.0,0.0,0.0,0.0,0.0,0.0,0.0,0.0,0.0,0.0,0.0,0.0,0.0,0.0,0.0,0.0,0.0,0.0,0.0,0.0,0.0,0.0,0.0,0.0,0.0,0.0,0.0,0.0,0.0,0.0,0.0,0.0,0.0,0.0,0.0,0.0,0.0,0.0,0.0,0.0,0.0,0.0,0.0,0.0,0.0,0.0,0.0,0.0,0.0,0.0,0.0,0.0,0.0,0.0,0.0,0.0,0.0,0.0,0.0,0.0,0.0,0.0,0.0,0.0,0.0,0.0,0.0,0.0,0.0,0.0,0.0,0.0,0.0,0.0,0.0,0.0,0.0,0.0,0.0,0.0,0.0,0.0,0.0,0.0,0.0,0.0,0.0,0.0,0.0,0.0,0.0,0.0,0.0,0.0,0.0,0.0,0.0,0.0,0.0,0.0,0.0,0.0,0.0,0.0,0.0,0.0,0.0,0.0,0.0,0.0,0.0,0.0,0.0,0.0,0.0,0.0,0.0,0.0,0.0,0.0,0.0,0.0,0.0,0.0,0.0,0.0,0.0,0.0,0.0,0.0,0.0,0.0,0.0,0.0,0.0,0.0,0.0,0.0,0.0,-2.7861,0.0,0.0,0.0,0.0,0.0,0.0,0.0,0.0,0.0,0.0,0.0,0.0,0.0,0.0,0.0,0.0,0.0,0.0,0.0,0.0,0.0,0.0,0.0,0.0,0.0,0.0,0.0,0.0,0.0,0.0,0.0,0.0,0.0,0.0,0.0,0.0,0.0,0.0,0.0,0.0,0.0,0.0,0.0,0.0,0.0,0.0,0.0,0.0,0.0,0.0,0.0,0.0,0.0,0.0,0.0,0.0,0.0,0.0,0.0,0.0,0.0,0.0,0.0,0.0,0.0,0.0,0.0,0.0,0.0,0.0,0.0,0.0,0.0,0.0,0.0,0.0,0.0,0.0,0.0,0.0,0.0,0.0,0.0,0.0,0.0,0.0,0.0,0.0,0.0,0.0,0.0,0.0,0.0,0.0,0.0,0.0,0.0,0.0,0.0,0.0,0.0,0.0,0.0,0.0,0.0,0.0,0.0,0.0,0.0,0.0,-2.5581,-2.6985,-2.5368,-2.516,-2.6677,0.0,0.0,0.0,0.0,0.0,0.0,0.0,0.0,0.0,0.0,0.0,0.0,0.0,0.0,0.0,0.0,0.0,0.0,0.0,0.0,0.0,0.0,0.0,0.0,0.0,0.0,0.0,0.0,0.0,0.0,0.0,0.0,0.0,0.0,0.0,0.0,0.0,0.0,0.0,0.0,0.0,0.0,0.0,0.0,0.0,0.0,0.0,0.0,0.0,0.0,0.0,0.0,0.0,0.0,0.0,0.0,0.0,0.0,0.0,0.0,0.0,0.0,0.0,0.0,0.0,0.0,0.0,0.0,0.0,0.0,0.0,0.0,0.0,0.0,0.0,0.0,0.0,0.0,0.0,0.0,0.0,0.0,0.0,0.0,0.0,0.0,0.0,0.0,0.0,0.0,0.0,0.0,0.0,0.0,0.0,0.0,0.0,0.0,0.0,0.0,0.0,0.0,0.0,0.0,0.0,0.0,0.0,0.0,0.0,0.0,0.0,0.0,-2.4719,-2.4416,-2.5852,0.0,0.0,0.0,0.0,0.0,0.0,0.0,0.0,0.0,0.0,0.0,0.0,0.0,0.0,0.0,0.0,0.0,0.0,0.0,0.0,0.0,0.0,0.0,0.0,0.0,0.0,0.0,0.0,0.0,0.0,0.0,0.0,0.0,0.0,0.0,0.0,0.0,0.0,0.0,0.0,0.0,0.0,0.0,0.0,0.0,0.0,0.0,0.0,0.0,0.0,0.0,0.0,0.0,0.0,0.0,0.0,0.0,0.0,0.0,0.0,0.0,0.0,0.0,0.0,0.0,0.0,0.0,0.0,0.0,0.0,0.0,0.0,0.0,0.0,0.0,0.0,0.0,0.0,0.0,0.0,0.0,0.0,0.0,0.0,0.0,0.0,0.0,0.0,0.0,0.0,0.0,0.0,0.0,0.0,0.0,0.0,0.0,0.0,0.0,0.0,0.0,0.0,0.0,0.0,0.0,0.0,0.0,0.0,0.0,0.0,-2.5532,-2.6701,-2.5474,0.0,-2.668,0.0,0.0,0.0,0.0,0.0,0.0,0.0,0.0,0.0,0.0,0.0,0.0,0.0,0.0,0.0,0.0,0.0,0.0,0.0,0.0,0.0,0.0,0.0,0.0,0.0,0.0,0.0,0.0,0.0,0.0,0.0,0.0,0.0,0.0,0.0,0.0,0.0,0.0,0.0,0.0,0.0,0.0,0.0,0.0,0.0,0.0,0.0,0.0,0.0,0.0,0.0,0.0,0.0,0.0,0.0,0.0,0.0,0.0,0.0,0.0,0.0,0.0,0.0,0.0,0.0,0.0,0.0,0.0,0.0,0.0,0.0,0.0,0.0,0.0,0.0,0.0,0.0,0.0,0.0,0.0,0.0,0.0,0.0,0.0,0.0,0.0,0.0,0.0,0.0,0.0,0.0,0.0,0.0,0.0,0.0,0.0,0.0,0.0,0.0,0.0,0.0,0.0,0.0,0.0,0.0,0.0,0.0,0.0,0.0,0.0,-2.4996,-2.5644,-2.5368,-2.5018,0.0,0.0,0.0,0.0,0.0,0.0,0.0,0.0,0.0,0.0,0.0,0.0,0.0,0.0,0.0,0.0,0.0,0.0,0.0,0.0,0.0,0.0,0.0,0.0,0.0,0.0,0.0,0.0,0.0,0.0,0.0,0.0,0.0,0.0,0.0,0.0,0.0,0.0,0.0,0.0,0.0,0.0,0.0,0.0,0.0,0.0,0.0,0.0,0.0,0.0,0.0,0.0,0.0,0.0,0.0,0.0,0.0,0.0,0.0,0.0,0.0,0.0,0.0,0.0,0.0,0.0,0.0,0.0,0.0,0.0,0.0,0.0,0.0,0.0,0.0,0.0,0.0,0.0,0.0,0.0,0.0,0.0,0.0,0.0,0.0,0.0,0.0,0.0,0.0,0.0,0.0,0.0,0.0,0.0,0.0,0.0,0.0,0.0,0.0,0.0,0.0,0.0,0.0,0.0,0.0,0.0,0.0,0.0,0.0,0.0,-2.4747,-2.4688,-2.4905,-2.5252,-2.4891,-2.3816,0.0,0.0,0.0,0.0,0.0,0.0,0.0,0.0,0.0,0.0,0.0,0.0,0.0,0.0,0.0,0.0,0.0,0.0,0.0,0.0,0.0,0.0,0.0,0.0,0.0,0.0,0.0,0.0,0.0,0.0,0.0,0.0,0.0,0.0,0.0,0.0,0.0,0.0,0.0,0.0,0.0,0.0,0.0,0.0,0.0,0.0,0.0,0.0,0.0,0.0,0.0,0.0,0.0,0.0,0.0,0.0,0.0,0.0,0.0,0.0,0.0,0.0,0.0,0.0,0.0,0.0,0.0,0.0,0.0,0.0,0.0,0.0,0.0,0.0,0.0,0.0,0.0,0.0,0.0,0.0,0.0,0.0,0.0,0.0,0.0,0.0,0.0,0.0,0.0,0.0,0.0,0.0,0.0,0.0,0.0,0.0,0.0,0.0,0.0,0.0,0.0,0.0,0.0,0.0,0.0,0.0,0.0,0.0,-2.5751,-2.5067,-2.4772,-2.4963,-2.528,-2.541,0.0,0.0,0.0,0.0,0.0,0.0,0.0,0.0,0.0,0.0,0.0,0.0,0.0,0.0,0.0,0.0,0.0,0.0,0.0,0.0,0.0,0.0,0.0,0.0,0.0,0.0,0.0,0.0,0.0,0.0,0.0,0.0,0.0,0.0,0.0,0.0,0.0,0.0,0.0,0.0,0.0,0.0,0.0,0.0,0.0,0.0,0.0,0.0,0.0,0.0,0.0,0.0,0.0,0.0,0.0,0.0,0.0,0.0,0.0,0.0,0.0,0.0,0.0,0.0,0.0,0.0,0.0,0.0,0.0,0.0,0.0,0.0,0.0,0.0,0.0,0.0,0.0,0.0,0.0,0.0,0.0,0.0,0.0,0.0,0.0,0.0,0.0,0.0,0.0,0.0,0.0,0.0,0.0,0.0,0.0,0.0,0.0,0.0,0.0,0.0,0.0,0.0,0.0,0.0,0.0,0.0,0.0,0.0,0.0,-2.4768,-2.4971,-2.4873,-2.4432,-2.556,-2.5712,0.0,0.0,0.0,0.0,0.0,0.0,0.0,0.0,0.0,0.0,0.0,0.0,0.0,0.0,0.0,0.0,0.0,0.0,0.0,0.0,0.0,0.0,0.0,0.0,0.0,0.0,0.0,0.0,0.0,0.0,0.0,0.0,0.0,0.0,0.0,0.0,0.0,0.0,0.0,0.0,0.0,0.0,0.0,0.0,0.0,0.0,0.0,0.0,0.0,0.0,0.0,0.0,0.0,0.0,0.0,0.0,0.0,0.0,0.0,0.0,0.0,0.0,0.0,0.0,0.0,0.0,0.0,0.0,0.0,0.0,0.0,0.0,0.0,0.0,0.0,0.0,0.0,0.0,0.0,0.0,0.0,0.0,0.0,0.0,0.0,0.0,0.0,0.0,0.0,0.0,0.0,0.0,0.0,0.0,0.0,0.0,0.0,0.0,0.0,0.0,0.0,0.0,0.0,0.0,0.0,0.0,0.0,0.0,0.0,-2.412,0.0,-2.4702,-2.4191,-2.5546,-2.5584,0.0,0.0,0.0,0.0,0.0,0.0,0.0,0.0,0.0,0.0,0.0,0.0,0.0,0.0,0.0,0.0,0.0,0.0,0.0,0.0,0.0,0.0,0.0,0.0,0.0,0.0,0.0,0.0,0.0,0.0,0.0,0.0,0.0,0.0,0.0,0.0,0.0,0.0,0.0,0.0,0.0,0.0,0.0,0.0,0.0,0.0,0.0,0.0,0.0,0.0,0.0,0.0,0.0,0.0,0.0,0.0,0.0,0.0,0.0,0.0,0.0,0.0,0.0,0.0,0.0,0.0,0.0,0.0,0.0,0.0,0.0,0.0,0.0,0.0,0.0,0.0,0.0,0.0,0.0,0.0,0.0,0.0,0.0,0.0,0.0,0.0,0.0,0.0,0.0,0.0,0.0,0.0,0.0,0.0,0.0,0.0,0.0,0.0,0.0,0.0,0.0,0.0,0.0,0.0,0.0,0.0,0.0,0.0,-2.4038,-2.3991,-2.414,-2.4289,-2.4413,-2.5173,-2.5084,0.0,0.0,0.0,0.0,0.0,0.0,0.0,0.0,0.0,0.0,0.0,0.0,0.0,0.0,0.0,0.0,0.0,0.0,0.0,0.0,0.0,0.0,0.0,0.0,0.0,0.0,0.0,0.0,0.0,0.0,0.0,0.0,0.0,0.0,0.0,0.0,0.0,0.0,0.0,0.0,0.0,0.0,0.0,0.0,0.0,0.0,0.0,0.0,0.0,0.0,0.0,0.0,0.0,0.0,0.0,0.0,0.0,0.0,0.0,0.0,0.0,0.0,0.0,0.0,0.0,0.0,0.0,0.0,0.0,0.0,0.0,0.0,0.0,0.0,0.0,0.0,0.0,0.0,0.0,0.0,0.0,0.0,0.0,0.0,0.0,0.0,0.0,0.0,0.0,0.0,0.0,0.0,0.0,0.0,0.0,0.0,0.0,0.0,0.0,0.0,0.0,0.0,0.0,0.0,0.0,0.0,0.0,0.0,0.0,-2.3401,-2.3907,-2.4411,-2.4855,-2.5175,-2.5371,0.0,0.0,0.0,0.0,0.0,0.0,0.0,0.0,0.0,0.0,0.0,0.0,0.0,0.0,0.0,0.0,0.0,0.0,0.0,0.0,0.0,0.0,0.0,0.0,0.0,0.0,0.0,0.0,0.0,0.0,0.0,0.0,0.0,0.0,0.0,0.0,0.0,0.0,0.0,0.0,0.0,0.0,0.0,0.0,0.0,0.0,0.0,0.0,0.0,0.0,0.0,0.0,0.0,0.0,0.0,0.0,0.0,0.0,0.0,0.0,0.0,0.0,0.0,0.0,0.0,0.0,0.0,0.0,0.0,0.0,0.0,0.0,0.0,0.0,0.0,0.0,0.0,0.0,0.0,0.0,0.0,0.0,0.0,0.0,0.0,0.0,0.0,0.0,0.0,0.0,0.0,0.0,0.0,0.0,0.0,0.0,0.0,0.0,0.0,0.0,0.0,0.0,0.0,0.0,0.0,0.0,0.0,0.0,0.0,-2.3614,-2.3827,-2.4203,-2.471,-2.5165,-2.5519,-2.5722,0.0,0.0,0.0,0.0,0.0,0.0,0.0,0.0,0.0,0.0,0.0,0.0,0.0,0.0,0.0,0.0,0.0,0.0,0.0,0.0,0.0,0.0,0.0,0.0,0.0,0.0,0.0,0.0,0.0,0.0,0.0,0.0,0.0,0.0,0.0,0.0,0.0,0.0,0.0,0.0,0.0,0.0,0.0,0.0,0.0,0.0,0.0,0.0,0.0,0.0,0.0,0.0,0.0,0.0,0.0,0.0,0.0,0.0,0.0,0.0,0.0,0.0,0.0,0.0,0.0,0.0,0.0,0.0,0.0,0.0,0.0,0.0,0.0,0.0,0.0,0.0,0.0,0.0,0.0,0.0,0.0,0.0,0.0,0.0,0.0,0.0,0.0,0.0,0.0,0.0,0.0,0.0,0.0,0.0,0.0,0.0,0.0,0.0,0.0,0.0,0.0,0.0,0.0,0.0,0.0,0.0,0.0,0.0,-2.451,-2.3996,-2.3913,-2.4285,-2.5263,-2.5617,0.0,0.0,0.0,0.0,0.0,0.0,0.0,0.0,0.0,0.0,0.0,0.0,0.0,0.0,0.0,0.0,0.0,0.0,0.0,0.0,0.0,0.0,0.0,0.0,0.0,0.0,0.0,0.0,0.0,0.0,0.0,0.0,0.0,0.0,0.0,0.0,0.0,0.0,0.0,0.0,0.0,0.0,0.0,0.0,0.0,0.0,0.0,0.0,0.0,0.0,0.0,0.0,0.0,0.0,0.0,0.0,0.0,0.0,0.0,0.0,0.0,0.0,0.0,0.0,0.0,0.0,0.0,0.0,0.0,0.0,0.0,0.0,0.0,0.0,0.0,0.0,0.0,0.0,0.0,0.0,0.0,0.0,0.0,0.0,0.0,0.0,0.0,0.0,0.0,0.0,0.0,0.0,0.0,0.0,0.0,0.0,0.0,0.0,0.0,0.0,0.0,0.0,0.0,0.0,0.0,0.0,0.0,0.0,0.0,-2.4484,-2.5075,-2.5542,-2.5871,-2.5826,-2.6087,0.0,0.0,0.0,0.0,0.0,0.0,0.0,0.0,0.0,0.0,0.0,0.0,0.0,0.0,0.0,0.0,0.0,0.0,0.0,0.0,0.0,0.0,0.0,0.0,0.0,0.0,0.0,0.0,0.0,0.0,0.0,0.0,0.0,0.0,0.0,0.0,0.0,0.0,0.0,0.0,0.0,0.0,0.0,0.0,0.0,0.0,0.0,0.0,0.0,0.0,0.0,0.0,0.0,0.0,0.0,0.0,0.0,0.0,0.0,0.0,0.0,0.0,0.0,0.0,0.0,0.0,0.0,0.0,0.0,0.0,0.0,0.0,0.0,0.0,0.0,0.0,0.0,0.0,0.0,0.0,0.0,0.0,0.0,0.0,0.0,0.0,0.0,0.0,0.0,0.0,0.0,0.0,0.0,0.0,0.0,0.0,0.0,0.0,0.0,0.0,0.0,0.0,0.0,0.0,0.0,0.0,0.0,0.0,-2.4197,-2.4844,-2.5944,-2.6667,-2.6977,-2.6703,-2.6667,0.0,0.0,0.0,0.0,0.0,0.0,0.0,0.0,0.0,0.0,0.0,0.0,0.0,0.0,0.0,0.0,0.0,0.0,0.0,0.0,0.0,0.0,0.0,0.0,0.0,0.0,0.0,0.0,0.0,0.0,0.0,0.0,0.0,0.0,0.0,0.0,0.0,0.0,0.0,0.0,0.0,0.0,0.0,0.0,0.0,0.0,0.0,0.0,0.0,0.0,0.0,0.0,0.0,0.0,0.0,0.0,0.0,0.0,0.0,0.0,0.0,0.0,0.0,0.0,0.0,0.0,0.0,0.0,0.0,0.0,0.0,0.0,0.0,0.0,0.0,0.0,0.0,0.0,0.0,0.0,0.0,0.0,0.0,0.0,0.0,0.0,0.0,0.0,0.0,0.0,0.0,0.0,0.0,0.0,0.0,0.0,0.0,0.0,0.0,0.0,0.0,0.0,0.0,0.0,0.0,0.0,0.0,0.0,-2.4932,-2.5458,-2.6675,-2.738,-2.7615,-2.7575,-2.7211,0.0,0.0,0.0,0.0,0.0,0.0,0.0,0.0,0.0,0.0,0.0,0.0,0.0,0.0,0.0,0.0,0.0,0.0,0.0,0.0,0.0,0.0,0.0,0.0,0.0,0.0,0.0,0.0,0.0,0.0,0.0,0.0,0.0,0.0,0.0,0.0,0.0,0.0,0.0,0.0,0.0,0.0,0.0,0.0,0.0,0.0,0.0,0.0,0.0,0.0,0.0,0.0,0.0,0.0,0.0,0.0,0.0,0.0,0.0,0.0,0.0,0.0,0.0,0.0,0.0,0.0,0.0,0.0,0.0,0.0,0.0,0.0,0.0,0.0,0.0,0.0,0.0,0.0,0.0,0.0,0.0,0.0,0.0,0.0,0.0,0.0,0.0,0.0,0.0,0.0,0.0,0.0,0.0,0.0,0.0,0.0,0.0,0.0,0.0,0.0,0.0,0.0,0.0,0.0,0.0,0.0,0.0,0.0,-2.5101,-2.5709,-2.7141,-2.7905,-2.783,-2.7373,-2.7118,0.0,0.0,0.0,0.0,0.0,0.0,0.0,0.0,0.0,0.0,0.0,0.0,0.0,0.0,0.0,0.0,0.0,0.0,0.0,0.0,0.0,0.0,0.0,0.0,0.0,0.0,0.0,0.0,0.0,0.0,0.0,0.0,0.0,0.0,0.0,0.0,0.0,0.0,0.0,0.0,0.0,0.0,0.0,0.0,0.0,0.0,0.0,0.0,-2.6712,0.0,0.0,0.0,0.0,0.0,0.0,0.0,0.0,0.0,0.0,0.0,0.0,0.0,0.0,0.0,0.0,0.0,0.0,0.0,0.0,0.0,0.0,0.0,0.0,0.0,0.0,0.0,0.0,0.0,0.0,0.0,0.0,0.0,0.0,0.0,0.0,0.0,0.0,0.0,0.0,0.0,0.0,0.0,0.0,0.0,0.0,0.0,0.0,0.0,0.0,0.0,0.0,0.0,0.0,0.0,0.0,0.0,0.0,0.0,-2.5524,-2.6222,-2.7373,-2.8118,-2.8384,-2.7497,-2.7103,0.0,0.0,0.0,0.0,0.0,0.0,0.0,0.0,0.0,0.0,0.0,0.0,0.0,0.0,0.0,0.0,0.0,0.0,0.0,0.0,0.0,0.0,0.0,0.0,0.0,0.0,0.0,0.0,0.0,0.0,0.0,0.0,0.0,0.0,0.0,0.0,0.0,0.0,0.0,0.0,0.0,0.0,0.0,0.0,0.0,0.0,0.0,0.0,0.0,0.0,0.0,0.0,0.0,0.0,0.0,0.0,0.0,0.0,0.0,0.0,0.0,0.0,0.0,0.0,0.0,0.0,0.0,0.0,0.0,0.0,0.0,0.0,0.0,0.0,0.0,0.0,0.0,0.0,0.0,0.0,0.0,0.0,0.0,0.0,0.0,0.0,0.0,0.0,0.0,0.0,0.0,0.0,0.0,0.0,0.0,0.0,0.0,0.0,0.0,0.0,0.0,0.0,0.0,0.0,0.0,0.0,0.0,-2.5319,-2.5985,-2.6991,-2.767,-2.8412,-2.9106,-2.7907,-2.7411,-2.7664,0.0,0.0,0.0,0.0,0.0,0.0,0.0,0.0,0.0,0.0,0.0,0.0,0.0,0.0,0.0,0.0,0.0,0.0,0.0,0.0,0.0,0.0,0.0,0.0,0.0,0.0,0.0,0.0,0.0,0.0,0.0,0.0,0.0,0.0,0.0,0.0,0.0,0.0,-2.8351,-2.9386,0.0,0.0,0.0,0.0,0.0,0.0,0.0,0.0,-2.8682,0.0,0.0,0.0,0.0,0.0,0.0,0.0,0.0,0.0,0.0,0.0,0.0,0.0,0.0,0.0,0.0,0.0,0.0,0.0,0.0,0.0,0.0,0.0,0.0,0.0,0.0,0.0,0.0,0.0,0.0,0.0,0.0,0.0,0.0,0.0,0.0,0.0,0.0,0.0,0.0,0.0,0.0,0.0,0.0,0.0,0.0,0.0,0.0,0.0,0.0,0.0,0.0,0.0,0.0,0.0,0.0,-2.6012,-2.5369,-2.6071,-2.8217,-2.8738,-2.9268,-2.9866,-2.8955,-2.8754,-2.9331,0.0,0.0,0.0,0.0,0.0,0.0,0.0,0.0,0.0,0.0,0.0,0.0,0.0,0.0,0.0,0.0,0.0,0.0,0.0,0.0,0.0,0.0,0.0,0.0,0.0,0.0,0.0,0.0,0.0,0.0,0.0,0.0,0.0,0.0,0.0,0.0,0.0,0.0,0.0,-2.9872,-3.0365,0.0,0.0,0.0,0.0,0.0,0.0,0.0,0.0,-2.8726,0.0,0.0,0.0,0.0,0.0,0.0,0.0,0.0,0.0,0.0,0.0,0.0,0.0,0.0,0.0,0.0,0.0,0.0,0.0,0.0,0.0,0.0,0.0,0.0,0.0,0.0,0.0,0.0,0.0,0.0,0.0,0.0,0.0,0.0,0.0,0.0,0.0,0.0,0.0,0.0,0.0,0.0,0.0,0.0,0.0,0.0,0.0,0.0,0.0,0.0,0.0,0.0,0.0,0.0,0.0,-2.6787,-2.6306,-2.6985,-2.8975,-2.9464,-2.9989,-3.0659,-2.9583,-2.9457,0.0,0.0,0.0,0.0,0.0,0.0,0.0,0.0,0.0,0.0,0.0,0.0,0.0,0.0,0.0,0.0,0.0,0.0,0.0,0.0,0.0,0.0,0.0,0.0,0.0,0.0,0.0,0.0,0.0,0.0,0.0,0.0,0.0,0.0,0.0,0.0,0.0,0.0,0.0,0.0,-3.0572,-3.0831,-3.17,0.0,0.0,0.0,0.0,0.0,0.0,-3.0503,-3.0576,0.0,0.0,0.0,0.0,0.0,0.0,0.0,0.0,0.0,0.0,0.0,0.0,0.0,0.0,0.0,0.0,0.0,0.0,0.0,0.0,0.0,0.0,0.0,0.0,0.0,0.0,0.0,0.0,0.0,0.0,0.0,0.0,0.0,0.0,0.0,0.0,0.0,0.0,0.0,0.0,0.0,0.0,0.0,0.0,0.0,0.0,0.0,0.0,0.0,0.0,0.0,0.0,0.0,0.0,0.0,-2.7463,-2.7067,-2.7744,-2.9604,-2.9943,-3.0512,-3.1395,-3.0003,-2.9896,0.0,0.0,0.0,0.0,0.0,0.0,0.0,0.0,0.0,0.0,0.0,0.0,0.0,0.0,0.0,0.0,0.0,0.0,0.0,0.0,0.0,0.0,0.0,0.0,0.0,0.0,0.0,0.0,0.0,0.0,0.0,0.0,0.0,0.0,0.0,0.0,0.0,0.0,0.0,0.0,0.0,-3.1719,-3.2779,-3.2589,0.0,0.0,0.0,0.0,-3.2524,-3.2482,0.0,0.0,0.0,0.0,0.0,0.0,0.0,0.0,0.0,0.0,0.0,0.0,0.0,0.0,0.0,0.0,0.0,0.0,0.0,0.0,0.0,0.0,0.0,0.0,0.0,0.0,0.0,0.0,0.0,0.0,0.0,0.0,0.0,0.0,0.0,0.0,0.0,0.0,0.0,0.0,0.0,0.0,0.0,0.0,0.0,0.0,0.0,0.0,0.0,0.0,0.0,0.0,0.0,0.0,0.0,0.0,-2.7565,-2.6698,-2.7525,-3.0113,-3.009,-3.0671,-3.2028,-3.0227,-3.0111,0.0,0.0,0.0,0.0,0.0,0.0,0.0,0.0,0.0,0.0,0.0,0.0,0.0,0.0,0.0,0.0,0.0,0.0,0.0,0.0,0.0,0.0,0.0,0.0,0.0,0.0,0.0,0.0,0.0,0.0,0.0,0.0,0.0,0.0,0.0,0.0,0.0,0.0,0.0,0.0,0.0,-3.3295,-3.2399,-3.2847,-3.3364,0.0,0.0,-3.2551,-3.274,-3.3039,0.0,0.0,0.0,0.0,0.0,0.0,0.0,0.0,0.0,0.0,0.0,0.0,0.0,0.0,0.0,0.0,0.0,0.0,0.0,0.0,0.0,0.0,0.0,0.0,0.0,0.0,0.0,0.0,0.0,0.0,0.0,0.0,0.0,0.0,0.0,0.0,0.0,0.0,0.0,0.0,0.0,0.0,0.0,0.0,0.0,0.0,0.0,0.0,0.0,0.0,0.0,0.0,0.0,0.0,0.0,-2.739,-2.866,-2.8276,-2.8945,-3.0825,-3.0808,-3.1322,-3.2453,-3.0813,-3.0766,0.0,0.0,0.0,0.0,0.0,0.0,0.0,0.0,0.0,0.0,0.0,0.0,0.0,0.0,0.0,0.0,0.0,0.0,0.0,0.0,0.0,0.0,0.0,0.0,0.0,0.0,0.0,0.0,0.0,0.0,0.0,0.0,0.0,0.0,0.0,0.0,0.0,0.0,0.0,0.0,0.0,0.0,-3.4063,-3.4524,0.0,0.0,0.0,-3.4727,-3.4927,0.0,0.0,0.0,0.0,0.0,0.0,0.0,0.0,0.0,0.0,0.0,0.0,0.0,0.0,0.0,0.0,0.0,0.0,0.0,0.0,0.0,0.0,0.0,0.0,0.0,0.0,0.0,0.0,0.0,0.0,0.0,0.0,0.0,0.0,0.0,0.0,0.0,0.0,0.0,0.0,0.0,0.0,0.0,0.0,0.0,0.0,0.0,0.0,0.0,0.0,0.0,0.0,0.0,0.0,0.0,0.0,0.0,-2.9574,-2.9432,-2.9997,-3.1232,-3.1291,-3.1705,-3.2577,-3.1406,0.0,0.0,0.0,0.0,0.0,0.0,0.0,0.0,0.0,0.0,0.0,0.0,0.0,0.0,0.0,0.0,0.0,0.0,0.0,0.0,0.0,0.0,0.0,0.0,0.0,0.0,0.0,0.0,0.0,0.0,0.0,0.0,0.0,0.0,0.0,0.0,0.0,0.0,0.0,0.0,0.0,0.0,-3.502,-3.5499,-3.6123,-3.6456,0.0,0.0,-3.6797,-3.6415,-3.6334,-3.6307,0.0,0.0,0.0,0.0,0.0,0.0,0.0,0.0,0.0,0.0,0.0,0.0,0.0,0.0,0.0,0.0,0.0,0.0,0.0,0.0,0.0,0.0,0.0,0.0,0.0,0.0,0.0,0.0,0.0,0.0,0.0,0.0,0.0,0.0,0.0,0.0,0.0,0.0,0.0,0.0,0.0,0.0,0.0,0.0,0.0,0.0,0.0,0.0,0.0,0.0,0.0,0.0,0.0,0.0,0.0,-2.9909,-2.9219,-2.9656,-3.1241,-3.1227,-3.1578,-3.2398,-3.2089,-3.2168,0.0,0.0,0.0,0.0,0.0,0.0,0.0,0.0,0.0,0.0,0.0,0.0,0.0,0.0,0.0,0.0,0.0,0.0,0.0,0.0,0.0,0.0,0.0,0.0,0.0,0.0,0.0,0.0,0.0,0.0,0.0,0.0,0.0,0.0,0.0,0.0,0.0,0.0,0.0,0.0,0.0,-3.6754,-3.5817,-3.7044,-3.7868,0.0,0.0,-3.8031,-3.6076,-3.7058,-3.7511,-3.5995,0.0,0.0,0.0,0.0,0.0,0.0,0.0,0.0,0.0,0.0,0.0,0.0,0.0,0.0,0.0,0.0,0.0,0.0,0.0,0.0,0.0,0.0,0.0,0.0,0.0,0.0,0.0,0.0,0.0,0.0,0.0,0.0,0.0,0.0,0.0,0.0,0.0,0.0,0.0,0.0,0.0,0.0,0.0,0.0,0.0,0.0,0.0,0.0,0.0,0.0,0.0,0.0,0.0,-3.0102,-3.0966,-3.0388,-3.0705,-3.19,-3.1723,-3.2014,-3.2917,-3.2249,-3.2124,0.0,0.0,0.0,0.0,0.0,0.0,0.0,0.0,0.0,0.0,0.0,0.0,0.0,0.0,0.0,0.0,0.0,0.0,0.0,0.0,0.0,0.0,0.0,0.0,0.0,0.0,0.0,0.0,-2.8109,-2.8551,-2.9184,0.0,0.0,0.0,0.0,0.0,0.0,0.0,0.0,0.0,0.0,-3.7263,-3.7534,-3.871,0.0,0.0,-3.9522,-3.9592,-3.8422,-3.8755,-3.8894,-3.809,-3.7772,0.0,0.0,0.0,0.0,0.0,0.0,0.0,0.0,0.0,0.0,0.0,0.0,0.0,0.0,0.0,0.0,0.0,0.0,0.0,0.0,0.0,0.0,0.0,0.0,0.0,0.0,0.0,0.0,0.0,0.0,0.0,0.0,0.0,0.0,0.0,0.0,0.0,0.0,0.0,0.0,0.0,0.0,0.0,0.0,0.0,0.0,0.0,0.0,0.0,0.0,0.0,0.0,-3.093,-3.1743,-3.1371,-3.1612,-3.2461,-3.2219,-3.243,-3.3164,-3.2702,-3.2542,0.0,0.0,0.0,0.0,0.0,0.0,0.0,0.0,0.0,0.0,0.0,0.0,0.0,0.0,0.0,0.0,0.0,0.0,0.0,0.0,0.0,0.0,0.0,0.0,0.0,0.0,0.0,0.0,-2.9503,-2.9757,-2.9887,0.0,0.0,0.0,0.0,0.0,0.0,0.0,0.0,0.0,0.0,-3.7786,-3.8781,-3.9869,-4.0391,-3.9999,-4.0661,-4.0943,-4.0168,-4.0463,-4.0463,-3.9815,0.0,0.0,0.0,0.0,0.0,0.0,0.0,0.0,0.0,0.0,0.0,0.0,0.0,0.0,0.0,0.0,0.0,0.0,0.0,0.0,0.0,0.0,0.0,0.0,0.0,0.0,0.0,0.0,0.0,0.0,-3.4698,0.0,0.0,0.0,0.0,0.0,0.0,0.0,0.0,0.0,0.0,0.0,0.0,0.0,0.0,0.0,0.0,0.0,0.0,0.0,0.0,0.0,0.0,-3.1861,-3.2055,-3.1861,-3.2068,-3.2704,-3.2676,-3.281,-3.3079,-3.3479,-3.3583,-3.3255,0.0,0.0,0.0,0.0,0.0,0.0,0.0,0.0,0.0,0.0,0.0,0.0,0.0,0.0,0.0,0.0,0.0,0.0,0.0,0.0,0.0,0.0,0.0,0.0,0.0,0.0,-2.8579,-2.943,-2.9986,0.0,0.0,0.0,0.0,0.0,0.0,0.0,0.0,0.0,0.0,-3.769,-3.863,-3.9073,-4.0196,-4.0845,-4.0417,-4.1453,-4.191,-4.09,-4.1934,-4.2285,0.0,0.0,0.0,0.0,0.0,0.0,0.0,0.0,0.0,0.0,0.0,0.0,0.0,0.0,0.0,0.0,0.0,0.0,0.0,0.0,0.0,0.0,0.0,0.0,0.0,0.0,0.0,-3.4094,-3.4156,0.0,0.0,0.0,0.0,0.0,0.0,0.0,0.0,0.0,0.0,0.0,-3.2294,-3.2294,0.0,0.0,0.0,0.0,0.0,0.0,0.0,0.0,0.0,0.0,0.0,0.0,-3.225,-3.2266,-3.2222,-3.2563,-3.332,-3.3592,-3.3932,-3.4433,-3.4184,-3.3808,-3.3239,0.0,0.0,0.0,0.0,0.0,0.0,0.0,0.0,0.0,0.0,0.0,0.0,0.0,0.0,0.0,0.0,0.0,0.0,0.0,0.0,0.0,0.0,0.0,0.0,0.0,-3.0109,0.0,0.0,0.0,0.0,0.0,0.0,0.0,0.0,0.0,0.0,0.0,-3.5967,-3.7483,-3.8159,-3.8908,-3.9997,-4.117,-4.1867,0.0,0.0,0.0,0.0,0.0,0.0,0.0,0.0,0.0,0.0,0.0,0.0,0.0,0.0,-4.1402,-3.9071,-3.8514,-3.8501,-3.8918,0.0,0.0,0.0,0.0,0.0,0.0,0.0,0.0,0.0,0.0,0.0,0.0,0.0,0.0,-3.2848,0.0,-3.3213,0.0,0.0,0.0,0.0,0.0,0.0,0.0,0.0,-3.2109,-3.2003,-3.2116,-3.2116,-3.2214,0.0,-3.2199,-3.2513,0.0,0.0,0.0,0.0,0.0,0.0,0.0,0.0,-3.2493,-3.2497,-3.2715,-3.319,-3.3871,-3.4268,-3.4685,-3.5161,-3.4562,-3.3896,-3.3239,-3.3358,-3.3816,0.0,0.0,0.0,0.0,0.0,0.0,0.0,0.0,0.0,0.0,0.0,0.0,0.0,0.0,0.0,0.0,0.0,0.0,0.0,0.0,0.0,0.0,0.0,-3.0913,0.0,0.0,0.0,0.0,0.0,0.0,0.0,0.0,0.0,-3.5092,-3.564,-3.6675,-3.8422,-3.8839,-3.9466,-4.0942,0.0,0.0,0.0,0.0,0.0,0.0,0.0,-4.4642,-4.4411,-4.4253,-4.395,-4.3675,-4.3884,-4.4032,-4.3714,0.0,0.0,-4.0828,-4.024,-4.0253,-4.0563,-4.0574,-4.0738,-4.1539,-4.1413,-4.1439,0.0,0.0,0.0,0.0,0.0,0.0,0.0,0.0,-3.1171,-3.1573,0.0,-3.1791,0.0,0.0,0.0,0.0,0.0,-3.2158,0.0,0.0,-3.1254,-3.1124,-3.1065,-3.1092,-3.127,-3.1623,-3.2027,-3.2453,-3.2932,-3.2129,0.0,0.0,0.0,0.0,0.0,0.0,-3.2731,-3.2795,-3.3412,-3.3954,-3.4301,-3.4724,-3.5069,-3.5254,-3.4655,-3.4028,-3.3438,-3.3648,-3.3991,-3.4553,-3.4982,0.0,0.0,0.0,0.0,0.0,0.0,0.0,0.0,0.0,0.0,0.0,0.0,0.0,0.0,0.0,0.0,0.0,0.0,0.0,0.0,-3.1468,0.0,0.0,0.0,0.0,0.0,0.0,0.0,0.0,0.0,0.0,-3.6091,-3.6425,-3.7358,-3.9257,0.0,0.0,0.0,0.0,-4.2824,-4.4024,-4.4584,-4.5303,-4.6599,-4.6436,-4.5956,-4.5384,0.0,0.0,-4.3774,-4.4818,-4.5553,-4.5217,-4.4855,-4.4172,-4.2628,-4.2593,-4.2601,-4.2067,-4.2399,-4.2972,-4.3472,-4.3789,-4.4115,-3.1646,0.0,0.0,0.0,0.0,-3.249,-3.2131,-3.1818,-3.1447,-3.153,-3.1875,-3.1433,0.0,0.0,0.0,0.0,0.0,0.0,-3.2206,-3.2063,-3.1792,-3.182,-3.1992,-3.1992,-3.2063,-3.2171,-3.1968,-3.2148,-3.2514,-3.1999,-3.2258,-3.3262,0.0,0.0,0.0,0.0,-3.3792,-3.3892,-3.4598,-3.5317,-3.5963,-3.6125,-3.6285,-3.647,-3.6298,-3.597,-3.5546,-3.5583,-3.5827,-3.6257,-3.6379,0.0,0.0,0.0,0.0,0.0,0.0,0.0,0.0,0.0,0.0,0.0,0.0,0.0,0.0,0.0,0.0,0.0,0.0,0.0,-3.1193,-3.1899,-3.2133,0.0,0.0,0.0,0.0,0.0,0.0,0.0,0.0,0.0,-3.8112,-3.7627,-3.7987,0.0,0.0,-4.0783,-4.2209,-4.3101,-4.3938,-4.4767,0.0,0.0,0.0,-4.7286,-4.7182,-4.6821,-4.6602,-4.6307,-4.5826,-4.6063,-4.628,-4.6014,-4.5886,-4.5705,-4.5476,-4.4699,-4.4102,-4.3925,-4.4298,-4.4858,-4.5349,-4.5613,-4.5789,-3.184,-3.2954,-3.2745,-3.2423,-3.2061,-3.1739,-3.145,-3.1088,-3.0775,-3.0883,-3.1284,-3.0856,-3.1247,-3.2194,-3.1868,0.0,0.0,0.0,-3.2128,-3.1946,-3.2046,-3.2228,-3.2417,-3.2489,-3.2561,-3.2605,-3.2239,-3.2455,-3.3215,-3.2702,-3.3149,-3.4356,0.0,0.0,-3.3713,-3.425,-3.4625,-3.4808,-3.5549,-3.6208,-3.6691,-3.7023,-3.7098,-3.6987,-3.7061,-3.6881,-3.6416,-3.6422,-3.6525,-3.6831,-3.6685,-3.6618,0.0,0.0,0.0,0.0,0.0,0.0,0.0,0.0,0.0,0.0,0.0,-3.4167,0.0,0.0,0.0,0.0,-3.2064,-3.2034,-3.2241,-3.2364,0.0,0.0,0.0,0.0,0.0,0.0,0.0,-3.5573,-3.7145,-3.8556,-3.9476,-3.9348,-3.9741,-4.1369,-4.1753,-4.2249,-4.3377,0.0,-4.5199,-4.6091,-4.6893,-4.7623,-4.8182,-4.8143,-4.7864,-4.7367,-4.7521,-4.7501,-4.7004,-4.7202,-4.736,-4.7044,-4.7087,-4.7208,-4.7257,-4.6584,-4.5907,-4.5546,-4.5853,-4.6271,-4.6595,-4.7038,-4.7431,-3.2655,-3.3286,-3.2219,-3.1446,-3.0886,-3.0669,-3.0351,-2.9989,-2.9751,-3.0077,-3.0734,-3.0228,-3.0804,-3.2181,-3.2299,0.0,-3.175,-3.1884,-3.1775,-3.1439,-3.2135,-3.2489,-3.2525,-3.2704,-3.2874,-3.3107,-3.2751,-3.327,-3.4504,-3.4072,-3.4635,-3.6,-3.4477,-3.4057,-3.4845,-3.5094,-3.5368,-3.5658,-3.6396,-3.6851,-3.6842,-3.7584,-3.7725,-3.7147,-3.7331,-3.7215,-3.6668,-3.6639,-3.6639,-3.6775,-3.6425,-3.6541,-3.7192,0.0,0.0,0.0,0.0,0.0,0.0,0.0,0.0,0.0,0.0,0.0,0.0,0.0,0.0,0.0,-3.2518,0.0,-3.4276,-3.2948,0.0,0.0,0.0,-3.4211,-3.6401,-3.6549,-3.6877,-3.7909,0.0,0.0,-4.0445,0.0,-4.2122,-4.3095,-4.3703,-4.4284,-4.4923,-4.5562,-4.6479,-4.7643,-4.8209,-4.8798,-4.9407,-4.8953,-4.8297,-4.7664,-4.7806,-4.8055,-4.7741,-4.8313,-4.8652,-4.806,-4.8283,-4.8453,-4.8207,-4.8072,-4.7869,-4.7008,-4.7123,-4.7325,-4.7544,-4.8302,-4.8893,-3.3038,-3.3405,-3.3073,-3.2695,-3.231,-3.2086,-3.1931,-3.1745,-3.0987,-3.097,-3.1479,-3.0519,-3.0219,-3.0475,-3.1216,-3.1529,-3.1455,-3.2179,-3.247,-3.2404,-3.2834,-3.3164,-3.3297,-3.3368,-3.3656,-3.4122,-3.4043,-3.4381,-3.5009,-3.522,-3.556,-3.5971,-3.5886,-3.5758,-3.5583,-3.6069,-3.6531,-3.6895,-3.7362,-3.7745,-3.8074,-3.8413,-3.8524,-3.8377,-3.8561,-3.8684,-3.871,-3.8536,-3.8427,-3.8252,-3.8062,-3.7825,-3.7737,-3.7396,0.0,0.0,0.0,0.0,0.0,0.0,0.0,0.0,0.0,-3.4232,-3.3692,0.0,-3.3799,0.0,-3.4187,-3.4409,-3.4471,-3.4498,0.0,0.0,-3.4728,-3.5345,-3.6675,-3.7689,-3.8422,-3.8753,-3.9815,-4.0788,-4.1753,-4.2567,-4.369,-4.5047,-4.4821,-4.4791,-4.574,-4.6636,-4.7476,-4.8223,-4.8992,-4.9592,-4.9669,-4.9386,-4.9066,-4.9068,-4.9433,-4.9494,-4.8686,-4.9159,-4.9423,-4.8823,-4.8717,-4.8859,-4.8987,-4.871,-4.8474,-4.8418,-4.8465,-4.8752,-4.9202,-4.9539,-4.982,-3.386,-3.4418,-3.4326,-3.4146,-3.3925,-3.3212,-3.2809,-3.2614,-3.197,-3.1909,-3.2305,-3.1627,-3.1096,-3.0815,-3.1575,-3.2116,-3.2426,-3.3024,-3.3342,-3.3406,-3.3691,-3.3938,-3.4142,-3.4212,-3.4667,-3.5417,-3.5275,-3.5619,-3.6395,-3.6541,-3.6903,-3.7491,-3.7807,-3.7735,-3.7266,-3.7142,-3.7279,-3.768,-3.7887,-3.8277,-3.8723,-3.887,-3.8907,-3.8833,-3.898,-3.909,-3.9126,-3.9017,-3.8833,-3.8538,-3.8164,-3.7978,-3.7901,-3.7377,-3.7044,0.0,0.0,0.0,0.0,0.0,0.0,0.0,0.0,0.0,0.0,0.0,-3.4513,0.0,-3.4782,-3.4823,-3.5002,-3.4995,-3.5159,-3.5562,-3.6031,-3.6889,-3.8335,-3.9268,-4.0016,-4.0656,-4.1264,-4.209,-4.3168,-4.3945,-4.4916,-4.6377,-4.6324,-4.6268,-4.68,-4.7778,-4.8566,-4.8787,-4.9647,-5.0265,-5.0076,-4.9844,-4.9698,-4.9844,-4.9988,-4.9828,-4.9363,-4.9774,-5.009,-4.9595,-4.9538,-4.9538,-4.9538,-4.9081,-4.8902,-4.9551,-4.9768,-4.9766,-4.9591,-4.9988,-5.0491,-3.4888,-3.575,-3.5616,-3.5571,-3.5598,-3.4407,-3.367,-3.3341,-3.2936,-3.2871,-3.309,-3.2966,-3.2631,-3.2218,-3.2698,-3.3282,-3.3937,-3.4273,-3.4453,-3.4453,-3.4704,-3.4882,-3.5059,-3.5264,-3.5828,-3.6764,-3.6503,-3.6895,-3.7971,-3.7834,-3.8309,-3.9337,-3.9553,-3.9451,-3.9126,-3.82,-3.7879,-3.8248,-3.8402,-3.8692,-3.9201,-3.9201,-3.9091,-3.8878,-3.8966,-3.8973,-3.876,-3.8723,-3.8509,-3.8173,-3.7635,-3.7502,-3.7843,-3.7044,-3.6788,0.0,-3.6968,0.0,0.0,0.0,0.0,0.0,0.0,0.0,0.0,-3.5294,-3.5377,-3.5763,-3.51,-3.4986,-3.5869,-3.5395,-3.5656,-3.7152,-3.7732,-3.8672,-4.0402,-4.0797,-4.1349,-4.26,-4.2566,-4.3025,-4.4482,-4.5066,-4.5825,-4.7152,-4.7691,-4.7861,-4.7842,-4.8692,-4.9388,-4.9314,-5.0223,-5.0763,-5.0662,-5.0375,-5.0135,-5.0135,-5.0087,-4.9805,-4.9698,-5.022,-5.0577,-5.0291,-5.0241,-5.0198,-4.9946,-4.9495,-4.9559,-5.0417,-5.0709,-5.0588,-4.9921,-5.0379,-5.08,-3.5588,-3.6246,-3.6246,-3.6401,-3.6693,-3.6437,-3.5909,-3.5217,-3.4496,-3.3953,-3.3485,-3.3486,-3.3487,-3.3559,-3.3812,-3.4401,-3.5184,-3.5575,-3.5719,-3.5755,-3.6218,-3.6465,-3.65,-3.6535,-3.6998,-3.7766,-3.7611,-3.7929,-3.859,-3.859,-3.8789,-3.9156,-3.9162,-3.9235,-3.9343,0.0,0.0,0.0,-3.955,-3.9958,-3.9884,-3.9735,-3.9509,-3.9139,-3.8793,0.0,-3.8315,-3.8136,-3.8023,-3.7947,-3.7701,0.0,0.0,0.0,0.0,0.0,0.0,0.0,0.0,0.0,0.0,0.0,-3.6497,-3.6108,-3.5548,-3.5707,-3.5961,-3.6258,-3.6235,-3.6532,-3.7173,-3.7774,-3.8302,-3.8948,-3.9576,-4.0334,-4.1332,-4.1498,-4.1901,-4.2841,-4.29,-4.3526,-4.5147,-4.5481,-4.6199,-4.7806,-4.8343,-4.8438,-4.8396,-4.8791,-4.9361,-4.9995,-5.0713,-5.1199,-5.1369,-5.0852,-5.0453,-5.0434,-5.0652,-5.0437,-4.9892,-5.0299,-5.0502,-4.9997,-5.0258,-5.0461,-4.9898,-5.0269,-5.0666,-5.0464,-5.1007,-5.1547,-5.1573,-5.1774,-5.1861,-3.6389,0.0,-3.6693,-3.6929,0.0,-3.7289,-3.7234,-3.7044,-3.5855,-3.4883,-3.4052,-3.4016,-3.3928,-3.3861,-3.4413,-3.5111,-3.5928,-3.6671,-3.6996,-3.6996,-3.7275,-3.7493,-3.7669,-3.7669,-3.8137,-3.9013,-3.9002,-3.908,-3.9379,-3.9409,-3.9487,-3.9666,-3.9696,-3.9768,-3.9809,-3.9768,-3.9523,-3.9235,-3.9672,-3.9997,-4.0173,-3.9918,-3.9594,-3.9298,0.0,0.0,0.0,0.0,0.0,0.0,0.0,0.0,0.0,0.0,0.0,-3.7471,-3.7356,-3.7289,-3.7317,-3.724,-3.7211,-3.7433,-3.7278,-3.6905,-3.6258,-3.6665,-3.6989,-3.7134,-3.7327,-3.7672,-3.8333,-3.8871,-3.9421,-3.9973,-4.0637,-4.1312,-4.1834,-4.2545,-4.318,-4.3778,-4.4228,-4.4961,-4.6161,-4.6405,-4.6924,-4.8087,-4.8469,-4.8604,-4.8666,-4.9136,-4.9776,-5.0669,-5.1228,-5.1618,-5.1695,-5.1276,-5.0805,-5.0721,-5.0592,-5.0311,-4.9776,-5.027,-5.0589,-5.0278,-5.0714,-5.1004,-5.0772,-5.1078,-5.141,-5.1439,-5.1799,-5.2225,-5.2591,-5.2573,-5.2329,-3.713,-3.7095,-3.7095,-3.7327,-3.7777,-3.7777,-3.8052,-3.8472,0.0,0.0,0.0,-3.5003,-3.4796,-3.4583,-3.527,-3.6025,-3.685,-3.7729,-3.8138,-3.8102,-3.8174,-3.8353,-3.8571,-3.8571,-3.9048,-3.991,-3.9905,-3.991,-3.9945,-3.9945,-4.0051,-4.0261,-4.0327,-4.0296,-4.0331,-4.0331,-4.0191,-3.9874,-3.9715,-3.9919,-4.0375,-3.9985,-3.9697,-3.948,-3.9179,-3.8907,-3.8723,-3.8657,-3.8612,-3.8456,-3.8277,-3.8165,-3.8014,-3.7825,-3.7701,-3.7558,-3.7558,-3.7634,-3.7787,-3.7634,-3.7711,-3.8043,-3.7929,-3.7663,-3.7211,-3.7606,-3.7967,-3.8121,-3.8339,-3.8713,-3.943,-3.9797,-4.0176,-4.0783,-4.1676,-4.2337,-4.2594,-4.3748,-4.4669,-4.5002,-4.5556,-4.6285,-4.6935,-4.7221,-4.762,-4.8243,-4.8593,-4.8738,-4.8892,-4.9592,-5.0352,-5.0971,-5.159,-5.2017,-5.1972,-5.1649,-5.1246,-5.0917,-5.0567,-5.0183,-4.9951,-5.0231,-5.056,-5.0676,-5.112,-5.1381,-5.1556,-5.1701,-5.1962,-5.2536,-5.2688,-5.2839,-5.3093,-5.3054,-5.2734,-3.7653,-3.751,-3.751,-3.7853,-3.8381,-3.8381,-3.8501,-3.8694,-3.8339,-3.7864,-3.7409,-3.7229,-3.7207,-3.7298,-3.7451,-3.7942,-3.8713,-3.905,-3.9109,0.0,-3.9296,-3.9367,-3.926,-3.929,-3.9427,-3.9732,-3.9583,-3.9553,-3.9732,-3.9732,-3.9945,-4.0292,-4.0327,-4.0366,-4.047,-4.047,-4.047,-4.0401,-4.0568,-4.0728,-4.08,-4.0284,-3.9943,-3.9727,-3.898,-3.8464,-3.8277,-3.8315,-3.8277,-3.824,-3.8202,-3.8277,-3.8418,-3.8381,-3.8427,-3.8575,-3.8612,-3.8612,-3.8649,-3.8583,-3.8612,-3.8686,-3.8649,-3.8389,-3.7834,-3.7834,-3.8178,-3.8919,-3.9206,-3.9651,-4.0489,-4.1281,-4.1793,-4.2166,-4.3409,-4.4288,-4.4288,-4.5153,-4.5839,-4.6072,-4.6183,-4.6661,-4.7487,-4.7661,-4.805,-4.8708,-4.9047,-4.9161,-4.9707,-5.024,-5.0617,-5.09,-5.1631,-5.2169,-5.2215,-5.2063,-5.1695,-5.1199,-5.1088,-5.0757,-5.0231,-5.0203,-5.0369,-5.0668,-5.0822,-5.1083,-5.1497,-5.2078,-5.2397,-5.2681,-5.2978,-5.3355,-5.3658,-5.353,-5.3213,-3.8236,-3.8202,-3.8127,-3.8277,-3.8686,-3.876,-3.887,-3.8943,-3.898,-3.8618,-3.7997,-3.7571,-3.7464,-3.7669,-3.7996,-3.843,-3.8906,-3.9474,-3.9625,-3.9481,-3.9625,-3.9661,-3.9589,-3.9553,-3.9661,-3.9839,-3.9798,-3.9803,-4.0016,-4.0016,-4.0156,-4.0401,-4.0401,-4.0436,-4.0505,-4.0505,-4.0505,-4.0505,-4.0607,-4.0689,-4.0689,-4.0364,-4.0112,-3.9895,-3.9414,-3.9053,-3.8833,-3.8833,-3.8863,-3.8833,-3.8723,-3.887,-3.9335,-3.9253,-3.9392,-3.9829,-3.9896,-3.9934,-4.0046,-4.0159,-4.0204,-4.0204,-4.0204,-4.0129,-3.9979,-3.9429,-3.948,-4.0288,-4.0491,-4.0901,-4.1748,-4.2521,-4.3139,-4.3587,-4.472,-4.5385,-4.5516,-4.6194,-4.6875,-4.7323,-4.7845,-4.846,-4.9189,-4.9281,-4.9416,-4.9839,-4.9912,-5.0109,-5.0472,-5.1017,-5.1351,-5.1313,-5.1963,-5.2471,-5.2518,-5.2306,-5.2033,-5.1803,-5.1463,-5.1135,-5.068,-5.0489,-5.0426,-5.0545,-5.069,-5.1137,-5.1699,-5.2238,-5.2652,-5.3065,-5.3268,-5.3553,-5.3605,-5.3553,-5.3372,-3.8796,-3.8767,-3.8612,-3.8686,-3.8907,-3.9304,-3.9384,-3.9265,-3.9445,-3.911,-3.846,-3.7953,-3.7814,-3.7982,-3.8497,-3.8843,-3.9073,-3.9702,-4.0036,-3.9943,-3.9828,-3.9792,-3.9913,-3.9757,-3.9803,-4.0006,-4.0163,-4.033,-4.0506,-4.0694,-4.0826,-4.0966,-4.0966,-4.0874,-4.072,-4.0786,-4.0659,-4.0505,-4.0505,-4.0505,-4.0505,-4.0366,-4.0226,-4.0081,-3.9839,-3.9757,-3.9727,-3.9721,-3.9781,-3.9895,-3.9748,-3.9884,-4.0398,-4.0307,-4.0469,-4.102,-4.108,-4.1126,-4.1279,-4.1468,-4.1543,-4.1543,-4.1543,-4.1678,-4.1874,-4.1228,-4.1025,-4.1618,-4.1776,-4.2152,-4.3081,-4.3663,-4.4237,-4.4941,-4.5769,-4.6255,-4.6387,-4.7191,-4.8059,-4.8653,-4.9466,-5.0167,-5.0672,-5.087,-5.0777,-5.082,-5.0962,-5.1141,-5.1332,-5.1871,-5.2219,-5.2242,-5.2568,-5.2846,-5.2833,-5.2743,-5.2577,-5.2487,-5.1895,-5.1526,-5.1246,-5.0899,-5.0685,-5.0688,-5.0778,-5.1209,-5.1862,-5.2121,-5.2522,-5.3024,-5.3262,-5.3297,-5.35,-5.3553,-5.353,-3.9327,-3.8826,-3.8797,-3.8907,-3.9149,-4.0117,-4.0203,-3.9691,-3.9839,-3.9809,-3.951,-3.951,-3.942,-3.9516,-3.9718,-3.9854,-3.992,-4.0156,-4.0421,-4.0553,-4.0177,-4.0207,-4.0516,-4.0004,-3.9803,-4.0036,-4.0588,-4.0908,-4.1117,-4.1734,-4.2174,-4.2381,-4.2417,-4.2078,-4.1586,-4.1494,-4.1186,-4.0505,-4.0505,-4.0505,-4.0505,-4.0366,-4.0261,-4.0261,-4.0081,-4.0248,-4.0819,-4.0674,-4.0872,-4.1414,-4.1258,-4.128,-4.1528,-4.1558,-4.1625,-4.1866,-4.1903,-4.191,-4.194,-4.1947,-4.2008,-4.1947,-4.2008,-4.2281,-4.2864,-4.2826,-4.2758,-4.2917,-4.2917,-4.3433,-4.4595,-4.4868,-4.5232,-4.5839,-4.6712,-4.7201,-4.7384,-4.853,-4.957,-4.9822,-5.0472,-5.0991,-5.1347,-5.1452,-5.1421,-5.1472,-5.1876,-5.2199,-5.2305,-5.2785,-5.319,-5.3178,-5.3302,-5.3334,-5.329,-5.3334,-5.3157,-5.2935,-5.2532,-5.2048,-5.1665,-5.1229,-5.0846,-5.0999,-5.0854,-5.1042,-5.1699,-5.1845,-5.1704,-5.2873,-5.3069,-5.2943,-5.3326,-5.3658,-5.3658,-3.9283,-3.9126,-3.9017,-3.9162,-3.9571,-4.0353,-4.0372,-3.9905,-3.9975,-3.9945,-3.991,-4.0016,-3.9915,-3.9732,-4.0016,-4.037,-4.0766,-4.0979,-4.1275,-4.1578,-4.1035,-4.0811,-4.0783,-4.0177,-3.994,-4.0011,-4.0284,-4.0512,-4.0781,-4.1505,-4.213,-4.2571,-4.2602,-4.2448,-4.2171,-4.1801,-4.1648,-4.1704,-4.137,-4.134,-4.1612,-4.13,-4.1014,-4.0939,-4.1168,-4.1395,-4.1559,-4.1516,-4.16,-4.1842,-4.1798,-4.1979,-4.2448,-4.2448,-4.2698,-4.3107,-4.3282,-4.3358,-4.3358,-4.3471,-4.3516,-4.3547,-4.3547,-4.3822,-4.4465,-4.4527,-4.468,-4.4978,-4.4569,-4.4643,-4.5645,-4.6102,-4.6468,-4.6905,-4.7926,-4.8695,-4.8725,-4.9735,-5.0615,-5.1103,-5.1542,-5.2044,-5.2442,-5.2566,-5.2566,-5.2566,-5.2859,-5.3028,-5.3208,-5.3471,-5.364,-5.3801,-5.3844,-5.3714,-5.3509,-5.3421,-5.3377,-5.3321,-5.2802,-5.2215,-5.217,-5.1526,-5.113,-5.1256,-5.0905,-5.1035,-5.1816,-5.1739,-5.163,-5.2666,-5.3414,-5.3471,-5.3733,-5.371,-5.3658,-3.9801,-3.9911,-3.9838,-3.9811,-3.9864,-4.0535,-4.0552,-4.0112,-4.0117,-4.0208,-4.036,-4.0567,-4.0588,-4.0461,-4.0593,-4.104,-4.1623,-4.1792,-4.2124,-4.2438,-4.1734,-4.1326,-4.1273,-4.0477,-4.0117,-4.0182,-4.0548,-4.1021,-4.1469,-4.2068,-4.2663,-4.3094,-4.3156,-4.3033,-4.2817,-4.2355,-4.2294,-4.2509,-4.2109,-4.2109,-4.2479,-4.2294,-4.2012,-4.1745,-4.2144,-4.2408,-4.2443,-4.2399,-4.246,-4.2605,-4.2568,-4.2781,-4.3305,-4.3335,-4.3625,-4.4167,-4.4381,-4.4496,-4.4564,-4.4716,-4.4816,-4.4932,-4.4963,-4.5203,-4.575,-4.5865,-4.6172,-4.6687,-4.6293,-4.6274,-4.6609,-4.7252,-4.7681,-4.7998,-4.9239,-5.0013,-5.0086,-5.0812,-5.1604,-5.2125,-5.2504,-5.2977,-5.3427,-5.3533,-5.3502,-5.3545,-5.3565,-5.3671,-5.3801,-5.3844,-5.3931,-5.4103,-5.4103,-5.3974,-5.364,-5.364,-5.3714,-5.3584,-5.3069,-5.2532,-5.2577,-5.1803,-5.1229,-5.119,-5.1024,-5.1036,-5.1435,-5.1498,-5.1699,-5.2721,-5.3422,-5.3714,-5.3838,-5.3629,-5.3605,-4.1294,-4.1302,-4.1483,-4.0915,-4.0071,-4.0858,-4.0837,-4.0353,-4.0431,-4.0769,-4.1245,-4.1449,-4.1786,-4.2132,-4.1756,-4.192,-4.2473,-4.2571,-4.2836,-4.3111,-4.1979,-4.1673,-4.2126,-4.0903,-4.0427,-4.0712,-4.173,-4.2934,-4.411,-4.4295,-4.4486,-4.4486,-4.4394,-4.4178,-4.3624,-4.347,-4.3223,-4.2786,-4.2633,-4.2602,-4.2725,-4.3254,-4.3156,-4.2658,-4.2596,-4.2934,-4.3396,-4.3339,-4.3502,-4.4144,-4.396,-4.3982,-4.4236,-4.4205,-4.4396,-4.4799,-4.4836,-4.498,-4.5154,-4.5192,-4.5366,-4.5742,-4.5796,-4.6067,-4.6489,-4.6542,-4.688,-4.7527,-4.8009,-4.806,-4.7835,-4.8327,-4.8912,-4.9466,-5.0356,-5.0917,-5.0948,-5.1783,-5.2371,-5.2719,-5.3244,-5.3675,-5.3985,-5.406,-5.4017,-5.4017,-5.406,-5.406,-5.4017,-5.406,-5.4103,-5.4103,-5.4103,-5.4103,-5.406,-5.3974,-5.4017,-5.3919,-5.3427,-5.2805,-5.2382,-5.1987,-5.1586,-5.1319,-5.1421,-5.1404,-5.1225,-5.1381,-5.1765,-5.2457,-5.3091,-5.3466,-5.386,-5.3658,-5.364,-4.1489,-4.1224,-4.1684,-4.1225,-4.0314,-4.0929,-4.1189,-4.1111,-4.1181,-4.1621,-4.2212,-4.2268,-4.2638,-4.3328,-4.3148,-4.3112,-4.3254,-4.3254,-4.355,-4.4004,-4.3205,-4.2898,-4.299,-4.2191,-4.1792,-4.192,-4.2386,-4.3063,-4.387,-4.3963,-4.4209,-4.451,-4.461,-4.4486,-4.424,-4.3809,-4.3685,-4.3802,-4.3464,-4.3433,-4.3802,-4.4148,-4.4148,-4.3895,-4.3864,-4.3987,-4.424,-4.4165,-4.425,-4.4496,-4.4419,-4.4419,-4.4496,-4.461,-4.4723,-4.4874,-4.5017,-4.5316,-4.5765,-4.5828,-4.6064,-4.6493,-4.6547,-4.6748,-4.7105,-4.7281,-4.7711,-4.8696,-4.9127,-4.9323,-4.98,-4.9985,-5.0232,-5.0584,-5.1355,-5.1888,-5.2087,-5.2715,-5.3326,-5.3444,-5.3793,-5.4017,-5.406,-5.4103,-5.4103,-5.4103,-5.4103,-5.4103,-5.4103,-5.4103,-5.4146,-5.42,-5.4189,-5.4304,-5.4983,-5.441,-5.4092,-5.4088,-5.3834,-5.3837,-5.3585,-5.3222,-5.289,-5.2687,-5.2515,-5.2247,-5.2199,-5.2528,-5.2732,-5.2921,-5.3499,-5.3539,-5.386,-5.385,-5.3896,-4.1748,-4.1486,-4.1669,-4.1193,-4.0519,-4.1036,-4.1449,-4.1617,-4.1903,-4.2438,-4.2999,-4.305,-4.3494,-4.413,-4.4223,-4.4223,-4.4081,-4.4075,-4.4216,-4.4517,-4.3901,-4.3624,-4.3501,-4.291,-4.2602,-4.2633,-4.2848,-4.3248,-4.387,-4.3932,-4.4178,-4.461,-4.461,-4.461,-4.4517,-4.4148,-4.4178,-4.4418,-4.4178,-4.4178,-4.4579,-4.461,-4.461,-4.461,-4.461,-4.461,-4.461,-4.461,-4.461,-4.461,-4.461,-4.461,-4.4685,-4.4836,-4.4949,-4.5092,-4.546,-4.5816,-4.6329,-4.6579,-4.6934,-4.7285,-4.7339,-4.7601,-4.8153,-4.8266,-4.8881,-4.9755,-5.0321,-5.0758,-5.1227,-5.1635,-5.1783,-5.1647,-5.2286,-5.2821,-5.2895,-5.3475,-5.3813,-5.3856,-5.3985,-5.4103,-5.4157,-5.42,-5.4274,-5.4316,-5.4316,-5.4316,-5.4316,-5.4316,-5.4359,-5.4486,-5.4666,-5.4942,-5.5355,-5.5173,-5.5063,-5.5027,-5.4763,-5.476,-5.4708,-5.4405,-5.4209,-5.4036,-5.3718,-5.3398,-5.3324,-5.3653,-5.3823,-5.3943,-5.3811,-5.3794,-5.398,-5.4101,-5.4264,-4.2095,-4.2187,-4.1545,-4.1163,-4.0843,-4.1467,-4.1648,-4.1934,-4.2571,-4.3226,-4.371,-4.384,-4.426,-4.4794,-4.4825,-4.4955,-4.4999,-4.4893,-4.4737,-4.4586,-4.3994,-4.3685,-4.3655,-4.3094,-4.291,-4.2971,-4.3408,-4.4055,-4.4664,-4.4695,-4.4764,-4.4702,-4.4825,-4.4887,-4.4671,-4.4702,-4.4603,-4.4671,-4.4579,-4.4579,-4.461,-4.461,-4.461,-4.461,-4.461,-4.461,-4.461,-4.461,-4.461,-4.461,-4.461,-4.4685,-4.4874,-4.4949,-4.5129,-4.5546,-4.6127,-4.6585,-4.6886,-4.7524,-4.7963,-4.8372,-4.8355,-4.8746,-4.948,-4.9674,-4.9939,-5.0734,-5.142,-5.1952,-5.2194,-5.2922,-5.322,-5.2641,-5.3189,-5.3632,-5.3738,-5.3942,-5.4103,-5.4071,-5.4146,-5.42,-5.4327,-5.4412,-5.4528,-5.4687,-5.4729,-5.4729,-5.4687,-5.4687,-5.4771,-5.4909,-5.5176,-5.5506,-5.5771,-5.6002,-5.6144,-5.6233,-5.5812,-5.5604,-5.5576,-5.5302,-5.5173,-5.4935,-5.4437,-5.4067,-5.3832,-5.4102,-5.4251,-5.4311,-5.422,-5.4294,-5.4547,-5.4814,-5.4778,-4.3567,-4.3211,-4.3106,-4.2716,-4.2231,-4.2559,-4.2936,-4.3371,-4.3692,-4.42,-4.4798,-4.4818,-4.498,-4.5247,-4.5315,-4.5309,-4.5204,-4.5241,-4.5129,-4.4836,-4.4582,-4.4414,-4.4271,-4.4048,-4.4202,-4.4695,-4.5341,-4.5741,-4.5895,-4.5926,-4.5988,-4.5957,-4.5957,-4.5957,-4.5865,-4.5526,-4.528,-4.5218,-4.4856,-4.461,-4.461,-4.461,-4.461,-4.461,-4.461,-4.461,-4.461,-4.461,-4.461,-4.461,-4.4723,-4.4911,-4.5092,-4.5241,-4.5571,-4.6159,-4.6496,-4.7233,-4.813,-4.8478,-4.9024,-4.9627,-4.9747,-5.0061,-5.0714,-5.07,-5.0979,-5.1728,-5.2125,-5.2461,-5.3133,-5.3545,-5.362,-5.3389,-5.3719,-5.3974,-5.4017,-5.4157,-5.4285,-5.4327,-5.4486,-5.4571,-5.4655,-5.4655,-5.4697,-5.4813,-5.4813,-5.4813,-5.4813,-5.4854,-5.4896,-5.5012,-5.5505,-5.6125,-5.6475,-5.6854,-5.7121,-5.7146,-5.6798,-5.6521,-5.6447,-5.6248,-5.6107,-5.5678,-5.5177,-5.4816,-5.455,-5.4521,-5.467,-5.5039,-5.5224,-5.5353,-5.5535,-5.5589,-5.5606,-4.3852,-4.3704,-4.364,-4.3366,-4.2988,-4.3354,-4.3769,-4.4242,-4.4559,-4.4977,-4.5321,-4.5315,-4.5383,-4.5525,-4.5751,-4.5839,-4.5833,-4.6165,-4.621,-4.5852,-4.5459,-4.5446,-4.5549,-4.5495,-4.5603,-4.5926,-4.6388,-4.6603,-4.6603,-4.6603,-4.6603,-4.6603,-4.6603,-4.6573,-4.6573,-4.6203,-4.5957,-4.5895,-4.5557,-4.5218,-4.5003,-4.4972,-4.4856,-4.4671,-4.461,-4.4733,-4.4949,-4.4972,-4.4941,-4.5041,-4.5387,-4.5732,-4.6059,-4.6241,-4.651,-4.6969,-4.7423,-4.8004,-4.8825,-4.9284,-4.9764,-5.0442,-5.0622,-5.0933,-5.1452,-5.1511,-5.1919,-5.2598,-5.2871,-5.3157,-5.3652,-5.3876,-5.3962,-5.4017,-5.4028,-5.4146,-5.42,-5.4412,-5.4539,-5.4571,-5.4655,-5.4813,-5.4896,-5.4938,-5.4906,-5.4989,-5.5031,-5.5021,-5.5031,-5.5031,-5.5178,-5.5541,-5.625,-5.6788,-5.7245,-5.7675,-5.8101,-5.7983,-5.7769,-5.7582,-5.7459,-5.7168,-5.6948,-5.6217,-5.5633,-5.5288,-5.502,-5.499,-5.5089,-5.5616,-5.6072,-5.6095,-5.6094,-5.6379,-5.6485,-4.3417,-4.3888,-4.3546,-4.3354,-4.3309,-4.4018,-4.4341,-4.4466,-4.5112,-4.5395,-4.5315,-4.5551,-4.5625,-4.5751,-4.6322,-4.668,-4.6924,-4.7397,-4.7637,-4.7352,-4.6854,-4.6677,-4.6905,-4.6874,-4.6849,-4.6784,-4.6868,-4.6899,-4.7062,-4.7022,-4.6766,-4.692,-4.6951,-4.6757,-4.692,-4.6766,-4.6744,-4.6753,-4.6581,-4.6212,-4.5719,-4.5649,-4.5403,-4.4849,-4.4849,-4.5095,-4.5557,-4.5741,-4.578,-4.5819,-4.6416,-4.6936,-4.7432,-4.761,-4.7592,-4.7902,-4.8541,-4.8857,-4.9229,-4.9962,-5.0577,-5.0725,-5.1173,-5.1577,-5.2156,-5.2442,-5.2746,-5.3321,-5.3577,-5.377,-5.3844,-5.3974,-5.4189,-5.437,-5.4316,-5.4316,-5.4412,-5.4655,-5.4781,-5.4813,-5.4813,-5.4864,-5.5113,-5.5113,-5.5196,-5.5287,-5.5328,-5.5287,-5.5287,-5.5384,-5.5757,-5.6275,-5.6773,-5.7238,-5.7588,-5.8293,-5.8613,-5.8237,-5.8131,-5.8145,-5.8099,-5.7808,-5.7495,-5.6796,-5.6164,-5.58,-5.5451,-5.5381,-5.5619,-5.6145,-5.6392,-5.646,-5.672,-5.7102,-5.7178,-4.4545,-4.4849,-4.4914,-4.4857,-4.4888,-4.5222,-4.5394,-4.5425,-4.5619,-4.5709,-4.5772,-4.6218,-4.6439,-4.6539,-4.7202,-4.7587,-4.7688,-4.7846,-4.8225,-4.8464,-4.8362,-4.7784,-4.7559,-4.7754,-4.7893,-4.7915,-4.8217,-4.8609,-4.8568,-4.8314,-4.8264,-4.8357,-4.8111,-4.8173,-4.8285,-4.7831,-4.7725,-4.772,-4.7167,-4.681,-4.6585,-4.6405,-4.6265,-4.6111,-4.6058,-4.615,-4.6388,-4.6819,-4.6978,-4.6788,-4.699,-4.7348,-4.782,-4.7889,-4.8148,-4.8667,-4.8857,-4.9316,-5.0048,-5.0623,-5.1212,-5.1989,-5.2155,-5.2679,-5.3498,-5.3463,-5.3601,-5.3888,-5.3974,-5.4017,-5.406,-5.4231,-5.4412,-5.4613,-5.4613,-5.4613,-5.4697,-5.4864,-5.5031,-5.5031,-5.5155,-5.5278,-5.5287,-5.5328,-5.5369,-5.5409,-5.545,-5.5409,-5.545,-5.5612,-5.5904,-5.6446,-5.6977,-5.7474,-5.8008,-5.8715,-5.8953,-5.8441,-5.8303,-5.8395,-5.8272,-5.815,-5.7778,-5.7275,-5.6748,-5.636,-5.5849,-5.5501,-5.6041,-5.6517,-5.6795,-5.687,-5.747,-5.7907,-5.7739,-4.5167,-4.5204,-4.5499,-4.5573,-4.5499,-4.5714,-4.5823,-4.5886,-4.6108,-4.6234,-4.6392,-4.6961,-4.7245,-4.734,-4.7972,-4.8288,-4.8351,-4.8604,-4.8983,-4.9236,-4.9299,-4.8914,-4.849,-4.8724,-4.8778,-4.8729,-4.9144,-4.9228,-4.9259,-4.9169,-4.9128,-4.9056,-4.8965,-4.9006,-4.8994,-4.8695,-4.8488,-4.8466,-4.7942,-4.7543,-4.7344,-4.7234,-4.7057,-4.6933,-4.6911,-4.6933,-4.7225,-4.7802,-4.8026,-4.7808,-4.7918,-4.8302,-4.8653,-4.8762,-4.9078,-4.9679,-4.9694,-5.0119,-5.0992,-5.1464,-5.1916,-5.2596,-5.2941,-5.3361,-5.3836,-5.3919,-5.3974,-5.406,-5.4157,-5.42,-5.4285,-5.4497,-5.4739,-5.4906,-5.4989,-5.5021,-5.4906,-5.5113,-5.5237,-5.5278,-5.5442,-5.5564,-5.5531,-5.5612,-5.5653,-5.5693,-5.5733,-5.5653,-5.5604,-5.5832,-5.6204,-5.6918,-5.7482,-5.8044,-5.8417,-5.9029,-5.9209,-5.8746,-5.8504,-5.8564,-5.8459,-5.8321,-5.7965,-5.7637,-5.7227,-5.6827,-5.6256,-5.5912,-5.6193,-5.6612,-5.6929,-5.746,-5.8083,-5.8224,-5.8115,-4.5389,-4.5272,-4.5682,-4.5719,-4.5604,-4.585,-4.6018,-4.6076,-4.6645,-4.6929,-4.7087,-4.7688,-4.7972,-4.8035,-4.8667,-4.8983,-4.9015,-4.9489,-4.9742,-4.9837,-4.9797,-4.9623,-4.9433,-4.9464,-4.9447,-4.9358,-4.934,-4.9381,-4.9381,-4.9372,-4.9331,-4.9331,-4.9291,-4.9331,-4.9291,-4.9097,-4.9078,-4.8984,-4.8738,-4.8419,-4.8199,-4.8106,-4.7929,-4.7746,-4.7692,-4.7831,-4.8146,-4.8633,-4.8879,-4.8613,-4.9081,-4.9407,-4.9821,-4.9995,-5.0302,-5.0767,-5.0803,-5.1077,-5.1883,-5.2197,-5.2551,-5.2941,-5.3487,-5.3833,-5.3919,-5.4017,-5.4146,-5.4157,-5.4327,-5.4454,-5.4539,-5.4864,-5.5031,-5.5113,-5.5319,-5.5319,-5.5278,-5.5328,-5.5409,-5.545,-5.5685,-5.5839,-5.5846,-5.5966,-5.6086,-5.5959,-5.6057,-5.6246,-5.6401,-5.6686,-5.7116,-5.7706,-5.8237,-5.8766,-5.9012,-5.9343,-5.9241,-5.9017,-5.8746,-5.8655,-5.8473,-5.8321,-5.8089,-5.7778,-5.7495,-5.7112,-5.6617,-5.6464,-5.6547,-5.6865,-5.7393,-5.7978,-5.856,-5.8375,-5.8213,-4.5641,-4.5494,-4.6156,-4.6156,-4.5923,-4.6653,-4.6839,-4.6645,-4.734,-4.7656,-4.7814,-4.8383,-4.8667,-4.8699,-4.9331,-4.971,-4.9647,-4.9837,-4.99,-4.99,-4.99,-4.986,-4.9821,-4.9892,-4.9852,-4.9812,-4.9773,-4.9773,-4.9773,-4.9701,-4.9573,-4.9541,-4.9461,-4.9412,-4.9461,-4.9372,-4.9331,-4.9412,-4.9219,-4.9075,-4.8982,-4.8839,-4.8786,-4.8769,-4.8769,-4.8925,-4.897,-4.9157,-4.9518,-4.9859,-4.9725,-4.9837,-5.0538,-5.0592,-5.0825,-5.136,-5.1538,-5.1696,-5.2249,-5.2764,-5.3132,-5.3518,-5.3805,-5.406,-5.406,-5.42,-5.4327,-5.437,-5.4571,-5.4739,-5.4906,-5.5031,-5.5155,-5.5319,-5.5369,-5.5483,-5.5604,-5.5685,-5.5685,-5.5766,-5.5886,-5.6046,-5.6046,-5.6151,-5.6191,-5.6224,-5.6552,-5.6872,-5.7192,-5.7552,-5.7976,-5.8418,-5.8873,-5.9275,-5.9393,-5.9552,-5.9419,-5.9241,-5.9017,-5.8746,-5.8564,-5.8413,-5.8228,-5.7965,-5.7731,-5.7335,-5.6959,-5.6846,-5.69,-5.7342,-5.785,-5.8422,-5.876,-5.8578,-5.828,-4.5646,-4.5651,-4.6048,-4.6379,-4.6589,-4.6971,-4.7178,-4.7441,-4.8067,-4.8351,-4.8509,-4.9078,-4.9363,-4.9394,-4.9742,-4.99,-4.9939,-5.0097,-5.0058,-5.0058,-5.0214,-5.037,-5.0253,-5.0331,-5.0409,-5.0246,-5.0175,-5.0253,-5.037,-5.0331,-5.0221,-5.0018,-4.99,-4.9821,-4.9701,-4.9564,-4.9493,-4.9533,-4.9381,-4.9372,-4.9412,-4.9331,-4.9372,-4.9533,-4.9573,-4.9698,-4.9922,-4.9799,-5.0247,-5.0632,-5.0528,-5.0548,-5.114,-5.1193,-5.1497,-5.2031,-5.2188,-5.2502,-5.3047,-5.3341,-5.3584,-5.3899,-5.406,-5.4146,-5.42,-5.437,-5.4454,-5.4613,-5.4781,-5.4989,-5.5237,-5.5237,-5.5319,-5.5369,-5.5491,-5.5645,-5.5766,-5.5766,-5.5846,-5.5927,-5.6126,-5.6205,-5.6244,-5.6514,-5.6856,-5.71,-5.7694,-5.8016,-5.8092,-5.8372,-5.8591,-5.8988,-5.9455,-5.9728,-5.9816,-5.9804,-5.964,-5.9464,-5.9197,-5.8927,-5.8655,-5.8518,-5.8413,-5.815,-5.7918,-5.7746,-5.7459,-5.7359,-5.7434,-5.7943,-5.8501,-5.8945,-5.9213,-5.9236,-5.8714,-4.5641,-4.585,-4.5986,-4.6616,-4.7371,-4.7416,-4.7622,-4.8023,-4.8853,-4.926,-4.9208,-4.9772,-5.0119,-5.0097,-5.0136,-5.0097,-5.0175,-5.0409,-5.0448,-5.0331,-5.0723,-5.089,-5.091,-5.1089,-5.1301,-5.0974,-5.0737,-5.0794,-5.0951,-5.1097,-5.0813,-5.0685,-5.0678,-5.0628,-5.0279,-5.0048,-5.0084,-5.0106,-5.0025,-4.9953,-4.9981,-4.9918,-4.9841,-4.9733,-4.9993,-5.0165,-5.0483,-5.0579,-5.0871,-5.1454,-5.1517,-5.1695,-5.1915,-5.1937,-5.2188,-5.2816,-5.2879,-5.3173,-5.3604,-5.3868,-5.3899,-5.4146,-5.4146,-5.4274,-5.4412,-5.4539,-5.4665,-5.4822,-5.5063,-5.5237,-5.5369,-5.545,-5.545,-5.5491,-5.5685,-5.5912,-5.6017,-5.6017,-5.6006,-5.6158,-5.6553,-5.6803,-5.6981,-5.7186,-5.7595,-5.8038,-5.8668,-5.9058,-5.9094,-5.9194,-5.9413,-5.9507,-5.9867,-5.9945,-6.0001,-6.0066,-5.9903,-5.9596,-5.9375,-5.9152,-5.8837,-5.8746,-5.8642,-5.8367,-5.8136,-5.7965,-5.7902,-5.7859,-5.8122,-5.8639,-5.9092,-5.9574,-5.9817,-5.9975,-5.9251,-4.5961,-4.6428,-4.6939,-4.7389,-4.7977,-4.9005,-4.901,-4.8664,-5.001,-5.036,-5.0037,-5.0585,-5.087,-5.0838,-5.0876,-5.0876,-5.0832,-5.0946,-5.0978,-5.0934,-5.1232,-5.1426,-5.1938,-5.2118,-5.2492,-5.2699,-5.2026,-5.1329,-5.1302,-5.1097,-5.1544,-5.1481,-5.1428,-5.1447,-5.1507,-5.1433,-5.1161,-5.1099,-5.1089,-5.1089,-5.1067,-5.0753,-5.0313,-5.0048,-5.0322,-5.0627,-5.0806,-5.1236,-5.1759,-5.2397,-5.2459,-5.2804,-5.3067,-5.2816,-5.2941,-5.335,-5.355,-5.3687,-5.3899,-5.4017,-5.4114,-5.4285,-5.437,-5.4486,-5.4697,-5.4864,-5.4948,-5.5072,-5.5237,-5.5369,-5.5409,-5.5604,-5.5758,-5.5766,-5.6025,-5.6414,-5.6901,-5.6908,-5.6547,-5.6725,-5.7146,-5.7562,-5.7694,-5.7932,-5.833,-5.88,-5.9396,-5.9728,-5.9811,-6.001,-6.0229,-6.0266,-6.0279,-6.0216,-6.0109,-6.0195,-6.012,-5.9804,-5.9508,-5.9419,-5.9197,-5.9017,-5.8869,-5.855,-5.8338,-5.8231,-5.8232,-5.8242,-5.8625,-5.8987,-5.9606,-6.0276,-6.0434,-6.0507,-5.9787,-4.6296,-4.6723,-4.74,-4.8196,-4.9026,-4.9529,-4.9834,-4.9936,-5.0698,-5.094,-5.0811,-5.0973,-5.1102,-5.1102,-5.1102,-5.1102,-5.1172,-5.1397,-5.1517,-5.1669,-5.2095,-5.2567,-5.3074,-5.3253,-5.3677,-5.3856,-5.325,-5.2843,-5.2843,-5.2913,-5.278,-5.2734,-5.2598,-5.2436,-5.229,-5.1995,-5.1925,-5.1883,-5.1883,-5.1852,-5.1852,-5.1505,-5.1127,-5.1023,-5.1036,-5.1381,-5.1863,-5.1873,-5.2468,-5.3087,-5.3255,-5.3475,-5.3613,-5.3667,-5.351,-5.3813,-5.3919,-5.4017,-5.4103,-5.42,-5.437,-5.4571,-5.4613,-5.4739,-5.4906,-5.5031,-5.5155,-5.5246,-5.5287,-5.545,-5.5604,-5.5758,-5.6042,-5.6457,-5.6683,-5.7204,-5.7818,-5.8071,-5.7945,-5.7615,-5.7727,-5.8032,-5.8469,-5.8734,-5.9098,-5.9595,-6.0125,-6.0357,-6.049,-6.0555,-6.0708,-6.0591,-6.0463,-6.0335,-6.0239,-6.0239,-6.0163,-5.9892,-5.9673,-5.9552,-5.9419,-5.9197,-5.8927,-5.8564,-5.8462,-5.8371,-5.8531,-5.856,-5.8979,-5.9474,-6.0235,-6.0908,-6.1083,-6.0932,-6.0341,-4.6441,-4.7241,-4.7737,-4.8882,-5.0117,-5.007,-5.0338,-5.095,-5.1262,-5.1266,-5.1132,-5.1299,-5.1397,-5.1397,-5.1397,-5.1429,-5.1559,-5.2028,-5.2342,-5.2828,-5.3264,-5.3808,-5.426,-5.4533,-5.4783,-5.5043,-5.4982,-5.4792,-5.425,-5.4217,-5.4265,-5.4049,-5.3734,-5.3477,-5.3157,-5.2981,-5.2552,-5.2428,-5.2428,-5.2396,-5.227,-5.2207,-5.2144,-5.2039,-5.1894,-5.2188,-5.266,-5.2719,-5.2989,-5.3526,-5.377,-5.3844,-5.3962,-5.406,-5.4103,-5.4017,-5.4103,-5.4274,-5.4412,-5.4454,-5.4613,-5.4822,-5.4854,-5.4948,-5.5113,-5.5196,-5.5237,-5.5369,-5.545,-5.5564,-5.5758,-5.6009,-5.6497,-5.7051,-5.754,-5.8063,-5.8698,-5.9109,-5.929,-5.8925,-5.8535,-5.8634,-5.9098,-5.9297,-5.9628,-6.0092,-6.0655,-6.0721,-6.0779,-6.0679,-6.0708,-6.0591,-6.0506,-6.0463,-6.0368,-6.0282,-6.0076,-5.9804,-5.9673,-5.9628,-5.9464,-5.9331,-5.9049,-5.8874,-5.855,-5.8493,-5.8687,-5.905,-5.9521,-6.0146,-6.0989,-6.154,-6.1684,-6.1665,-6.127,-4.6576,-4.8464,-4.8227,-4.9251,-5.0876,-5.1271,-5.1161,-5.0939,-5.1786,-5.1869,-5.1399,-5.1933,-5.2194,-5.2194,-5.2161,-5.2524,-5.2924,-5.3089,-5.3453,-5.4076,-5.4357,-5.4759,-5.5345,-5.5412,-5.5861,-5.6094,-5.6288,-5.5653,-5.5024,-5.4759,-5.4769,-5.482,-5.4829,-5.467,-5.442,-5.4214,-5.4274,-5.3904,-5.3829,-5.3545,-5.3102,-5.3049,-5.2691,-5.2376,-5.2313,-5.2562,-5.2953,-5.3083,-5.3415,-5.377,-5.3974,-5.4114,-5.4285,-5.437,-5.4528,-5.4528,-5.4528,-5.4486,-5.4697,-5.4739,-5.4822,-5.5031,-5.5072,-5.5196,-5.5278,-5.5425,-5.5457,-5.5369,-5.5702,-5.5994,-5.6278,-5.6781,-5.7237,-5.7752,-5.8302,-5.9018,-5.9654,-5.9745,-5.9993,-6.0158,-5.9694,-5.9661,-5.9893,-6.0026,-6.0191,-6.0655,-6.1053,-6.1086,-6.1035,-6.0835,-6.0708,-6.0633,-6.0463,-6.041,-6.0282,-6.0239,-6.0022,-5.976,-5.9846,-5.9834,-5.9843,-5.9819,-5.9499,-5.926,-5.8969,-5.9058,-5.9506,-5.9918,-6.0154,-6.0658,-6.1379,-6.1869,-6.2221,-6.2153,-6.2003,-4.7796,-4.867,-4.8666,-4.9729,-5.134,-5.1263,-5.1382,-5.1762,-5.2137,-5.2243,-5.2011,-5.2243,-5.2409,-5.2442,-5.2409,-5.2843,-5.3446,-5.3612,-5.4316,-5.5255,-5.5488,-5.5821,-5.6392,-5.6558,-5.6825,-5.6816,-5.6877,-5.6606,-5.597,-5.5757,-5.587,-5.5847,-5.5712,-5.5574,-5.5409,-5.5246,-5.5081,-5.4883,-5.48,-5.4704,-5.4438,-5.4259,-5.4007,-5.3563,-5.3301,-5.3267,-5.3436,-5.3377,-5.3683,-5.4017,-5.4242,-5.437,-5.4571,-5.4655,-5.4739,-5.4906,-5.4864,-5.4864,-5.4948,-5.498,-5.5072,-5.5196,-5.5278,-5.5319,-5.5466,-5.5798,-5.6107,-5.6262,-5.6735,-5.7029,-5.7265,-5.7837,-5.8353,-5.8837,-5.9183,-5.9753,-6.0291,-6.0357,-6.0523,-6.0721,-6.0854,-6.0622,-6.0456,-6.0556,-6.0589,-6.0821,-6.1086,-6.1044,-6.1002,-6.0877,-6.0717,-6.0633,-6.0453,-6.0282,-6.0152,-6.0066,-5.9968,-5.9846,-6.0332,-6.0364,-6.0449,-6.0392,-6.0213,-6.0348,-6.0468,-6.0544,-6.0598,-6.0456,-6.0534,-6.1055,-6.1719,-6.2067,-6.2365,-6.2365,-6.2135,-4.9235,-4.9329,-4.9397,-5.0399,-5.1842,-5.1316,-5.1595,-5.234,-5.2409,-5.2409,-5.2409,-5.2442,-5.2509,-5.2641,-5.281,-5.3382,-5.4253,-5.4292,-5.5132,-5.6007,-5.6516,-5.675,-5.6943,-5.7181,-5.7218,-5.7252,-5.7025,-5.6849,-5.6768,-5.6691,-5.6547,-5.668,-5.6309,-5.6172,-5.5974,-5.5766,-5.5491,-5.5287,-5.5287,-5.5295,-5.5222,-5.509,-5.4925,-5.4675,-5.4285,-5.3985,-5.4146,-5.3899,-5.4028,-5.4327,-5.4497,-5.4613,-5.4822,-5.4864,-5.4948,-5.5113,-5.5155,-5.5122,-5.5155,-5.5196,-5.5278,-5.5392,-5.5709,-5.588,-5.5945,-5.6473,-5.6978,-5.7216,-5.7634,-5.8125,-5.8527,-5.8716,-5.9201,-5.9646,-6.0092,-6.0589,-6.092,-6.0821,-6.0788,-6.0887,-6.0986,-6.1053,-6.0953,-6.102,-6.1053,-6.1086,-6.1077,-6.1077,-6.0961,-6.0802,-6.076,-6.0675,-6.0666,-6.0453,-6.0239,-6.0066,-5.9924,-6.0073,-6.0558,-6.0915,-6.1077,-6.1226,-6.1187,-6.1432,-6.163,-6.1434,-6.117,-6.0947,-6.0867,-6.1546,-6.2098,-6.2207,-6.2396,-6.2396,-6.2315,-5.0481,-5.1076,-5.0722,-5.1221,-5.2305,-5.234,-5.2272,-5.2409,-5.2409,-5.2442,-5.2509,-5.2509,-5.294,-5.3238,-5.3612,-5.4319,-5.5688,-5.594,-5.6345,-5.6775,-5.711,-5.7151,-5.7289,-5.7289,-5.7289,-5.7139,-5.7101,-5.6987,-5.6796,-5.6872,-5.6757,-5.668,-5.6603,-5.6402,-5.6244,-5.6086,-5.5886,-5.5653,-5.5612,-5.5572,-5.5491,-5.5328,-5.5196,-5.4998,-5.4665,-5.4454,-5.4697,-5.437,-5.437,-5.4697,-5.4781,-5.4906,-5.5113,-5.5155,-5.5237,-5.536,-5.536,-5.5328,-5.5401,-5.536,-5.5401,-5.5645,-5.6092,-5.6637,-5.6808,-5.7666,-5.8109,-5.8215,-5.8593,-5.8758,-5.9012,-5.93,-5.9911,-6.0183,-6.0556,-6.0788,-6.1053,-6.1053,-6.102,-6.1086,-6.1119,-6.1152,-6.1218,-6.1218,-6.1119,-6.1119,-6.1002,-6.0961,-6.0919,-6.0835,-6.076,-6.076,-6.0877,-6.0708,-6.041,-6.0337,-6.0337,-6.0583,-6.1012,-6.14,-6.1692,-6.1873,-6.2215,-6.2137,-6.2192,-6.1994,-6.1838,-6.179,-6.1821,-6.2116,-6.2365,-6.2396,-6.2396,-6.2396,-6.2396,-5.1711,-5.1943,-5.1801,-5.2002,-5.234,-5.1945,-5.2011,-5.2376,-5.2409,-5.2638,-5.3072,-5.3576,-5.3941,-5.4103,-5.4349,-5.4995,-5.6007,-5.6292,-5.6835,-5.7349,-5.7625,-5.7625,-5.7588,-5.7588,-5.7625,-5.7547,-5.7473,-5.7364,-5.7289,-5.7063,-5.6987,-5.6911,-5.679,-5.6641,-5.6519,-5.6408,-5.629,-5.6251,-5.6172,-5.6172,-5.6172,-5.5974,-5.5774,-5.545,-5.504,-5.4822,-5.4739,-5.4497,-5.4697,-5.4906,-5.5113,-5.5278,-5.5442,-5.5483,-5.5564,-5.5604,-5.5523,-5.5523,-5.5604,-5.5596,-5.5645,-5.6295,-5.6743,-5.7151,-5.7699,-5.851,-5.8963,-5.921,-5.9556,-5.9738,-6.02,-6.0481,-6.0721,-6.0788,-6.092,-6.1119,-6.1152,-6.1185,-6.1119,-6.1152,-6.1218,-6.1285,-6.1351,-6.1384,-6.1218,-6.1077,-6.0961,-6.091,-6.1042,-6.0924,-6.0957,-6.0859,-6.0901,-6.0797,-6.0498,-6.0587,-6.0782,-6.1158,-6.1498,-6.1951,-6.2404,-6.3052,-6.3297,-6.3042,-6.2819,-6.2777,-6.2748,-6.2684,-6.265,-6.2548,-6.2464,-6.2396,-6.2396,-6.2396,-6.2396,-5.2542,-5.2672,-5.2741,-5.2705,-5.2605,-5.2213,-5.2447,-5.3045,-5.3249,-5.3415,-5.3947,-5.4625,-5.4955,-5.5052,-5.5229,-5.5813,-5.653,-5.6915,-5.7294,-5.7637,-5.7808,-5.7845,-5.7913,-5.8045,-5.8211,-5.8109,-5.8036,-5.7921,-5.7804,-5.7423,-5.721,-5.7092,-5.7033,-5.6984,-5.668,-5.668,-5.6713,-5.668,-5.668,-5.668,-5.6641,-5.6447,-5.6251,-5.5894,-5.5572,-5.5401,-5.5278,-5.5164,-5.5205,-5.5401,-5.5564,-5.5685,-5.5806,-5.5886,-5.5886,-5.5806,-5.5766,-5.5726,-5.5766,-5.5831,-5.6051,-5.6727,-5.7307,-5.7888,-5.8593,-5.9365,-5.996,-6.0109,-6.058,-6.0919,-6.1119,-6.102,-6.0986,-6.0986,-6.1384,-6.1583,-6.1384,-6.1318,-6.1218,-6.1185,-6.1384,-6.1682,-6.1848,-6.1947,-6.1947,-6.1748,-6.1574,-6.1697,-6.1995,-6.1745,-6.133,-6.1155,-6.0948,-6.0768,-6.0533,-6.0925,-6.1294,-6.1893,-6.2275,-6.2728,-6.3246,-6.3797,-6.4024,-6.3653,-6.3479,-6.3595,-6.3404,-6.2988,-6.281,-6.271,-6.2562,-6.2446,-6.2396,-6.2396,-6.2396,-5.2771,-5.3367,-5.34,-5.34,-5.3467,-5.3584,-5.4023,-5.4489,-5.4837,-5.4943,-5.5007,-5.5211,-5.5612,-5.6047,-5.6258,-5.6704,-5.7251,-5.76,-5.7741,-5.7701,-5.8048,-5.7873,-5.8109,-5.8447,-5.8923,-5.8736,-5.8601,-5.8459,-5.8437,-5.7754,-5.7415,-5.7501,-5.767,-5.7508,-5.6812,-5.6713,-5.6713,-5.6746,-5.6846,-5.6812,-5.6774,-5.6624,-5.6369,-5.6211,-5.6086,-5.5927,-5.5806,-5.5766,-5.5806,-5.5886,-5.5966,-5.6046,-5.6086,-5.6086,-5.6086,-5.6046,-5.6046,-5.6046,-5.6151,-5.6119,-5.6643,-5.7331,-5.797,-5.8823,-5.9639,-6.0349,-6.0837,-6.0738,-6.0969,-6.1077,-6.1119,-6.1119,-6.1119,-6.1384,-6.1781,-6.2089,-6.1848,-6.1848,-6.1881,-6.1848,-6.2013,-6.2255,-6.2487,-6.261,-6.2676,-6.2543,-6.2245,-6.2378,-6.2742,-6.2395,-6.1784,-6.1696,-6.1455,-6.1305,-6.1251,-6.1437,-6.1839,-6.2458,-6.2955,-6.3311,-6.357,-6.3894,-6.4024,-6.4024,-6.3929,-6.3755,-6.3469,-6.3148,-6.2905,-6.2661,-6.2562,-6.2495,-6.2446,-6.2446,-6.2495,-5.3202,-5.3467,-5.393,-5.439,-5.4759,-5.4512,-5.4589,-5.4892,-5.5582,-5.5926,-5.5987,-5.6432,-5.6731,-5.6999,-5.711,-5.7355,-5.7594,-5.7808,-5.7808,-5.7876,-5.8284,-5.8555,-5.8788,-5.9227,-5.9704,-5.9498,-5.9291,-5.9254,-5.9519,-5.8547,-5.8461,-5.8652,-5.854,-5.8409,-5.8237,-5.8138,-5.8171,-5.8071,-5.7773,-5.7409,-5.7342,-5.6867,-5.6558,-5.6441,-5.6323,-5.6284,-5.6165,-5.6165,-5.6165,-5.6165,-5.6244,-5.6284,-5.6284,-5.6284,-5.6205,-5.6119,-5.6039,-5.6228,-5.6814,-5.7402,-5.791,-5.8256,-5.8758,-5.9647,-6.0531,-6.0846,-6.1086,-6.1152,-6.1218,-6.1185,-6.1119,-6.1152,-6.1251,-6.1781,-6.2221,-6.252,-6.251,-6.2742,-6.2842,-6.2808,-6.2917,-6.2984,-6.3107,-6.3504,-6.3603,-6.3494,-6.3229,-6.3073,-6.3272,-6.2738,-6.2135,-6.2267,-6.2202,-6.2026,-6.197,-6.2133,-6.2338,-6.2834,-6.3311,-6.3732,-6.3959,-6.4024,-6.4024,-6.4024,-6.3929,-6.385,-6.3469,-6.3083,-6.2808,-6.2612,-6.2612,-6.2612,-6.2612,-6.2661,-6.271,-5.3695,-5.4229,-5.4692,-5.5118,-5.5521,-5.5351,-5.5436,-5.592,-5.6679,-5.6917,-5.6945,-5.7459,-5.7591,-5.7554,-5.7625,-5.7698,-5.7735,-5.7808,-5.8186,-5.8287,-5.8761,-5.9025,-5.9426,-6.0076,-6.0376,-6.0275,-6.0144,-6.011,-6.0376,-5.9515,-5.9353,-5.951,-5.9538,-5.9544,-5.9437,-5.9264,-5.8601,-5.8303,-5.7839,-5.7541,-5.7276,-5.6945,-5.6641,-5.6525,-5.6486,-5.648,-5.6441,-5.6362,-5.6395,-5.6435,-5.6435,-5.6441,-5.6402,-5.6356,-5.6376,-5.6348,-5.6774,-5.7069,-5.7796,-5.8591,-5.8921,-5.8881,-5.9466,-6.0192,-6.0879,-6.1086,-6.1318,-6.1417,-6.1417,-6.1649,-6.1748,-6.1715,-6.198,-6.2553,-6.2884,-6.3173,-6.3183,-6.3382,-6.3504,-6.3504,-6.3637,-6.3703,-6.3902,-6.4299,-6.4597,-6.4454,-6.42,-6.4057,-6.3825,-6.3342,-6.2888,-6.2945,-6.2891,-6.2659,-6.2611,-6.2815,-6.3036,-6.326,-6.3667,-6.4088,-6.4024,-6.4024,-6.4024,-6.3976,-6.3929,-6.3755,-6.3373,-6.3034,-6.2856,-6.2808,-6.2856,-6.2856,-6.2808,-6.2856,-6.2954,-5.4328,-5.5521,-5.5615,-5.5653,-5.5691,-5.6066,-5.6804,-5.7777,-5.7811,-5.7811,-5.7845,-5.7775,-5.7808,-5.7845,-5.7845,-5.7881,-5.7946,-5.7983,-5.8389,-5.8859,-5.9265,-5.9524,-6.0059,-6.0738,-6.1042,-6.1071,-6.1013,-6.0892,-6.1158,-6.0454,-6.0214,-6.0271,-6.027,-6.0414,-6.0299,-5.986,-5.9098,-5.8833,-5.8436,-5.8144,-5.7852,-5.7288,-5.7122,-5.7089,-5.7083,-5.7122,-5.7089,-5.705,-5.705,-5.7017,-5.6834,-5.6651,-5.6501,-5.631,-5.6657,-5.7215,-5.8067,-5.8437,-5.888,-5.9712,-5.9969,-5.9935,-5.9961,-6.0481,-6.0854,-6.1152,-6.1384,-6.1748,-6.1989,-6.2553,-6.2951,-6.2941,-6.304,-6.3438,-6.3802,-6.3868,-6.3703,-6.3802,-6.3935,-6.4067,-6.4266,-6.4465,-6.4829,-6.5194,-6.516,-6.5017,-6.4884,-6.4884,-6.4653,-6.441,-6.4,-6.3801,-6.3669,-6.3228,-6.3289,-6.3375,-6.3659,-6.3894,-6.3991,-6.4315,-6.4185,-6.4074,-6.4059,-6.4011,-6.3962,-6.374,-6.3325,-6.3131,-6.3034,-6.3034,-6.3083,-6.3034,-6.2954,-6.3099,-6.3148,-5.5443,-5.5842,-5.6188,-5.6459,-5.6649,-5.6992,-5.7312,-5.7476,-5.7625,-5.7625,-5.7476,-5.7772,-5.7845,-5.7698,-5.7845,-5.7881,-5.8084,-5.8389,-5.8727,-5.9231,-5.9865,-6.0324,-6.0824,-6.1335,-6.1632,-6.1571,-6.1553,-6.1603,-6.1863,-6.1324,-6.1006,-6.1091,-6.0902,-6.1003,-6.0895,-6.0655,-6.0258,-5.986,-5.9396,-5.9046,-5.8794,-5.8468,-5.8174,-5.7914,-5.8069,-5.8075,-5.7842,-5.8024,-5.8157,-5.8177,-5.8204,-5.8025,-5.743,-5.778,-5.8309,-5.8368,-5.9028,-5.9614,-6.0233,-6.0456,-6.0745,-6.1084,-6.0919,-6.0729,-6.0969,-6.1285,-6.155,-6.2056,-6.252,-6.3017,-6.3481,-6.3637,-6.3802,-6.4133,-6.4432,-6.4432,-6.4365,-6.4531,-6.4664,-6.473,-6.4895,-6.516,-6.5558,-6.5569,-6.5536,-6.5425,-6.5425,-6.5425,-6.5315,-6.5038,-6.4772,-6.4539,-6.4248,-6.3805,-6.3773,-6.3901,-6.4215,-6.4509,-6.4542,-6.4494,-6.4527,-6.4414,-6.4174,-6.4045,-6.3964,-6.3676,-6.3276,-6.318,-6.3228,-6.318,-6.318,-6.3131,-6.318,-6.3325,-6.3421,-5.5846,-5.5871,-5.642,-5.6796,-5.6992,-5.7025,-5.71,-5.7331,-5.7588,-5.7588,-5.7364,-5.7735,-5.7808,-5.7662,-5.7808,-5.7881,-5.7949,-5.8626,-5.9133,-5.9772,-6.0536,-6.0998,-6.1464,-6.184,-6.1975,-6.1947,-6.1925,-6.1975,-6.2268,-6.1984,-6.1554,-6.1513,-6.1334,-6.1169,-6.1136,-6.1152,-6.1185,-6.0804,-6.0357,-6.0008,-5.9691,-5.9438,-5.8946,-5.8791,-5.9079,-5.8879,-5.8685,-5.896,-5.9059,-5.9099,-5.9066,-5.8781,-5.8369,-5.8819,-5.9257,-5.9414,-6.015,-6.0787,-6.1333,-6.1603,-6.2009,-6.2259,-6.2052,-6.1995,-6.1806,-6.1947,-6.2212,-6.2586,-6.2984,-6.3382,-6.3769,-6.4167,-6.4465,-6.4763,-6.4895,-6.4995,-6.516,-6.5326,-6.5392,-6.5425,-6.5558,-6.579,-6.5889,-6.5946,-6.5913,-6.5901,-6.5702,-6.5514,-6.547,-6.5237,-6.5114,-6.4901,-6.4629,-6.4322,-6.4286,-6.4165,-6.4362,-6.4606,-6.4736,-6.4721,-6.4818,-6.4899,-6.4884,-6.44,-6.3901,-6.3613,-6.3325,-6.3421,-6.3469,-6.3373,-6.3357,-6.3485,-6.3501,-6.3612,-6.3612,-5.5742,-5.5724,-5.6459,-5.6911,-5.6963,-5.6616,-5.6757,-5.7331,-5.7698,-5.7662,-5.7439,-5.7698,-5.7839,-5.7864,-5.791,-5.8017,-5.8321,-5.893,-5.9539,-6.0148,-6.0979,-6.1543,-6.184,-6.2189,-6.2251,-6.2217,-6.2398,-6.2691,-6.2505,-6.2119,-6.1662,-6.1743,-6.1465,-6.1334,-6.121,-6.1499,-6.1465,-6.1193,-6.072,-6.0263,-5.9724,-5.9278,-5.9112,-5.9199,-5.9299,-5.9339,-5.9352,-5.9431,-5.9464,-5.9543,-5.9537,-5.9445,-5.9517,-5.9455,-5.9786,-6.0415,-6.1192,-6.1896,-6.2335,-6.257,-6.2868,-6.3153,-6.3305,-6.304,-6.2752,-6.252,-6.2719,-6.3206,-6.3637,-6.41,-6.4564,-6.4763,-6.4995,-6.5094,-6.516,-6.5227,-6.5293,-6.5603,-6.5957,-6.609,-6.6545,-6.6678,-6.6445,-6.6501,-6.6179,-6.6256,-6.5934,-6.5625,-6.5548,-6.5447,-6.5346,-6.5243,-6.4826,-6.4551,-6.4398,-6.4309,-6.4362,-6.4494,-6.4995,-6.5287,-6.5578,-6.5627,-6.5627,-6.4868,-6.4046,-6.3693,-6.3469,-6.3597,-6.3661,-6.3517,-6.3565,-6.3836,-6.3931,-6.4011,-6.4045,-5.5572,-5.6137,-5.7025,-5.7402,-5.7439,-5.7312,-5.7345,-5.7551,-5.7625,-5.7551,-5.7364,-5.7584,-5.7931,-5.8231,-5.7977,-5.8118,-5.8795,-5.9302,-5.9844,-6.0516,-6.1283,-6.1919,-6.2037,-6.2245,-6.2447,-6.2892,-6.3208,-6.3368,-6.3328,-6.2522,-6.197,-6.2582,-6.2171,-6.1616,-6.1534,-6.1788,-6.1762,-6.1517,-6.1399,-6.1098,-6.0798,-6.0886,-6.0966,-6.0891,-6.0869,-6.0711,-6.0711,-6.0839,-6.0919,-6.1005,-6.1086,-6.1086,-6.1079,-6.051,-6.091,-6.1824,-6.2173,-6.2861,-6.3382,-6.344,-6.3529,-6.3671,-6.3692,-6.3481,-6.3259,-6.3116,-6.3315,-6.3912,-6.4442,-6.4862,-6.5194,-6.5326,-6.5459,-6.5459,-6.5425,-6.5425,-6.5459,-6.5946,-6.6445,-6.6945,-6.7435,-6.7402,-6.7202,-6.689,-6.6546,-6.6179,-6.5747,-6.5503,-6.5603,-6.5579,-6.5577,-6.5441,-6.4938,-6.4676,-6.4607,-6.4666,-6.4881,-6.5384,-6.5967,-6.6161,-6.629,-6.5886,-6.5546,-6.4852,-6.4159,-6.4095,-6.3999,-6.395,-6.395,-6.3902,-6.4208,-6.4578,-6.4496,-6.4559,-6.4545,-5.542,-5.5886,-5.7077,-5.7588,-5.7625,-5.7698,-5.7735,-5.7735,-5.7625,-5.7588,-5.7588,-5.7695,-5.7968,-5.8265,-5.7977,-5.8321,-5.9066,-5.9742,-6.0283,-6.0888,-6.1593,-6.2296,-6.2487,-6.2508,-6.3161,-6.3606,-6.3364,-6.3444,-6.3728,-6.3067,-6.252,-6.3134,-6.2621,-6.249,-6.2407,-6.2446,-6.2293,-6.1924,-6.213,-6.2037,-6.1795,-6.1669,-6.1656,-6.1654,-6.1614,-6.1608,-6.1608,-6.1629,-6.1696,-6.1803,-6.1944,-6.2192,-6.2211,-6.204,-6.2257,-6.2815,-6.3221,-6.3557,-6.4078,-6.4288,-6.4079,-6.43,-6.4476,-6.4409,-6.4442,-6.4343,-6.4165,-6.4663,-6.5005,-6.5481,-6.5337,-6.5392,-6.5757,-6.5889,-6.569,-6.5525,-6.5989,-6.663,-6.7032,-6.7478,-6.7957,-6.8265,-6.8099,-6.819,-6.7799,-6.7397,-6.6763,-6.6266,-6.6187,-6.6055,-6.5986,-6.587,-6.5575,-6.5554,-6.5774,-6.5719,-6.5578,-6.6193,-6.6809,-6.6986,-6.6936,-6.6015,-6.532,-6.5271,-6.5126,-6.49,-6.4835,-6.4721,-6.4786,-6.4883,-6.5174,-6.5481,-6.5271,-6.5157,-6.5384,-5.5259,-5.5523,-5.7015,-5.7625,-5.7662,-5.7772,-5.7881,-5.7845,-5.7698,-5.7698,-5.7879,-5.8017,-5.7907,-5.787,-5.7842,-5.8454,-5.9133,-5.981,-6.0486,-6.1231,-6.2009,-6.2533,-6.2925,-6.3188,-6.3768,-6.4072,-6.3997,-6.3741,-6.3653,-6.3153,-6.3131,-6.3504,-6.3799,-6.4052,-6.3752,-6.3583,-6.3309,-6.2982,-6.284,-6.2531,-6.2197,-6.1855,-6.197,-6.1977,-6.1944,-6.1984,-6.2032,-6.2045,-6.2165,-6.2307,-6.2554,-6.2669,-6.2945,-6.2948,-6.3275,-6.3591,-6.3972,-6.4308,-6.4641,-6.495,-6.5071,-6.5315,-6.5425,-6.5425,-6.5404,-6.5349,-6.5171,-6.5382,-6.5736,-6.5647,-6.5503,-6.5558,-6.5922,-6.6308,-6.6055,-6.5955,-6.6651,-6.7314,-6.7729,-6.8157,-6.8577,-6.8985,-6.8998,-6.9077,-6.8818,-6.8447,-6.8102,-6.7658,-6.7293,-6.7016,-6.6825,-6.6839,-6.6705,-6.6795,-6.6751,-6.6661,-6.6323,-6.6631,-6.7182,-6.7486,-6.7566,-6.6742,-6.6322,-6.645,-6.6271,-6.574,-6.5707,-6.5706,-6.5771,-6.5738,-6.6173,-6.6383,-6.5934,-6.5902,-6.6388,-5.5302,-5.6556,-5.7437,-5.7845,-5.7808,-5.7735,-5.7735,-5.7845,-5.7698,-5.7698,-5.8014,-5.8558,-5.8758,-5.8653,-5.8082,-5.8558,-5.9844,-6.0216,-6.0622,-6.1298,-6.2212,-6.2735,-6.3262,-6.3795,-6.4158,-6.4487,-6.4933,-6.5369,-6.4457,-6.4001,-6.4145,-6.4866,-6.4327,-6.427,-6.4036,-6.4042,-6.4214,-6.3926,-6.3802,-6.3675,-6.3551,-6.3275,-6.2916,-6.3074,-6.3381,-6.3221,-6.3141,-6.3094,-6.2939,-6.293,-6.3133,-6.3131,-6.3314,-6.3642,-6.4011,-6.4252,-6.4634,-6.4904,-6.5205,-6.5393,-6.5559,-6.5514,-6.5548,-6.5725,-6.5725,-6.5847,-6.5891,-6.6246,-6.6345,-6.5846,-6.569,-6.569,-6.5989,-6.6606,-6.6705,-6.7016,-6.7512,-6.8181,-6.8718,-6.909,-6.9469,-6.9503,-6.9361,-6.9249,-6.8931,-6.8526,-6.8089,-6.7757,-6.7923,-6.7777,-6.7632,-6.7711,-6.7739,-6.7111,-6.6757,-6.7151,-6.7134,-6.7328,-6.7523,-6.7813,-6.786,-6.7489,-6.7262,-6.7128,-6.6758,-6.6242,-6.629,-6.6628,-6.6467,-6.6482,-6.7107,-6.7318,-6.6775,-6.6582,-6.7035]},{"header":{"parameterUnit":"m.s-1","parameterCategory":1,"la1":31.0,"la2":29.5877,"lo1":-88.7671,"lo2":-86.6584,"dx":0.0162,"dy":0.0185,"nx":115,"ny":88,"refTime":"2023-01-28T06:00:00:Z","depth":0,"parameterNumber":3,"parameterNumberName":"V-component_of_WINDS"},"data":[0.0,0.0,0.0,0.0,0.0,0.0,0.0,0.0,0.0,0.0,0.0,0.0,0.0,0.0,0.0,0.0,0.0,0.0,0.0,0.0,0.0,0.0,0.0,0.0,0.0,0.0,0.0,0.0,0.0,0.0,0.0,0.0,0.0,0.0,0.0,0.0,0.0,0.0,0.0,0.0,0.0,0.0,0.0,0.0,0.0,0.0,0.0,0.0,0.0,0.0,0.0,0.0,0.0,0.0,0.0,0.0,0.0,0.0,0.0,0.0,0.0,0.0,0.0,0.0,0.0,0.0,0.0,0.0,0.0,0.0,0.0,0.0,0.0,0.0,0.0,0.0,0.0,0.0,0.0,0.0,0.0,0.0,0.0,0.0,0.0,0.0,0.0,0.0,0.0,0.0,0.0,0.0,0.0,0.0,0.0,0.0,0.0,0.0,0.0,0.0,0.0,0.0,0.0,0.0,0.0,0.0,0.0,0.0,0.0,0.0,0.0,0.0,0.0,0.0,0.0,0.0,0.0,0.0,0.0,0.0,0.0,0.0,0.0,0.0,0.0,0.0,0.0,0.0,0.0,0.0,0.0,0.0,0.0,0.0,0.0,0.0,0.0,0.0,0.0,0.0,0.0,0.0,0.0,0.0,0.0,0.0,0.0,0.0,0.0,0.0,0.0,0.0,0.0,0.0,0.0,0.0,0.0,0.0,0.0,0.0,0.0,0.0,0.0,0.0,0.0,0.0,0.0,0.0,0.0,0.0,0.0,0.0,0.0,0.0,0.0,0.0,0.0,0.0,0.0,0.0,0.0,0.0,0.0,0.0,0.0,0.0,0.0,0.0,0.0,0.0,0.0,0.0,0.0,0.0,0.0,0.0,0.0,0.0,0.0,0.0,0.0,0.0,0.0,0.0,0.0,0.0,0.0,0.0,0.0,0.0,0.0,0.0,0.0,0.0,0.0,0.0,0.0,0.0,0.0,0.0,0.0,0.0,0.0,0.0,0.0,0.0,0.0,0.0,0.0,0.0,0.0,0.0,0.0,0.0,0.0,0.0,0.0,0.0,0.0,0.0,0.0,0.0,0.0,0.0,0.0,0.0,0.0,0.0,0.0,0.0,0.0,0.0,0.0,0.0,0.0,0.0,0.0,0.0,0.0,0.0,0.0,0.0,0.0,0.0,0.0,0.0,0.0,0.0,0.0,0.0,0.0,0.0,0.0,0.0,0.0,0.0,0.0,0.0,0.0,0.0,0.0,0.0,0.0,0.0,0.0,0.0,0.0,0.0,0.0,0.0,0.0,0.0,0.0,0.0,0.0,0.0,0.0,0.0,0.0,0.0,0.0,0.0,0.0,0.0,0.0,0.0,0.0,0.0,0.0,0.0,0.0,0.0,0.0,0.0,0.0,0.0,0.0,0.0,0.0,0.0,0.0,0.0,0.0,0.0,0.0,0.0,0.0,0.0,0.0,0.0,0.0,0.0,0.0,0.0,0.0,0.0,0.0,0.0,0.0,0.0,0.0,0.0,0.0,0.0,0.0,0.0,0.0,0.0,0.0,0.0,0.0,0.0,0.0,0.0,0.0,0.0,0.0,0.0,0.0,0.0,0.0,0.0,0.0,0.0,0.0,0.0,0.0,0.0,0.0,0.0,0.0,0.0,0.0,0.0,0.0,0.0,0.0,0.0,0.0,0.0,0.0,0.0,0.0,0.0,0.0,0.0,0.0,0.0,0.0,0.0,0.0,0.0,0.0,0.0,0.0,0.0,0.0,0.0,0.0,0.0,0.0,0.0,0.0,0.0,0.0,0.0,0.0,0.0,0.0,0.0,0.0,0.0,0.0,0.0,0.0,0.0,0.0,0.0,0.0,0.0,0.0,0.0,0.0,0.0,0.0,0.0,0.0,0.0,0.0,0.0,0.0,0.0,0.0,0.0,0.0,0.0,0.0,0.0,0.0,0.0,0.0,0.0,0.0,0.0,0.0,0.0,0.0,0.0,0.0,0.0,0.0,0.0,0.0,0.0,0.0,0.0,0.0,0.0,0.0,0.0,0.0,0.0,0.0,0.0,0.0,0.0,0.0,0.0,0.0,0.0,0.0,0.0,0.0,0.0,0.0,0.0,0.0,0.0,0.0,0.0,0.0,0.0,0.0,0.0,0.0,0.0,0.0,0.0,0.0,0.0,0.0,0.0,0.0,0.0,0.0,0.0,0.0,0.0,0.0,0.0,0.0,0.0,0.0,0.0,0.0,0.0,0.0,0.0,0.0,0.0,0.0,0.0,0.0,0.0,0.0,0.0,0.0,0.0,0.0,0.0,0.0,0.0,0.0,0.0,0.0,0.0,0.0,0.0,0.0,0.0,0.0,0.0,0.0,0.0,0.0,0.0,0.0,0.0,0.0,0.0,0.0,0.0,0.0,0.0,0.0,0.0,0.0,0.0,0.0,0.0,0.0,0.0,0.0,0.0,0.0,0.0,0.0,0.0,0.0,0.0,0.0,0.0,0.0,0.0,0.0,0.0,0.0,0.0,0.0,0.0,0.0,0.0,0.0,0.0,0.0,0.0,0.0,0.0,0.0,0.0,0.0,0.0,0.0,0.0,0.0,0.0,0.0,0.0,0.0,0.0,0.0,0.0,0.0,0.0,0.0,0.0,0.0,0.0,0.0,0.0,0.0,0.0,0.0,0.0,0.0,0.0,0.0,0.0,0.0,0.0,0.0,0.0,0.0,0.0,0.0,0.0,0.0,0.0,0.0,0.0,0.0,0.0,0.0,0.0,0.0,0.0,0.0,0.0,0.0,0.0,0.0,0.0,0.0,0.0,0.0,0.0,0.0,0.0,0.0,0.0,0.0,0.0,0.0,0.0,0.0,0.0,0.0,0.0,0.0,0.0,0.0,0.0,0.0,0.0,0.0,0.0,0.0,0.0,0.0,0.0,0.0,0.0,0.0,0.0,0.0,0.0,0.0,0.0,0.0,0.0,0.0,0.0,0.0,0.0,0.0,0.0,0.0,0.0,0.0,0.0,0.0,0.0,0.0,0.0,0.0,0.0,0.0,0.0,0.0,0.0,0.0,0.0,0.0,0.0,0.0,0.0,0.0,0.0,0.0,0.0,0.0,0.0,0.0,0.0,0.0,0.0,0.0,0.0,0.0,0.0,0.0,0.0,0.0,0.0,0.0,0.0,0.0,0.0,0.0,0.0,0.0,0.0,0.0,0.0,0.0,0.0,0.0,0.0,0.0,0.0,0.0,0.0,0.0,0.0,0.0,0.0,0.0,0.0,0.0,0.0,0.0,0.0,0.0,0.0,0.0,0.0,0.0,0.0,0.0,0.0,0.0,0.0,0.0,0.0,0.0,0.0,0.0,0.0,0.0,0.0,0.0,0.0,0.0,0.0,0.0,0.0,0.0,0.0,0.0,0.0,0.0,0.0,0.0,0.0,0.0,0.0,0.0,0.0,0.0,0.0,0.0,0.0,0.0,0.0,0.0,0.0,0.0,0.0,0.0,0.0,0.0,0.0,0.0,0.0,0.0,0.0,0.0,0.0,0.0,0.0,0.0,0.0,0.0,0.0,0.0,0.0,0.0,0.0,0.0,0.0,0.0,0.0,0.0,0.0,0.0,0.0,0.0,0.0,0.0,0.0,0.0,0.0,0.0,0.0,0.0,0.0,0.0,0.0,0.0,0.0,0.0,0.0,0.0,0.0,0.0,0.0,0.0,0.0,0.0,0.0,0.0,0.0,0.0,0.0,0.0,0.0,0.0,0.0,0.0,0.0,0.0,0.0,0.0,0.0,0.0,0.0,0.0,0.0,0.0,0.0,0.0,0.0,0.0,0.0,0.0,0.0,0.0,0.0,0.0,0.0,0.0,0.0,0.0,0.0,0.0,0.0,0.0,0.0,0.0,0.0,0.0,0.0,0.0,0.0,0.0,0.0,0.0,0.0,0.0,0.0,0.0,0.0,0.0,0.0,0.0,0.0,0.0,0.0,0.0,0.0,0.0,0.0,0.0,0.0,0.0,0.0,0.0,0.0,0.0,0.0,0.0,0.0,0.0,0.0,0.0,0.0,0.0,0.0,0.0,0.0,0.0,0.0,0.0,0.0,0.0,0.0,0.0,0.0,0.0,0.0,0.0,0.0,0.0,0.0,0.0,0.0,0.0,0.0,0.0,0.0,0.0,0.0,0.0,0.0,0.0,0.0,0.0,0.0,0.0,0.0,0.0,0.0,0.0,0.0,0.0,0.0,0.0,0.0,0.0,0.0,0.0,0.0,0.0,0.0,0.0,0.0,2.8044,0.0,0.0,0.0,0.0,0.0,0.0,0.0,0.0,0.0,0.0,0.0,0.0,0.0,0.0,0.0,0.0,0.0,0.0,0.0,0.0,0.0,0.0,0.0,0.0,0.0,0.0,0.0,0.0,0.0,0.0,0.0,0.0,0.0,0.0,0.0,0.0,0.0,0.0,0.0,0.0,0.0,0.0,0.0,0.0,0.0,0.0,0.0,0.0,0.0,0.0,0.0,0.0,0.0,0.0,0.0,0.0,0.0,0.0,0.0,0.0,0.0,0.0,0.0,0.0,0.0,0.0,0.0,0.0,0.0,0.0,0.0,0.0,0.0,0.0,0.0,0.0,0.0,0.0,0.0,0.0,0.0,0.0,0.0,0.0,0.0,0.0,0.0,0.0,0.0,0.0,0.0,0.0,0.0,0.0,0.0,0.0,0.0,0.0,0.0,0.0,0.0,0.0,0.0,0.0,0.0,0.0,0.0,0.0,0.0,0.0,2.6722,2.8189,2.7564,2.7278,2.7564,0.0,0.0,0.0,0.0,0.0,0.0,0.0,0.0,0.0,0.0,0.0,0.0,0.0,0.0,0.0,0.0,0.0,0.0,0.0,0.0,0.0,0.0,0.0,0.0,0.0,0.0,0.0,0.0,0.0,0.0,0.0,0.0,0.0,0.0,0.0,0.0,0.0,0.0,0.0,0.0,0.0,0.0,0.0,0.0,0.0,0.0,0.0,0.0,0.0,0.0,0.0,0.0,0.0,0.0,0.0,0.0,0.0,0.0,0.0,0.0,0.0,0.0,0.0,0.0,0.0,0.0,0.0,0.0,0.0,0.0,0.0,0.0,0.0,0.0,0.0,0.0,0.0,0.0,0.0,0.0,0.0,0.0,0.0,0.0,0.0,0.0,0.0,0.0,0.0,0.0,0.0,0.0,0.0,0.0,0.0,0.0,0.0,0.0,0.0,0.0,0.0,0.0,0.0,0.0,0.0,0.0,0.0,0.0,0.0,0.0,0.0,0.0,2.7574,2.7477,2.7541,0.0,0.0,0.0,0.0,0.0,0.0,0.0,0.0,0.0,0.0,0.0,0.0,0.0,0.0,0.0,0.0,0.0,0.0,0.0,0.0,0.0,0.0,0.0,0.0,0.0,0.0,0.0,0.0,0.0,0.0,0.0,0.0,0.0,0.0,0.0,0.0,0.0,0.0,0.0,0.0,0.0,0.0,0.0,0.0,0.0,0.0,0.0,0.0,0.0,0.0,0.0,0.0,0.0,0.0,0.0,0.0,0.0,0.0,0.0,0.0,0.0,0.0,0.0,0.0,0.0,0.0,0.0,0.0,0.0,0.0,0.0,0.0,0.0,0.0,0.0,0.0,0.0,0.0,0.0,0.0,0.0,0.0,0.0,0.0,0.0,0.0,0.0,0.0,0.0,0.0,0.0,0.0,0.0,0.0,0.0,0.0,0.0,0.0,0.0,0.0,0.0,0.0,0.0,0.0,0.0,0.0,0.0,0.0,0.0,0.0,2.6497,2.765,2.7679,0.0,2.9117,0.0,0.0,0.0,0.0,0.0,0.0,0.0,0.0,0.0,0.0,0.0,0.0,0.0,0.0,0.0,0.0,0.0,0.0,0.0,0.0,0.0,0.0,0.0,0.0,0.0,0.0,0.0,0.0,0.0,0.0,0.0,0.0,0.0,0.0,0.0,0.0,0.0,0.0,0.0,0.0,0.0,0.0,0.0,0.0,0.0,0.0,0.0,0.0,0.0,0.0,0.0,0.0,0.0,0.0,0.0,0.0,0.0,0.0,0.0,0.0,0.0,0.0,0.0,0.0,0.0,0.0,0.0,0.0,0.0,0.0,0.0,0.0,0.0,0.0,0.0,0.0,0.0,0.0,0.0,0.0,0.0,0.0,0.0,0.0,0.0,0.0,0.0,0.0,0.0,0.0,0.0,0.0,0.0,0.0,0.0,0.0,0.0,0.0,0.0,0.0,0.0,0.0,0.0,0.0,0.0,0.0,0.0,0.0,0.0,0.0,2.663,2.7681,2.7564,2.7724,0.0,0.0,0.0,0.0,0.0,0.0,0.0,0.0,0.0,0.0,0.0,0.0,0.0,0.0,0.0,0.0,0.0,0.0,0.0,0.0,0.0,0.0,0.0,0.0,0.0,0.0,0.0,0.0,0.0,0.0,0.0,0.0,0.0,0.0,0.0,0.0,0.0,0.0,0.0,0.0,0.0,0.0,0.0,0.0,0.0,0.0,0.0,0.0,0.0,0.0,0.0,0.0,0.0,0.0,0.0,0.0,0.0,0.0,0.0,0.0,0.0,0.0,0.0,0.0,0.0,0.0,0.0,0.0,0.0,0.0,0.0,0.0,0.0,0.0,0.0,0.0,0.0,0.0,0.0,0.0,0.0,0.0,0.0,0.0,0.0,0.0,0.0,0.0,0.0,0.0,0.0,0.0,0.0,0.0,0.0,0.0,0.0,0.0,0.0,0.0,0.0,0.0,0.0,0.0,0.0,0.0,0.0,0.0,0.0,0.0,2.6596,2.718,2.8088,2.7618,2.7523,2.7947,0.0,0.0,0.0,0.0,0.0,0.0,0.0,0.0,0.0,0.0,0.0,0.0,0.0,0.0,0.0,0.0,0.0,0.0,0.0,0.0,0.0,0.0,0.0,0.0,0.0,0.0,0.0,0.0,0.0,0.0,0.0,0.0,0.0,0.0,0.0,0.0,0.0,0.0,0.0,0.0,0.0,0.0,0.0,0.0,0.0,0.0,0.0,0.0,0.0,0.0,0.0,0.0,0.0,0.0,0.0,0.0,0.0,0.0,0.0,0.0,0.0,0.0,0.0,0.0,0.0,0.0,0.0,0.0,0.0,0.0,0.0,0.0,0.0,0.0,0.0,0.0,0.0,0.0,0.0,0.0,0.0,0.0,0.0,0.0,0.0,0.0,0.0,0.0,0.0,0.0,0.0,0.0,0.0,0.0,0.0,0.0,0.0,0.0,0.0,0.0,0.0,0.0,0.0,0.0,0.0,0.0,0.0,0.0,2.6666,2.7416,2.8309,2.9228,2.8014,2.7791,0.0,0.0,0.0,0.0,0.0,0.0,0.0,0.0,0.0,0.0,0.0,0.0,0.0,0.0,0.0,0.0,0.0,0.0,0.0,0.0,0.0,0.0,0.0,0.0,0.0,0.0,0.0,0.0,0.0,0.0,0.0,0.0,0.0,0.0,0.0,0.0,0.0,0.0,0.0,0.0,0.0,0.0,0.0,0.0,0.0,0.0,0.0,0.0,0.0,0.0,0.0,0.0,0.0,0.0,0.0,0.0,0.0,0.0,0.0,0.0,0.0,0.0,0.0,0.0,0.0,0.0,0.0,0.0,0.0,0.0,0.0,0.0,0.0,0.0,0.0,0.0,0.0,0.0,0.0,0.0,0.0,0.0,0.0,0.0,0.0,0.0,0.0,0.0,0.0,0.0,0.0,0.0,0.0,0.0,0.0,0.0,0.0,0.0,0.0,0.0,0.0,0.0,0.0,0.0,0.0,0.0,0.0,0.0,0.0,2.6736,2.7977,2.8739,2.886,2.8077,2.7937,0.0,0.0,0.0,0.0,0.0,0.0,0.0,0.0,0.0,0.0,0.0,0.0,0.0,0.0,0.0,0.0,0.0,0.0,0.0,0.0,0.0,0.0,0.0,0.0,0.0,0.0,0.0,0.0,0.0,0.0,0.0,0.0,0.0,0.0,0.0,0.0,0.0,0.0,0.0,0.0,0.0,0.0,0.0,0.0,0.0,0.0,0.0,0.0,0.0,0.0,0.0,0.0,0.0,0.0,0.0,0.0,0.0,0.0,0.0,0.0,0.0,0.0,0.0,0.0,0.0,0.0,0.0,0.0,0.0,0.0,0.0,0.0,0.0,0.0,0.0,0.0,0.0,0.0,0.0,0.0,0.0,0.0,0.0,0.0,0.0,0.0,0.0,0.0,0.0,0.0,0.0,0.0,0.0,0.0,0.0,0.0,0.0,0.0,0.0,0.0,0.0,0.0,0.0,0.0,0.0,0.0,0.0,0.0,0.0,2.7322,0.0,2.8732,2.8449,2.7878,2.7737,0.0,0.0,0.0,0.0,0.0,0.0,0.0,0.0,0.0,0.0,0.0,0.0,0.0,0.0,0.0,0.0,0.0,0.0,0.0,0.0,0.0,0.0,0.0,0.0,0.0,0.0,0.0,0.0,0.0,0.0,0.0,0.0,0.0,0.0,0.0,0.0,0.0,0.0,0.0,0.0,0.0,0.0,0.0,0.0,0.0,0.0,0.0,0.0,0.0,0.0,0.0,0.0,0.0,0.0,0.0,0.0,0.0,0.0,0.0,0.0,0.0,0.0,0.0,0.0,0.0,0.0,0.0,0.0,0.0,0.0,0.0,0.0,0.0,0.0,0.0,0.0,0.0,0.0,0.0,0.0,0.0,0.0,0.0,0.0,0.0,0.0,0.0,0.0,0.0,0.0,0.0,0.0,0.0,0.0,0.0,0.0,0.0,0.0,0.0,0.0,0.0,0.0,0.0,0.0,0.0,0.0,0.0,0.0,2.729,2.8465,2.839,2.8314,2.8207,2.7531,2.7135,0.0,0.0,0.0,0.0,0.0,0.0,0.0,0.0,0.0,0.0,0.0,0.0,0.0,0.0,0.0,0.0,0.0,0.0,0.0,0.0,0.0,0.0,0.0,0.0,0.0,0.0,0.0,0.0,0.0,0.0,0.0,0.0,0.0,0.0,0.0,0.0,0.0,0.0,0.0,0.0,0.0,0.0,0.0,0.0,0.0,0.0,0.0,0.0,0.0,0.0,0.0,0.0,0.0,0.0,0.0,0.0,0.0,0.0,0.0,0.0,0.0,0.0,0.0,0.0,0.0,0.0,0.0,0.0,0.0,0.0,0.0,0.0,0.0,0.0,0.0,0.0,0.0,0.0,0.0,0.0,0.0,0.0,0.0,0.0,0.0,0.0,0.0,0.0,0.0,0.0,0.0,0.0,0.0,0.0,0.0,0.0,0.0,0.0,0.0,0.0,0.0,0.0,0.0,0.0,0.0,0.0,0.0,0.0,0.0,2.7889,2.8178,2.8518,2.8909,2.7898,2.7932,0.0,0.0,0.0,0.0,0.0,0.0,0.0,0.0,0.0,0.0,0.0,0.0,0.0,0.0,0.0,0.0,0.0,0.0,0.0,0.0,0.0,0.0,0.0,0.0,0.0,0.0,0.0,0.0,0.0,0.0,0.0,0.0,0.0,0.0,0.0,0.0,0.0,0.0,0.0,0.0,0.0,0.0,0.0,0.0,0.0,0.0,0.0,0.0,0.0,0.0,0.0,0.0,0.0,0.0,0.0,0.0,0.0,0.0,0.0,0.0,0.0,0.0,0.0,0.0,0.0,0.0,0.0,0.0,0.0,0.0,0.0,0.0,0.0,0.0,0.0,0.0,0.0,0.0,0.0,0.0,0.0,0.0,0.0,0.0,0.0,0.0,0.0,0.0,0.0,0.0,0.0,0.0,0.0,0.0,0.0,0.0,0.0,0.0,0.0,0.0,0.0,0.0,0.0,0.0,0.0,0.0,0.0,0.0,0.0,2.7709,2.7836,2.8027,2.8363,2.7644,2.7849,2.9138,0.0,0.0,0.0,0.0,0.0,0.0,0.0,0.0,0.0,0.0,0.0,0.0,0.0,0.0,0.0,0.0,0.0,0.0,0.0,0.0,0.0,0.0,0.0,0.0,0.0,0.0,0.0,0.0,0.0,0.0,0.0,0.0,0.0,0.0,0.0,0.0,0.0,0.0,0.0,0.0,0.0,0.0,0.0,0.0,0.0,0.0,0.0,0.0,0.0,0.0,0.0,0.0,0.0,0.0,0.0,0.0,0.0,0.0,0.0,0.0,0.0,0.0,0.0,0.0,0.0,0.0,0.0,0.0,0.0,0.0,0.0,0.0,0.0,0.0,0.0,0.0,0.0,0.0,0.0,0.0,0.0,0.0,0.0,0.0,0.0,0.0,0.0,0.0,0.0,0.0,0.0,0.0,0.0,0.0,0.0,0.0,0.0,0.0,0.0,0.0,0.0,0.0,0.0,0.0,0.0,0.0,0.0,0.0,2.8071,2.7483,2.7088,2.6912,2.6915,2.7172,0.0,0.0,0.0,0.0,0.0,0.0,0.0,0.0,0.0,0.0,0.0,0.0,0.0,0.0,0.0,0.0,0.0,0.0,0.0,0.0,0.0,0.0,0.0,0.0,0.0,0.0,0.0,0.0,0.0,0.0,0.0,0.0,0.0,0.0,0.0,0.0,0.0,0.0,0.0,0.0,0.0,0.0,0.0,0.0,0.0,0.0,0.0,0.0,0.0,0.0,0.0,0.0,0.0,0.0,0.0,0.0,0.0,0.0,0.0,0.0,0.0,0.0,0.0,0.0,0.0,0.0,0.0,0.0,0.0,0.0,0.0,0.0,0.0,0.0,0.0,0.0,0.0,0.0,0.0,0.0,0.0,0.0,0.0,0.0,0.0,0.0,0.0,0.0,0.0,0.0,0.0,0.0,0.0,0.0,0.0,0.0,0.0,0.0,0.0,0.0,0.0,0.0,0.0,0.0,0.0,0.0,0.0,0.0,0.0,2.8042,2.8094,2.7935,2.7683,2.7939,2.8283,0.0,0.0,0.0,0.0,0.0,0.0,0.0,0.0,0.0,0.0,0.0,0.0,0.0,0.0,0.0,0.0,0.0,0.0,0.0,0.0,0.0,0.0,0.0,0.0,0.0,0.0,0.0,0.0,0.0,0.0,0.0,0.0,0.0,0.0,0.0,0.0,0.0,0.0,0.0,0.0,0.0,0.0,0.0,0.0,0.0,0.0,0.0,0.0,0.0,0.0,0.0,0.0,0.0,0.0,0.0,0.0,0.0,0.0,0.0,0.0,0.0,0.0,0.0,0.0,0.0,0.0,0.0,0.0,0.0,0.0,0.0,0.0,0.0,0.0,0.0,0.0,0.0,0.0,0.0,0.0,0.0,0.0,0.0,0.0,0.0,0.0,0.0,0.0,0.0,0.0,0.0,0.0,0.0,0.0,0.0,0.0,0.0,0.0,0.0,0.0,0.0,0.0,0.0,0.0,0.0,0.0,0.0,0.0,2.741,2.8454,2.8625,2.8597,2.8304,2.851,2.8597,0.0,0.0,0.0,0.0,0.0,0.0,0.0,0.0,0.0,0.0,0.0,0.0,0.0,0.0,0.0,0.0,0.0,0.0,0.0,0.0,0.0,0.0,0.0,0.0,0.0,0.0,0.0,0.0,0.0,0.0,0.0,0.0,0.0,0.0,0.0,0.0,0.0,0.0,0.0,0.0,0.0,0.0,0.0,0.0,0.0,0.0,0.0,0.0,0.0,0.0,0.0,0.0,0.0,0.0,0.0,0.0,0.0,0.0,0.0,0.0,0.0,0.0,0.0,0.0,0.0,0.0,0.0,0.0,0.0,0.0,0.0,0.0,0.0,0.0,0.0,0.0,0.0,0.0,0.0,0.0,0.0,0.0,0.0,0.0,0.0,0.0,0.0,0.0,0.0,0.0,0.0,0.0,0.0,0.0,0.0,0.0,0.0,0.0,0.0,0.0,0.0,0.0,0.0,0.0,0.0,0.0,0.0,0.0,2.7328,2.8902,2.9175,2.9106,2.8721,2.8868,2.8675,0.0,0.0,0.0,0.0,0.0,0.0,0.0,0.0,0.0,0.0,0.0,0.0,0.0,0.0,0.0,0.0,0.0,0.0,0.0,0.0,0.0,0.0,0.0,0.0,0.0,0.0,0.0,0.0,0.0,0.0,0.0,0.0,0.0,0.0,0.0,0.0,0.0,0.0,0.0,0.0,0.0,0.0,0.0,0.0,0.0,0.0,0.0,0.0,0.0,0.0,0.0,0.0,0.0,0.0,0.0,0.0,0.0,0.0,0.0,0.0,0.0,0.0,0.0,0.0,0.0,0.0,0.0,0.0,0.0,0.0,0.0,0.0,0.0,0.0,0.0,0.0,0.0,0.0,0.0,0.0,0.0,0.0,0.0,0.0,0.0,0.0,0.0,0.0,0.0,0.0,0.0,0.0,0.0,0.0,0.0,0.0,0.0,0.0,0.0,0.0,0.0,0.0,0.0,0.0,0.0,0.0,0.0,0.0,2.8748,2.8679,2.9489,2.947,2.8568,2.9807,2.9986,0.0,0.0,0.0,0.0,0.0,0.0,0.0,0.0,0.0,0.0,0.0,0.0,0.0,0.0,0.0,0.0,0.0,0.0,0.0,0.0,0.0,0.0,0.0,0.0,0.0,0.0,0.0,0.0,0.0,0.0,0.0,0.0,0.0,0.0,0.0,0.0,0.0,0.0,0.0,0.0,0.0,0.0,0.0,0.0,0.0,0.0,0.0,0.0,3.1484,0.0,0.0,0.0,0.0,0.0,0.0,0.0,0.0,0.0,0.0,0.0,0.0,0.0,0.0,0.0,0.0,0.0,0.0,0.0,0.0,0.0,0.0,0.0,0.0,0.0,0.0,0.0,0.0,0.0,0.0,0.0,0.0,0.0,0.0,0.0,0.0,0.0,0.0,0.0,0.0,0.0,0.0,0.0,0.0,0.0,0.0,0.0,0.0,0.0,0.0,0.0,0.0,0.0,0.0,0.0,0.0,0.0,0.0,0.0,2.9104,2.9058,2.9807,3.0021,2.9716,3.0539,3.0367,0.0,0.0,0.0,0.0,0.0,0.0,0.0,0.0,0.0,0.0,0.0,0.0,0.0,0.0,0.0,0.0,0.0,0.0,0.0,0.0,0.0,0.0,0.0,0.0,0.0,0.0,0.0,0.0,0.0,0.0,0.0,0.0,0.0,0.0,0.0,0.0,0.0,0.0,0.0,0.0,0.0,0.0,0.0,0.0,0.0,0.0,0.0,0.0,0.0,0.0,0.0,0.0,0.0,0.0,0.0,0.0,0.0,0.0,0.0,0.0,0.0,0.0,0.0,0.0,0.0,0.0,0.0,0.0,0.0,0.0,0.0,0.0,0.0,0.0,0.0,0.0,0.0,0.0,0.0,0.0,0.0,0.0,0.0,0.0,0.0,0.0,0.0,0.0,0.0,0.0,0.0,0.0,0.0,0.0,0.0,0.0,0.0,0.0,0.0,0.0,0.0,0.0,0.0,0.0,0.0,0.0,0.0,2.8556,2.9114,2.952,3.0064,3.0602,3.1076,3.1062,3.051,2.9537,0.0,0.0,0.0,0.0,0.0,0.0,0.0,0.0,0.0,0.0,0.0,0.0,0.0,0.0,0.0,0.0,0.0,0.0,0.0,0.0,0.0,0.0,0.0,0.0,0.0,0.0,0.0,0.0,0.0,0.0,0.0,0.0,0.0,0.0,0.0,0.0,0.0,0.0,3.1975,3.278,0.0,0.0,0.0,0.0,0.0,0.0,0.0,0.0,3.314,0.0,0.0,0.0,0.0,0.0,0.0,0.0,0.0,0.0,0.0,0.0,0.0,0.0,0.0,0.0,0.0,0.0,0.0,0.0,0.0,0.0,0.0,0.0,0.0,0.0,0.0,0.0,0.0,0.0,0.0,0.0,0.0,0.0,0.0,0.0,0.0,0.0,0.0,0.0,0.0,0.0,0.0,0.0,0.0,0.0,0.0,0.0,0.0,0.0,0.0,0.0,0.0,0.0,0.0,0.0,0.0,2.8139,2.8928,2.9403,2.9605,3.035,3.0977,3.1541,3.1323,3.1243,3.1454,0.0,0.0,0.0,0.0,0.0,0.0,0.0,0.0,0.0,0.0,0.0,0.0,0.0,0.0,0.0,0.0,0.0,0.0,0.0,0.0,0.0,0.0,0.0,0.0,0.0,0.0,0.0,0.0,0.0,0.0,0.0,0.0,0.0,0.0,0.0,0.0,0.0,0.0,0.0,3.2815,3.3211,0.0,0.0,0.0,0.0,0.0,0.0,0.0,0.0,3.3411,0.0,0.0,0.0,0.0,0.0,0.0,0.0,0.0,0.0,0.0,0.0,0.0,0.0,0.0,0.0,0.0,0.0,0.0,0.0,0.0,0.0,0.0,0.0,0.0,0.0,0.0,0.0,0.0,0.0,0.0,0.0,0.0,0.0,0.0,0.0,0.0,0.0,0.0,0.0,0.0,0.0,0.0,0.0,0.0,0.0,0.0,0.0,0.0,0.0,0.0,0.0,0.0,0.0,0.0,0.0,2.8538,2.9088,2.9579,3.007,3.0845,3.1532,3.2027,3.1379,3.1657,0.0,0.0,0.0,0.0,0.0,0.0,0.0,0.0,0.0,0.0,0.0,0.0,0.0,0.0,0.0,0.0,0.0,0.0,0.0,0.0,0.0,0.0,0.0,0.0,0.0,0.0,0.0,0.0,0.0,0.0,0.0,0.0,0.0,0.0,0.0,0.0,0.0,0.0,0.0,0.0,3.3073,3.3207,3.3624,0.0,0.0,0.0,0.0,0.0,0.0,3.3508,3.3441,0.0,0.0,0.0,0.0,0.0,0.0,0.0,0.0,0.0,0.0,0.0,0.0,0.0,0.0,0.0,0.0,0.0,0.0,0.0,0.0,0.0,0.0,0.0,0.0,0.0,0.0,0.0,0.0,0.0,0.0,0.0,0.0,0.0,0.0,0.0,0.0,0.0,0.0,0.0,0.0,0.0,0.0,0.0,0.0,0.0,0.0,0.0,0.0,0.0,0.0,0.0,0.0,0.0,0.0,0.0,2.8813,2.9026,2.9622,3.0656,3.1143,3.1734,3.2511,3.141,3.1781,0.0,0.0,0.0,0.0,0.0,0.0,0.0,0.0,0.0,0.0,0.0,0.0,0.0,0.0,0.0,0.0,0.0,0.0,0.0,0.0,0.0,0.0,0.0,0.0,0.0,0.0,0.0,0.0,0.0,0.0,0.0,0.0,0.0,0.0,0.0,0.0,0.0,0.0,0.0,0.0,0.0,3.3498,3.3944,3.4718,0.0,0.0,0.0,0.0,3.4725,3.4229,0.0,0.0,0.0,0.0,0.0,0.0,0.0,0.0,0.0,0.0,0.0,0.0,0.0,0.0,0.0,0.0,0.0,0.0,0.0,0.0,0.0,0.0,0.0,0.0,0.0,0.0,0.0,0.0,0.0,0.0,0.0,0.0,0.0,0.0,0.0,0.0,0.0,0.0,0.0,0.0,0.0,0.0,0.0,0.0,0.0,0.0,0.0,0.0,0.0,0.0,0.0,0.0,0.0,0.0,0.0,0.0,2.8607,2.8568,2.9453,3.1251,3.062,3.1143,3.3094,3.1575,3.1523,0.0,0.0,0.0,0.0,0.0,0.0,0.0,0.0,0.0,0.0,0.0,0.0,0.0,0.0,0.0,0.0,0.0,0.0,0.0,0.0,0.0,0.0,0.0,0.0,0.0,0.0,0.0,0.0,0.0,0.0,0.0,0.0,0.0,0.0,0.0,0.0,0.0,0.0,0.0,0.0,0.0,3.4478,3.355,3.4689,3.5544,0.0,0.0,3.4754,3.4576,3.5045,0.0,0.0,0.0,0.0,0.0,0.0,0.0,0.0,0.0,0.0,0.0,0.0,0.0,0.0,0.0,0.0,0.0,0.0,0.0,0.0,0.0,0.0,0.0,0.0,0.0,0.0,0.0,0.0,0.0,0.0,0.0,0.0,0.0,0.0,0.0,0.0,0.0,0.0,0.0,0.0,0.0,0.0,0.0,0.0,0.0,0.0,0.0,0.0,0.0,0.0,0.0,0.0,0.0,0.0,0.0,2.8612,2.9613,2.9603,3.0369,3.1921,3.1556,3.1873,3.2952,3.1769,3.1652,0.0,0.0,0.0,0.0,0.0,0.0,0.0,0.0,0.0,0.0,0.0,0.0,0.0,0.0,0.0,0.0,0.0,0.0,0.0,0.0,0.0,0.0,0.0,0.0,0.0,0.0,0.0,0.0,0.0,0.0,0.0,0.0,0.0,0.0,0.0,0.0,0.0,0.0,0.0,0.0,0.0,0.0,3.4437,3.5517,0.0,0.0,0.0,3.6675,3.6485,0.0,0.0,0.0,0.0,0.0,0.0,0.0,0.0,0.0,0.0,0.0,0.0,0.0,0.0,0.0,0.0,0.0,0.0,0.0,0.0,0.0,0.0,0.0,0.0,0.0,0.0,0.0,0.0,0.0,0.0,0.0,0.0,0.0,0.0,0.0,0.0,0.0,0.0,0.0,0.0,0.0,0.0,0.0,0.0,0.0,0.0,0.0,0.0,0.0,0.0,0.0,0.0,0.0,0.0,0.0,0.0,0.0,3.0359,3.0279,3.0928,3.2342,3.2122,3.2263,3.272,3.1681,0.0,0.0,0.0,0.0,0.0,0.0,0.0,0.0,0.0,0.0,0.0,0.0,0.0,0.0,0.0,0.0,0.0,0.0,0.0,0.0,0.0,0.0,0.0,0.0,0.0,0.0,0.0,0.0,0.0,0.0,0.0,0.0,0.0,0.0,0.0,0.0,0.0,0.0,0.0,0.0,0.0,0.0,3.464,3.5654,3.652,3.7179,0.0,0.0,3.7938,3.7709,3.7461,3.7433,0.0,0.0,0.0,0.0,0.0,0.0,0.0,0.0,0.0,0.0,0.0,0.0,0.0,0.0,0.0,0.0,0.0,0.0,0.0,0.0,0.0,0.0,0.0,0.0,0.0,0.0,0.0,0.0,0.0,0.0,0.0,0.0,0.0,0.0,0.0,0.0,0.0,0.0,0.0,0.0,0.0,0.0,0.0,0.0,0.0,0.0,0.0,0.0,0.0,0.0,0.0,0.0,0.0,0.0,0.0,2.9974,2.9668,3.0443,3.228,3.1363,3.1509,3.2897,3.0988,3.0794,0.0,0.0,0.0,0.0,0.0,0.0,0.0,0.0,0.0,0.0,0.0,0.0,0.0,0.0,0.0,0.0,0.0,0.0,0.0,0.0,0.0,0.0,0.0,0.0,0.0,0.0,0.0,0.0,0.0,0.0,0.0,0.0,0.0,0.0,0.0,0.0,0.0,0.0,0.0,0.0,0.0,3.6995,3.6929,3.7532,3.82,0.0,0.0,3.7373,3.7114,3.7628,3.7839,3.7192,0.0,0.0,0.0,0.0,0.0,0.0,0.0,0.0,0.0,0.0,0.0,0.0,0.0,0.0,0.0,0.0,0.0,0.0,0.0,0.0,0.0,0.0,0.0,0.0,0.0,0.0,0.0,0.0,0.0,0.0,0.0,0.0,0.0,0.0,0.0,0.0,0.0,0.0,0.0,0.0,0.0,0.0,0.0,0.0,0.0,0.0,0.0,0.0,0.0,0.0,0.0,0.0,0.0,3.0168,3.1237,3.0654,3.111,3.2674,3.1861,3.1736,3.2489,3.1553,3.1568,0.0,0.0,0.0,0.0,0.0,0.0,0.0,0.0,0.0,0.0,0.0,0.0,0.0,0.0,0.0,0.0,0.0,0.0,0.0,0.0,0.0,0.0,0.0,0.0,0.0,0.0,0.0,0.0,3.1563,3.2059,3.2698,0.0,0.0,0.0,0.0,0.0,0.0,0.0,0.0,0.0,0.0,3.6538,3.7208,3.7627,0.0,0.0,3.8585,3.8401,3.7922,3.8084,3.8221,3.809,3.802,0.0,0.0,0.0,0.0,0.0,0.0,0.0,0.0,0.0,0.0,0.0,0.0,0.0,0.0,0.0,0.0,0.0,0.0,0.0,0.0,0.0,0.0,0.0,0.0,0.0,0.0,0.0,0.0,0.0,0.0,0.0,0.0,0.0,0.0,0.0,0.0,0.0,0.0,0.0,0.0,0.0,0.0,0.0,0.0,0.0,0.0,0.0,0.0,0.0,0.0,0.0,0.0,3.0997,3.1951,3.144,3.1751,3.2889,3.236,3.2148,3.2237,3.1927,3.1979,0.0,0.0,0.0,0.0,0.0,0.0,0.0,0.0,0.0,0.0,0.0,0.0,0.0,0.0,0.0,0.0,0.0,0.0,0.0,0.0,0.0,0.0,0.0,0.0,0.0,0.0,0.0,0.0,3.1987,3.276,3.3485,0.0,0.0,0.0,0.0,0.0,0.0,0.0,0.0,0.0,0.0,3.6729,3.7779,3.8,3.8246,3.8711,3.9094,3.9195,3.8705,3.8905,3.9074,3.8956,0.0,0.0,0.0,0.0,0.0,0.0,0.0,0.0,0.0,0.0,0.0,0.0,0.0,0.0,0.0,0.0,0.0,0.0,0.0,0.0,0.0,0.0,0.0,0.0,0.0,0.0,0.0,0.0,0.0,0.0,3.0698,0.0,0.0,0.0,0.0,0.0,0.0,0.0,0.0,0.0,0.0,0.0,0.0,0.0,0.0,0.0,0.0,0.0,0.0,0.0,0.0,0.0,0.0,3.1723,3.1638,3.1723,3.2068,3.2704,3.2676,3.2596,3.2436,3.1909,3.18,3.2255,0.0,0.0,0.0,0.0,0.0,0.0,0.0,0.0,0.0,0.0,0.0,0.0,0.0,0.0,0.0,0.0,0.0,0.0,0.0,0.0,0.0,0.0,0.0,0.0,0.0,0.0,3.3022,3.3264,3.3449,0.0,0.0,0.0,0.0,0.0,0.0,0.0,0.0,0.0,0.0,3.7772,3.8044,3.8818,3.8901,3.9015,3.9458,3.9509,3.9425,3.9239,3.9968,4.0391,0.0,0.0,0.0,0.0,0.0,0.0,0.0,0.0,0.0,0.0,0.0,0.0,0.0,0.0,0.0,0.0,0.0,0.0,0.0,0.0,0.0,0.0,0.0,0.0,0.0,0.0,0.0,2.9965,2.9954,0.0,0.0,0.0,0.0,0.0,0.0,0.0,0.0,0.0,0.0,0.0,3.2506,3.2506,0.0,0.0,0.0,0.0,0.0,0.0,0.0,0.0,0.0,0.0,0.0,0.0,3.183,3.2478,3.1803,3.2069,3.3247,3.3083,3.3127,3.3397,3.2867,3.2863,3.3384,0.0,0.0,0.0,0.0,0.0,0.0,0.0,0.0,0.0,0.0,0.0,0.0,0.0,0.0,0.0,0.0,0.0,0.0,0.0,0.0,0.0,0.0,0.0,0.0,0.0,3.3075,0.0,0.0,0.0,0.0,0.0,0.0,0.0,0.0,0.0,0.0,0.0,3.749,3.7977,3.791,3.8152,3.9049,3.924,3.9299,0.0,0.0,0.0,0.0,0.0,0.0,0.0,0.0,0.0,0.0,0.0,0.0,0.0,0.0,4.0685,4.0195,4.1211,4.165,4.0125,0.0,0.0,0.0,0.0,0.0,0.0,0.0,0.0,0.0,0.0,0.0,0.0,0.0,0.0,3.0298,0.0,2.9839,0.0,0.0,0.0,0.0,0.0,0.0,0.0,0.0,3.2249,3.2354,3.2681,3.2681,3.2639,0.0,3.2269,3.2231,0.0,0.0,0.0,0.0,0.0,0.0,0.0,0.0,3.214,3.2854,3.236,3.2545,3.3357,3.3455,3.3642,3.388,3.3376,3.3164,3.3384,3.3651,3.4187,0.0,0.0,0.0,0.0,0.0,0.0,0.0,0.0,0.0,0.0,0.0,0.0,0.0,0.0,0.0,0.0,0.0,0.0,0.0,0.0,0.0,0.0,0.0,3.3662,0.0,0.0,0.0,0.0,0.0,0.0,0.0,0.0,0.0,3.8045,3.7639,3.7566,3.8255,3.8167,3.8363,3.9365,0.0,0.0,0.0,0.0,0.0,0.0,0.0,4.0728,4.0518,4.0285,4.0096,3.9934,4.0744,4.1331,4.1212,0.0,0.0,4.1096,4.1943,4.2417,4.0919,4.1019,4.1185,4.0377,4.0785,4.1259,0.0,0.0,0.0,0.0,0.0,0.0,0.0,0.0,3.0699,3.0959,0.0,3.0566,0.0,0.0,0.0,0.0,0.0,3.1533,0.0,0.0,3.1391,3.1465,3.2665,3.2693,3.2523,3.218,3.2877,3.2952,3.2362,3.0891,0.0,0.0,0.0,0.0,0.0,0.0,3.2731,3.2723,3.3266,3.344,3.3196,3.3826,3.4088,3.3896,3.3393,3.2861,3.2291,3.3138,3.3403,3.2934,3.4678,0.0,0.0,0.0,0.0,0.0,0.0,0.0,0.0,0.0,0.0,0.0,0.0,0.0,0.0,0.0,0.0,0.0,0.0,0.0,0.0,3.3894,0.0,0.0,0.0,0.0,0.0,0.0,0.0,0.0,0.0,0.0,3.8449,3.8133,3.8099,3.8577,0.0,0.0,0.0,0.0,3.9934,4.1053,4.1941,4.2431,4.2235,4.2644,4.2761,4.2229,0.0,0.0,4.0288,4.1977,4.3134,4.2351,4.3411,4.3884,4.189,4.2315,4.2694,4.2067,4.2399,4.2598,4.2256,4.2658,4.3163,3.2485,0.0,0.0,0.0,0.0,3.242,3.2061,3.1267,3.1585,3.1668,3.1598,3.0822,0.0,0.0,0.0,0.0,0.0,0.0,3.2702,3.2842,3.2779,3.2807,3.2912,3.2912,3.2842,3.2737,3.2389,3.243,3.2727,3.0969,3.0813,3.2191,0.0,0.0,0.0,0.0,3.2991,3.2944,3.3338,3.3661,3.3831,3.4058,3.4059,3.3861,3.3701,3.3251,3.25,3.2749,3.3118,3.3516,3.4073,0.0,0.0,0.0,0.0,0.0,0.0,0.0,0.0,0.0,0.0,0.0,0.0,0.0,0.0,0.0,0.0,0.0,0.0,0.0,3.4041,3.4133,3.4609,0.0,0.0,0.0,0.0,0.0,0.0,0.0,0.0,0.0,3.8783,3.871,3.8741,0.0,0.0,3.9642,4.0583,4.0723,4.0973,4.1746,0.0,0.0,0.0,4.3046,4.3045,4.3092,4.2984,4.29,4.3015,4.3617,4.4014,4.3953,4.4312,4.433,4.3724,4.4407,4.4781,4.4021,4.4201,4.4468,4.408,4.4144,4.4412,3.3921,3.3828,3.3104,3.2707,3.2626,3.2939,3.2567,3.1774,3.2078,3.219,3.2184,3.14,3.1453,3.2053,3.166,0.0,0.0,0.0,3.3052,3.2793,3.3185,3.3227,3.2988,3.2917,3.2846,3.2747,3.245,3.2455,3.2854,3.1927,3.1802,3.2461,0.0,0.0,3.2343,3.2573,3.2858,3.3176,3.3587,3.3913,3.414,3.4299,3.4218,3.3818,3.3738,3.3354,3.2645,3.2579,3.2815,3.3235,3.3396,3.3701,0.0,0.0,0.0,0.0,0.0,0.0,0.0,0.0,0.0,0.0,0.0,3.1172,0.0,0.0,0.0,0.0,3.3276,3.3684,3.4348,3.4554,0.0,0.0,0.0,0.0,0.0,0.0,0.0,3.8398,3.8633,3.8894,3.9133,3.9262,3.931,3.9087,3.9363,3.9918,4.0716,0.0,4.1508,4.2327,4.2782,4.3257,4.3861,4.373,4.3572,4.3594,4.3831,4.391,4.3928,4.4403,4.4747,4.4741,4.4978,4.5191,4.514,4.5778,4.5907,4.4661,4.4961,4.5372,4.5095,4.5424,4.5804,3.5404,3.5617,3.4476,3.3648,3.3049,3.325,3.2905,3.2229,3.2396,3.268,3.303,3.2274,3.232,3.2891,3.2939,0.0,3.1889,3.3016,3.3121,3.2414,3.2772,3.2917,3.2881,3.2704,3.2588,3.2463,3.2822,3.2909,3.2815,3.3264,3.3301,3.2988,3.1179,3.1003,3.2281,3.2299,3.2694,3.3471,3.394,3.4139,3.4206,3.4439,3.4342,3.3816,3.3613,3.3216,3.2656,3.263,3.263,3.2536,3.2869,3.3264,3.3709,0.0,0.0,0.0,0.0,0.0,0.0,0.0,0.0,0.0,0.0,0.0,0.0,0.0,0.0,0.0,3.3163,0.0,3.4501,3.5024,0.0,0.0,0.0,3.7581,3.7777,3.8014,3.8187,3.8325,0.0,0.0,3.9486,0.0,3.9712,3.8888,3.9264,3.9786,4.036,4.0934,4.1667,4.271,4.3599,4.4228,4.4487,4.4465,4.4256,4.3964,4.4385,4.4519,4.3938,4.4758,4.5369,4.4915,4.542,4.598,4.635,4.6321,4.6025,4.4609,4.511,4.5801,4.5912,4.6645,4.7215,3.5741,3.5666,3.5389,3.4832,3.4122,3.4333,3.4317,3.4117,3.3965,3.4245,3.4732,3.3599,3.2762,3.2255,3.2466,3.2436,3.2289,3.2674,3.2826,3.2616,3.2407,3.2237,3.2155,3.2082,3.2289,3.2593,3.2732,3.3057,3.3587,3.3423,3.3233,3.2961,3.2241,3.2267,3.3037,3.3488,3.3622,3.3513,3.4161,3.4436,3.4131,3.3985,3.3859,3.373,3.352,3.3259,3.2988,3.3131,3.3257,3.3399,3.3674,3.4058,3.4504,3.4872,0.0,0.0,0.0,0.0,0.0,0.0,0.0,0.0,0.0,3.1505,3.3037,0.0,3.3652,0.0,3.4038,3.4036,3.4471,3.5105,0.0,0.0,3.6836,3.7327,3.7566,3.7607,3.7922,3.8753,3.8956,3.9131,3.9363,3.9694,3.9685,3.9158,3.9829,4.0507,4.0735,4.1079,4.1544,4.2291,4.2776,4.3396,4.4429,4.4859,4.4863,4.457,4.5099,4.5552,4.5103,4.5741,4.6088,4.5529,4.5529,4.5662,4.5582,4.5822,4.59,4.5448,4.6193,4.7079,4.7513,4.7839,4.811,3.631,3.6269,3.6409,3.5826,3.4901,3.5151,3.5261,3.5282,3.4813,3.4975,3.5565,3.4439,3.3493,3.2686,3.2554,3.2681,3.2925,3.288,3.2837,3.2828,3.2535,3.2277,3.2118,3.2043,3.2186,3.2525,3.2679,3.2998,3.3423,3.3264,3.3155,3.3023,3.272,3.2803,3.3335,3.359,3.3788,3.3927,3.4339,3.4314,3.381,3.3641,3.3598,3.3683,3.3513,3.3386,3.3343,3.3471,3.3683,3.4021,3.3913,3.4121,3.4729,3.4778,3.5076,0.0,0.0,0.0,0.0,0.0,0.0,0.0,0.0,0.0,0.0,0.0,3.4816,0.0,3.4934,3.4672,3.5541,3.5767,3.5934,3.6031,3.6665,3.697,3.6778,3.7102,3.7561,3.8078,3.8227,3.8484,3.904,3.9051,3.9131,3.9348,3.9652,3.9955,4.0236,4.0716,4.1296,4.176,4.2497,4.3216,4.4206,4.4585,4.4748,4.4585,4.5009,4.536,4.5233,4.5709,4.6,4.5845,4.5792,4.5792,4.5792,4.5768,4.5902,4.6409,4.692,4.7433,4.7785,4.8273,4.8652,3.6845,3.694,3.7123,3.6515,3.5443,3.563,3.5793,3.5833,3.5089,3.5096,3.564,3.4739,3.4086,3.3508,3.2985,3.3064,3.3569,3.3169,3.2982,3.2982,3.2718,3.2528,3.2337,3.2172,3.2189,3.2312,3.2723,3.293,3.3008,3.3106,3.3155,3.3154,3.2896,3.2957,3.3343,3.328,3.3586,3.4288,3.435,3.4082,3.3555,3.3555,3.3683,3.387,3.3649,3.3581,3.3768,3.381,3.3995,3.4371,3.4035,3.4065,3.4677,3.462,3.4835,0.0,3.5777,0.0,0.0,0.0,0.0,0.0,0.0,0.0,0.0,3.514,3.6158,3.6872,3.5718,3.5447,3.666,3.6413,3.6047,3.5643,3.6279,3.6538,3.5981,3.6653,3.7149,3.7031,3.7248,3.7732,3.8498,3.8236,3.8367,3.9216,3.9052,3.8844,3.9176,4.005,4.0803,4.1197,4.2423,4.3356,4.3653,4.3984,4.4258,4.4258,4.4606,4.4746,4.4748,4.5218,4.564,4.5781,4.5836,4.5998,4.6271,4.5954,4.6114,4.6912,4.7287,4.7588,4.7893,4.8544,4.895,3.6933,3.6563,3.6563,3.6243,3.5667,3.565,3.5519,3.5217,3.4723,3.4326,3.4074,3.3854,3.3633,3.334,3.3083,3.3149,3.3461,3.3102,3.2946,3.2907,3.2397,3.212,3.208,3.204,3.2162,3.2469,3.2767,3.3116,3.3546,3.3546,3.3496,3.3368,3.33,3.3215,3.3086,0.0,0.0,0.0,3.3929,3.4052,3.4139,3.4313,3.4572,3.4933,3.4322,0.0,3.4272,3.4413,3.4538,3.462,3.4774,0.0,0.0,0.0,0.0,0.0,0.0,0.0,0.0,0.0,0.0,0.0,3.5477,3.5483,3.5162,3.5942,3.6515,3.6496,3.6077,3.5665,3.5507,3.5612,3.5562,3.5146,3.5557,3.5999,3.6167,3.6393,3.6585,3.6752,3.6803,3.7093,3.7715,3.7742,3.7915,3.854,3.8368,3.8185,3.8238,3.9247,3.9972,4.0305,4.1897,4.2961,4.2818,4.3432,4.3955,4.4035,4.4616,4.4918,4.4824,4.519,4.5373,4.5116,4.5352,4.5535,4.5225,4.5862,4.6528,4.6343,4.7253,4.8279,4.9048,4.9346,4.9538,3.631,0.0,3.6058,3.5817,0.0,3.5386,3.5103,3.462,3.4624,3.4055,3.3172,3.3209,3.2907,3.2415,3.2514,3.2741,3.3066,3.2946,3.2875,3.2875,3.2618,3.2306,3.2101,3.2101,3.2214,3.2446,3.2582,3.2792,3.3043,3.3068,3.2914,3.2698,3.2723,3.2636,3.2525,3.2636,3.2871,3.3215,3.3363,3.3339,3.3189,3.3495,3.3817,3.4161,0.0,0.0,0.0,0.0,0.0,0.0,0.0,0.0,0.0,0.0,0.0,3.5249,3.5372,3.5386,3.5413,3.5494,3.5467,3.529,3.5453,3.5561,3.5553,3.564,3.5642,3.5548,3.5345,3.5207,3.5125,3.5231,3.5262,3.5287,3.5716,3.6071,3.6126,3.6497,3.6716,3.6734,3.6866,3.7145,3.7715,3.7662,3.7829,3.8251,3.821,3.7974,3.8022,3.8562,3.9328,4.0214,4.1576,4.2457,4.2425,4.293,4.3487,4.3704,4.427,4.4707,4.472,4.5164,4.5451,4.5271,4.5663,4.5924,4.5715,4.6193,4.6698,4.6724,4.7257,4.8065,4.8935,4.924,4.9442,3.5778,3.5588,3.5588,3.5345,3.4921,3.4921,3.4564,3.4037,0.0,0.0,0.0,3.2856,3.2448,3.1759,3.2107,3.2437,3.2745,3.287,3.2935,3.2976,3.2893,3.2684,3.2365,3.2365,3.2404,3.2463,3.2531,3.2463,3.2419,3.2419,3.2288,3.2025,3.2006,3.1981,3.1937,3.1937,3.2113,3.2506,3.2884,3.276,3.2259,3.2742,3.3089,3.3348,3.3462,3.3598,3.381,3.3827,3.3937,3.4173,3.4314,3.4439,3.4605,3.4812,3.5003,3.51,3.51,3.5018,3.4853,3.5018,3.4936,3.4632,3.4756,3.5044,3.5467,3.4991,3.4714,3.4778,3.4596,3.4705,3.5193,3.5132,3.5234,3.5608,3.6069,3.6319,3.6138,3.6709,3.7069,3.685,3.6973,3.7314,3.7753,3.7645,3.7709,3.8117,3.8051,3.7993,3.8113,3.8485,3.9163,4.0272,4.1313,4.2029,4.2086,4.2481,4.2905,4.3295,4.3764,4.4203,4.4583,4.5031,4.5425,4.5529,4.6029,4.6264,4.6421,4.6552,4.6787,4.72,4.744,4.7681,4.8332,4.8721,4.9068,3.5966,3.5208,3.5208,3.4839,3.4256,3.4256,3.4063,3.3784,3.4069,3.3721,3.2879,3.3083,3.299,3.271,3.2772,3.2982,3.3284,3.3131,3.3182,0.0,3.29,3.2814,3.2943,3.2968,3.2864,3.268,3.2921,3.2896,3.268,3.268,3.2419,3.205,3.2006,3.1893,3.1761,3.1761,3.1761,3.1849,3.2705,3.3128,3.3039,3.3727,3.419,3.4382,3.4109,3.4105,3.4314,3.4272,3.4314,3.4356,3.4397,3.4314,3.4215,3.4256,3.4147,3.3979,3.3937,3.3937,3.3894,3.3911,3.3937,3.3852,3.3894,3.4189,3.4744,3.4744,3.4831,3.5119,3.4916,3.5003,3.5352,3.557,3.5694,3.5617,3.6263,3.6671,3.6671,3.6973,3.712,3.6894,3.6818,3.7032,3.7436,3.7404,3.7541,3.7713,3.7977,3.7893,3.8401,3.8988,3.9458,3.9857,4.0886,4.159,4.172,4.1972,4.2425,4.2961,4.3154,4.3543,4.4148,4.4416,4.4759,4.5422,4.566,4.5895,4.6369,4.6891,4.7179,4.733,4.7702,4.8041,4.7997,4.8198,4.8548,3.4884,3.4397,3.4481,3.4314,3.3852,3.3768,3.3641,3.3556,3.3513,3.3275,3.274,3.2516,3.2281,3.2101,3.238,3.2533,3.2574,3.2685,3.281,3.2982,3.281,3.2766,3.2853,3.2896,3.2766,3.255,3.2661,3.2593,3.2332,3.2332,3.2157,3.1849,3.1849,3.1805,3.1717,3.1717,3.1717,3.1717,3.2156,3.2366,3.2366,3.2832,3.314,3.3401,3.3366,3.3428,3.3683,3.3683,3.3709,3.3683,3.381,3.3938,3.4118,3.4272,3.447,3.4622,3.4605,3.4561,3.443,3.4299,3.4186,3.4186,3.4186,3.4274,3.4448,3.4427,3.4547,3.4868,3.4812,3.4933,3.5264,3.568,3.6038,3.6171,3.6701,3.6998,3.7023,3.7241,3.7453,3.7643,3.7802,3.8031,3.8431,3.8503,3.8521,3.8677,3.8646,3.8711,3.8816,3.9324,3.985,4.009,4.0781,4.1272,4.1402,4.1606,4.1948,4.2231,4.2706,4.3098,4.3572,4.3793,4.4222,4.462,4.5045,4.5541,4.6143,4.683,4.7304,4.778,4.7963,4.8114,4.8055,4.8114,4.8373,3.4023,3.37,3.3937,3.3852,3.3598,3.3495,3.3341,3.324,3.3025,3.2817,3.2559,3.2129,3.187,3.173,3.2089,3.2162,3.2067,3.2222,3.2493,3.2854,3.2686,3.2729,3.2829,3.2773,3.2593,3.2468,3.2523,3.244,3.222,3.2297,3.2257,3.2078,3.2078,3.2006,3.1886,3.1865,3.1837,3.1717,3.1717,3.1717,3.1717,3.1893,3.2069,3.2313,3.255,3.2773,3.3114,3.3183,3.3233,3.3401,3.3575,3.3839,3.4199,3.4426,3.4717,3.5035,3.5085,3.497,3.4791,3.4565,3.4474,3.4474,3.4474,3.4433,3.4442,3.4365,3.4424,3.469,3.4744,3.4902,3.5434,3.5833,3.6304,3.68,3.7145,3.729,3.7313,3.7621,3.7972,3.8355,3.8647,3.9019,3.9323,3.9387,3.9316,3.926,3.9459,3.9419,3.9299,3.9623,4.0069,4.0359,4.0703,4.0918,4.1,4.1115,4.1263,4.1378,4.2118,4.2569,4.2905,4.3376,4.3866,4.416,4.4531,4.5107,4.5783,4.6316,4.6981,4.7534,4.7853,4.7989,4.8172,4.8114,4.8198,3.4187,3.3751,3.3725,3.3598,3.3436,3.3439,3.3214,3.2791,3.255,3.2525,3.2642,3.2642,3.2567,3.2574,3.2451,3.2345,3.2326,3.2157,3.2514,3.3281,3.2753,3.2778,3.3325,3.2903,3.2593,3.2493,3.2867,3.2906,3.2706,3.3123,3.3322,3.3186,3.314,3.2875,3.2491,3.2418,3.2178,3.1717,3.1717,3.1717,3.1717,3.1893,3.2025,3.2025,3.2313,3.2665,3.3202,3.338,3.3692,3.4139,3.439,3.4485,3.4309,3.4334,3.4313,3.4206,3.416,3.4089,3.4114,3.4044,3.4093,3.4044,3.4093,3.4315,3.4711,3.4758,3.478,3.4831,3.4831,3.525,3.6112,3.6333,3.6628,3.712,3.7407,3.7545,3.7691,3.8258,3.8641,3.8316,3.8816,3.9038,3.8957,3.8948,3.8925,3.9051,3.9358,3.9514,3.9504,3.9776,4.0082,4.0163,4.0257,4.0281,4.0339,4.0281,4.0513,4.0803,4.132,4.1866,4.24,4.2986,4.3619,4.404,4.4207,4.4468,4.514,4.5567,4.5844,4.6881,4.7366,4.7565,4.8015,4.7997,4.7997,3.37,3.3343,3.3471,3.33,3.3057,3.3339,3.3132,3.2531,3.2444,3.2419,3.2463,3.2332,3.2394,3.268,3.2332,3.2328,3.2645,3.2378,3.2759,3.3444,3.2934,3.2901,3.3247,3.2753,3.2487,3.24,3.2621,3.2587,3.2439,3.272,3.3063,3.326,3.3284,3.3164,3.2947,3.2659,3.2539,3.2656,3.2322,3.2298,3.2584,3.2412,3.2333,3.2491,3.2893,3.3297,3.3654,3.3769,3.3913,3.4111,3.4226,3.4375,3.4604,3.4604,3.473,3.4908,3.4815,3.4721,3.4721,3.4579,3.4459,3.4484,3.4484,3.4702,3.5211,3.526,3.5381,3.5697,3.577,3.599,3.6552,3.6918,3.7211,3.7478,3.7952,3.8302,3.8326,3.8683,3.9014,3.9213,3.9282,3.9396,3.9518,3.9612,3.9612,3.9612,3.9742,3.9778,3.9732,3.9838,3.9873,3.972,3.9661,3.9837,4.0048,4.0165,4.0223,4.0363,4.0976,4.172,4.1777,4.2569,4.3285,4.368,4.367,4.3878,4.4648,4.4976,4.5278,4.6289,4.7153,4.762,4.7854,4.7938,4.7997,3.3694,3.3564,3.3651,3.3258,3.2643,3.3118,3.2911,3.2337,3.2269,3.2342,3.2465,3.2269,3.243,3.2838,3.2361,3.2426,3.2886,3.2798,3.3134,3.3681,3.3123,3.2946,3.3199,3.2631,3.2269,3.225,3.2543,3.2702,3.2765,3.3015,3.3332,3.3669,3.3717,3.3621,3.3452,3.3092,3.3044,3.3212,3.2899,3.2899,3.3188,3.3044,3.2897,3.2983,3.3298,3.3657,3.3988,3.4105,3.4154,3.4348,3.4394,3.4566,3.4911,3.4936,3.5013,3.521,3.5066,3.492,3.4896,3.4701,3.47,3.4869,3.4893,3.5158,3.5663,3.5833,3.6074,3.6558,3.6741,3.6891,3.6909,3.7418,3.7758,3.7923,3.8557,3.8899,3.8868,3.9078,3.9329,3.9547,3.9565,3.965,3.9896,3.9884,3.9861,3.9803,3.9908,3.9896,3.972,3.9661,3.9544,3.9308,3.9308,3.9485,3.9873,3.9873,3.9837,4.0013,4.0629,4.132,4.1263,4.2231,4.2986,4.3336,4.329,4.3397,4.3832,4.4178,4.4843,4.593,4.685,4.7522,4.7736,4.7971,4.8055,3.465,3.458,3.4424,3.3578,3.2449,3.2719,3.2556,3.2098,3.1874,3.214,3.2734,3.2602,3.2868,3.3438,3.2844,3.2825,3.3258,3.326,3.3618,3.4216,3.3317,3.3074,3.3509,3.2536,3.1942,3.2023,3.275,3.362,3.4463,3.4607,3.4679,3.4679,3.4607,3.4438,3.4006,3.3886,3.3694,3.3428,3.3308,3.3284,3.338,3.3718,3.3717,3.3403,3.3355,3.362,3.3981,3.4242,3.4603,3.5114,3.5281,3.5378,3.5187,3.5162,3.4921,3.4531,3.4482,3.4359,3.4259,3.4209,3.4497,3.5099,3.522,3.5509,3.624,3.6362,3.6627,3.7132,3.7593,3.7718,3.7372,3.7757,3.8214,3.8647,3.8902,3.907,3.9094,3.9288,3.9286,3.9278,3.9488,3.9627,3.9403,3.9367,3.9426,3.9426,3.9367,3.9367,3.9426,3.9367,3.9308,3.9308,3.9308,3.9308,3.9367,3.9485,3.9426,3.9626,4.0352,4.1163,4.1573,4.2004,4.2619,4.3062,4.3243,4.3325,4.3174,4.3594,4.4407,4.54,4.6457,4.7095,4.7652,4.7997,4.8192,3.4049,3.3756,3.4057,3.3383,3.2211,3.2629,3.2616,3.2337,3.2247,3.2445,3.2831,3.2949,3.3238,3.3623,3.3409,3.3456,3.3718,3.3718,3.4101,3.4535,3.3908,3.3666,3.3739,3.3112,3.2798,3.2825,3.3116,3.3645,3.4198,3.427,3.4462,3.4775,3.4775,3.4679,3.4486,3.415,3.4054,3.4222,3.3958,3.3933,3.4222,3.4414,3.4414,3.4294,3.427,3.4366,3.4486,3.4583,3.4727,3.492,3.5017,3.5017,3.492,3.4775,3.4628,3.4433,3.431,3.4304,3.4487,3.4534,3.4869,3.5595,3.5717,3.6033,3.672,3.694,3.7276,3.8046,3.8383,3.8449,3.8472,3.8616,3.8807,3.899,3.914,3.9278,3.9339,3.9544,3.964,3.9546,3.9533,3.9426,3.9367,3.9308,3.9308,3.9308,3.9308,3.9308,3.9308,3.9308,3.9249,3.9108,3.919,3.9364,3.9491,3.935,3.939,3.9659,4.02,4.0846,4.1303,4.2525,4.3309,4.3432,4.3579,4.384,4.3897,4.4174,4.4839,4.5399,4.6404,4.6953,4.7652,4.7957,4.8316,3.3731,3.3371,3.3518,3.2987,3.2015,3.2495,3.2602,3.2515,3.2592,3.2859,3.3218,3.3408,3.3601,3.3862,3.3934,3.3934,3.4054,3.4126,3.439,3.4703,3.4222,3.4006,3.391,3.3525,3.3284,3.3308,3.3477,3.3789,3.4198,3.4246,3.4438,3.4775,3.4775,3.4775,3.4703,3.4414,3.4438,3.4703,3.4438,3.4438,3.4751,3.4775,3.4775,3.4775,3.4775,3.4775,3.4775,3.4775,3.4775,3.4775,3.4775,3.4775,3.4677,3.4482,3.4335,3.4211,3.4179,3.429,3.4517,3.4703,3.5207,3.6038,3.6161,3.6526,3.7536,3.7709,3.819,3.8785,3.9139,3.9213,3.9308,3.9353,3.9288,3.9273,3.94,3.9533,3.9499,3.957,3.9638,3.9579,3.9403,3.9308,3.9167,3.9108,3.9072,3.9012,3.9012,3.9012,3.9012,3.9012,3.8953,3.8775,3.8993,3.928,3.9575,3.9628,3.9914,4.0163,4.0522,4.0984,4.1507,4.2793,4.3605,4.3757,4.4085,4.4411,4.4744,4.502,4.5364,4.5767,4.6162,4.666,4.7339,4.7969,4.8432,3.386,3.3557,3.3047,3.2523,3.1982,3.2325,3.2539,3.2616,3.2814,3.3244,3.3768,3.3792,3.3885,3.4216,3.424,3.4262,3.4141,3.4215,3.4483,3.4678,3.4294,3.4054,3.403,3.3669,3.3525,3.3573,3.3838,3.4342,3.4895,3.4919,3.4895,3.4847,3.4943,3.4991,3.4823,3.4847,3.4847,3.4823,3.4751,3.4751,3.4775,3.4775,3.4775,3.4775,3.4775,3.4775,3.4775,3.4775,3.4775,3.4775,3.4775,3.4677,3.4433,3.4335,3.4162,3.3933,3.4133,3.4236,3.4221,3.4607,3.5329,3.6285,3.6438,3.7151,3.8311,3.8635,3.8929,3.9371,3.9634,3.9774,3.9779,3.9789,3.9651,3.9578,3.9628,3.9686,3.9674,3.9462,3.9308,3.9285,3.9249,3.9108,3.893,3.8812,3.8716,3.8559,3.85,3.85,3.8559,3.8559,3.844,3.8447,3.8814,3.9228,3.9598,3.9946,4.0418,4.0762,4.1205,4.1616,4.1784,4.2723,4.3397,4.3698,4.4378,4.4768,4.5171,4.5397,4.5522,4.5876,4.6104,4.6679,4.7521,4.8283,4.8677,3.4269,3.3836,3.3527,3.3074,3.2551,3.2509,3.2723,3.3055,3.3149,3.3383,3.3758,3.3926,3.3972,3.3941,3.3915,3.3988,3.4064,3.4014,3.4162,3.4482,3.4364,3.4389,3.451,3.4414,3.4535,3.4919,3.5425,3.5737,3.5857,3.5881,3.593,3.5905,3.5905,3.5905,3.5833,3.5569,3.5376,3.5328,3.4967,3.4775,3.4775,3.4775,3.4775,3.4775,3.4775,3.4775,3.4775,3.4775,3.4775,3.4775,3.4628,3.4384,3.4211,3.4014,3.403,3.4156,3.4093,3.4475,3.4969,3.5221,3.5864,3.689,3.7317,3.7809,3.8564,3.8904,3.9118,3.9424,3.9547,3.9622,3.9767,3.9803,3.9767,3.9686,3.9569,3.9485,3.9426,3.9167,3.899,3.893,3.8775,3.8656,3.8537,3.8537,3.8477,3.838,3.838,3.838,3.838,3.832,3.8261,3.8163,3.8685,3.9299,3.982,4.0366,4.0933,4.1234,4.1646,4.1823,4.2055,4.2579,4.315,4.3893,4.4582,4.5087,4.547,4.5748,4.5874,4.6285,4.6854,4.7485,4.817,4.8643,4.898,3.4031,3.3839,3.341,3.3126,3.2912,3.2818,3.2982,3.3263,3.3426,3.3586,3.3843,3.3915,3.3889,3.3764,3.3854,3.3997,3.407,3.4082,3.435,3.4631,3.4568,3.4714,3.503,3.5226,3.5469,3.5881,3.6242,3.6411,3.6411,3.6411,3.6411,3.6411,3.6411,3.6386,3.6386,3.6098,3.5905,3.5857,3.5593,3.5328,3.516,3.5136,3.4967,3.4823,3.4775,3.4871,3.5039,3.5136,3.5112,3.5111,3.4984,3.4854,3.4551,3.4373,3.4337,3.4439,3.4613,3.4877,3.5474,3.5972,3.6572,3.7496,3.7973,3.8468,3.8948,3.9258,3.9302,3.9635,3.9661,3.9604,3.9791,3.9684,3.9567,3.9426,3.9344,3.9249,3.9108,3.8812,3.8633,3.8656,3.8537,3.838,3.8261,3.8201,3.8178,3.8058,3.7998,3.8081,3.7998,3.7998,3.7923,3.8083,3.8569,3.9303,4.0083,4.0761,4.1443,4.1742,4.1971,4.2028,4.2131,4.2786,4.3402,4.4218,4.495,4.5374,4.576,4.604,4.6225,4.6874,4.7363,4.7698,4.8121,4.8687,4.9102,3.3315,3.36,3.2889,3.2818,3.3007,3.317,3.3262,3.3355,3.3534,3.3744,3.3915,3.386,3.3761,3.3854,3.4198,3.4305,3.417,3.4515,3.4849,3.5039,3.4988,3.5094,3.5506,3.5805,3.603,3.6306,3.6453,3.6477,3.6521,3.6573,3.6456,3.6576,3.66,3.6531,3.6576,3.6456,3.6357,3.6282,3.6312,3.6023,3.5639,3.5665,3.5473,3.504,3.504,3.5232,3.5593,3.5737,3.5687,3.5637,3.5696,3.553,3.5258,3.5149,3.4976,3.4883,3.5267,3.5497,3.5849,3.6633,3.751,3.7965,3.8474,3.9042,3.9571,3.9518,3.9567,3.9907,3.9826,3.9697,3.9661,3.9485,3.919,3.8871,3.9012,3.9012,3.8812,3.8537,3.8358,3.838,3.838,3.8238,3.7878,3.7878,3.7758,3.7555,3.7495,3.7555,3.7555,3.7621,3.7697,3.8047,3.8565,3.9339,4.0137,4.0628,4.1328,4.1924,4.2138,4.2051,4.2115,4.2776,4.3326,4.4175,4.4976,4.5489,4.5914,4.6059,4.6566,4.7216,4.7529,4.7691,4.823,4.8985,4.9376,3.4027,3.395,3.3539,3.342,3.3443,3.3386,3.3284,3.3307,3.3373,3.3515,3.3561,3.3811,3.3973,3.3968,3.4452,3.4653,3.4647,3.4762,3.5037,3.5373,3.538,3.5439,3.5676,3.6067,3.6336,3.6436,3.6748,3.6879,3.6932,3.7073,3.7202,3.7273,3.7335,3.7383,3.7302,3.6868,3.6621,3.637,3.6193,3.6081,3.5989,3.6093,3.6146,3.6026,3.5903,3.5975,3.6242,3.6579,3.6374,3.5659,3.5652,3.5437,3.5063,3.5034,3.5143,3.5359,3.5497,3.5995,3.678,3.7118,3.7636,3.8557,3.8858,3.9069,3.9406,3.9651,3.9663,3.9603,3.9485,3.9426,3.9367,3.9131,3.8812,3.8596,3.8596,3.8596,3.8477,3.8238,3.7998,3.7998,3.7818,3.7637,3.7555,3.7495,3.7435,3.7374,3.7314,3.7374,3.7314,3.7423,3.7619,3.8073,3.8613,3.9409,4.0148,4.0637,4.1184,4.1975,4.2166,4.2038,4.2143,4.2443,4.2949,4.3553,4.4237,4.473,4.5428,4.5853,4.6609,4.7319,4.7657,4.7931,4.8976,4.9786,4.9861,3.4113,3.4064,3.3668,3.3568,3.3668,3.3442,3.3292,3.3338,3.3499,3.3591,3.3706,3.4119,3.4326,3.4395,3.4854,3.5083,3.5129,3.5313,3.5588,3.5772,3.5818,3.5948,3.6127,3.6467,3.659,3.672,3.6949,3.7096,3.712,3.7304,3.7358,3.7388,3.7572,3.7518,3.734,3.7281,3.7038,3.6938,3.6787,3.6729,3.6411,3.649,3.6272,3.6176,3.6077,3.6176,3.6566,3.7096,3.6935,3.619,3.6109,3.5987,3.5511,3.5428,3.5657,3.6094,3.6271,3.6749,3.7474,3.7821,3.8328,3.8919,3.9175,3.9395,3.9474,3.9626,3.9485,3.9367,3.9167,3.9108,3.899,3.8693,3.8418,3.8178,3.8058,3.8081,3.8178,3.7878,3.7698,3.7637,3.7396,3.7214,3.7193,3.7071,3.7011,3.695,3.6889,3.7011,3.7154,3.7306,3.7732,3.8211,3.8772,3.9613,4.0243,4.0664,4.0884,4.1614,4.202,4.187,4.2084,4.2275,4.2696,4.3137,4.3615,4.4199,4.5049,4.5784,4.6425,4.7084,4.7558,4.8322,4.928,4.9838,4.9964,3.3817,3.4038,3.3419,3.3369,3.3592,3.3388,3.3357,3.3476,3.3889,3.4096,3.4211,3.4647,3.4854,3.49,3.5359,3.5588,3.5611,3.5956,3.614,3.6208,3.6263,3.6302,3.6495,3.6518,3.6673,3.6858,3.7012,3.6958,3.6958,3.7036,3.7089,3.7089,3.7143,3.7089,3.7143,3.7334,3.7489,3.7418,3.7482,3.7321,3.6901,3.683,3.6611,3.6143,3.602,3.6289,3.6777,3.7234,3.7169,3.6549,3.6902,3.6727,3.6363,3.6323,3.6631,3.7054,3.7336,3.7623,3.8042,3.8801,3.9242,3.9175,3.9488,3.9743,3.9626,3.9426,3.9249,3.9167,3.893,3.8752,3.8633,3.8238,3.7998,3.7878,3.7577,3.7577,3.7637,3.7495,3.7374,3.7314,3.7032,3.6871,3.6789,3.6606,3.6423,3.6688,3.6753,3.6964,3.7154,3.7431,3.7984,3.8649,3.9189,3.9732,4.0274,4.069,4.0906,4.1229,4.1614,4.1742,4.1998,4.2275,4.2593,4.2949,4.3326,4.4022,4.5035,4.5724,4.6303,4.7085,4.7733,4.8434,4.9138,4.9418,4.9609,3.3542,3.3741,3.2695,3.2695,3.3288,3.3277,3.3487,3.3889,3.4395,3.4624,3.4739,3.5152,3.5359,3.5382,3.5841,3.6117,3.6071,3.6208,3.6254,3.6254,3.6254,3.6309,3.6363,3.6332,3.6386,3.644,3.6495,3.6495,3.6495,3.6526,3.6766,3.6742,3.685,3.6982,3.685,3.7036,3.7089,3.6982,3.7173,3.7233,3.7163,3.7222,3.7098,3.6667,3.6667,3.6784,3.6985,3.7126,3.723,3.7232,3.7216,3.7131,3.6971,3.7095,3.7437,3.7831,3.805,3.8428,3.8928,3.8954,3.9047,3.9511,3.9451,3.9367,3.9367,3.9108,3.893,3.8871,3.8656,3.8418,3.8178,3.7998,3.7818,3.7577,3.7435,3.7335,3.7154,3.7032,3.7032,3.6911,3.6728,3.6484,3.6484,3.6465,3.6404,3.6425,3.6638,3.6933,3.723,3.7464,3.8101,3.8849,3.9152,3.9606,4.0061,4.0453,4.0647,4.0906,4.1229,4.1614,4.187,4.2148,4.2402,4.2696,4.3012,4.3796,4.4601,4.5624,4.6179,4.7059,4.7794,4.8266,4.8654,4.8935,4.9229,3.3469,3.3396,3.2846,3.2853,3.3232,3.3504,3.3885,3.4389,3.4923,3.5129,3.5244,3.5657,3.5864,3.5887,3.614,3.6254,3.62,3.5982,3.6036,3.6036,3.5817,3.5598,3.5763,3.5653,3.5543,3.584,3.5872,3.5763,3.5598,3.5653,3.574,3.6091,3.6254,3.6363,3.6526,3.6843,3.6874,3.682,3.6958,3.7036,3.6982,3.7089,3.7036,3.682,3.6766,3.6859,3.7278,3.7442,3.7692,3.7895,3.7903,3.7746,3.7669,3.7794,3.8106,3.8501,3.8617,3.8849,3.9163,3.9291,3.929,3.9521,3.9367,3.9249,3.9108,3.8871,3.8752,3.8596,3.8358,3.8058,3.7698,3.7698,3.7577,3.7435,3.7253,3.7093,3.6911,3.6911,3.6789,3.6667,3.6361,3.6239,3.6178,3.6264,3.6309,3.6289,3.6666,3.696,3.7276,3.7636,3.8231,3.8766,3.898,3.9346,3.9779,4.0149,4.0323,4.0582,4.0971,4.1357,4.1742,4.1934,4.2148,4.2443,4.2759,4.3121,4.3891,4.4914,4.589,4.6504,4.7057,4.7626,4.8164,4.8506,4.8832,3.3542,3.3388,3.3334,3.3328,3.3479,3.3821,3.4204,3.4651,3.5169,3.5137,3.5344,3.5831,3.5749,3.5982,3.5927,3.5982,3.5872,3.5543,3.5488,3.5653,3.5024,3.5058,3.5235,3.5113,3.5011,3.528,3.5279,3.4991,3.4692,3.4547,3.5169,3.549,3.5568,3.6112,3.653,3.678,3.706,3.7161,3.7271,3.7302,3.7068,3.7022,3.6797,3.6549,3.6656,3.6951,3.7441,3.7769,3.8161,3.8686,3.8733,3.869,3.8591,3.8431,3.8617,3.9082,3.9128,3.9256,3.9394,3.9498,3.9521,3.9249,3.9249,3.9072,3.8812,3.8633,3.8455,3.8298,3.8021,3.7698,3.7435,3.7314,3.7314,3.7253,3.7032,3.6832,3.6814,3.6814,3.6545,3.6383,3.6202,3.6101,3.6039,3.6081,3.6164,3.6266,3.666,3.6993,3.7376,3.7801,3.8399,3.8829,3.9064,3.9301,3.9713,3.9757,3.9931,4.0388,4.0712,4.1035,4.1486,4.1614,4.1829,4.2212,4.2529,4.2892,4.3435,4.4397,4.5206,4.5814,4.6376,4.6964,4.7474,4.8028,4.8303,3.37,3.412,3.3481,3.3724,3.438,3.4075,3.3999,3.4154,3.4613,3.445,3.4229,3.4604,3.488,3.4858,3.4803,3.4803,3.4936,3.4769,3.4791,3.4924,3.4556,3.4687,3.5115,3.4989,3.4991,3.4963,3.4845,3.4622,3.4522,3.4547,3.4931,3.5714,3.5927,3.6443,3.7165,3.7798,3.7771,3.7725,3.7804,3.7804,3.7702,3.747,3.7145,3.678,3.7067,3.7377,3.7595,3.7999,3.8474,3.886,3.8907,3.9162,3.9268,3.9082,3.9175,3.9477,3.9534,3.9545,3.9521,3.9426,3.9226,3.899,3.8871,3.8775,3.8477,3.8238,3.8118,3.7938,3.7698,3.7435,3.7374,3.7154,3.6993,3.6911,3.6731,3.6635,3.66,3.6517,3.6285,3.6225,3.6144,3.6144,3.6227,3.6288,3.6537,3.6742,3.7115,3.7322,3.7556,3.8047,3.8648,3.8951,3.9146,3.9386,3.9691,3.956,3.9604,4.0149,4.0517,4.0647,4.0971,4.1229,4.1508,4.1956,4.2385,4.2795,4.3385,4.4088,4.4681,4.5365,4.5841,4.6251,4.6687,4.7167,4.745,3.4101,3.418,3.4045,3.414,3.4249,3.4279,3.425,3.424,3.4438,3.436,3.4272,3.4382,3.4469,3.4469,3.4469,3.4469,3.4435,3.4099,3.4341,3.4606,3.4318,3.4382,3.4962,3.4831,3.4609,3.4475,3.4334,3.4316,3.4316,3.428,3.4769,3.5402,3.5813,3.6461,3.7212,3.769,3.7986,3.8042,3.8042,3.8019,3.8019,3.7765,3.7488,3.7498,3.7678,3.7934,3.8202,3.8647,3.9091,3.9372,3.9407,3.957,3.9581,3.9441,3.9325,3.9638,3.9626,3.9426,3.9308,3.9108,3.8871,3.8656,3.8596,3.8418,3.8178,3.7998,3.7818,3.7616,3.7555,3.7314,3.7154,3.6993,3.6918,3.6927,3.6723,3.6707,3.6834,3.6728,3.6561,3.6352,3.6247,3.635,3.6535,3.6701,3.6929,3.7239,3.757,3.7715,3.7798,3.8208,3.8769,3.888,3.9078,3.9276,3.9494,3.9494,3.9538,4.0018,4.0344,4.0453,4.0647,4.0971,4.1357,4.187,4.228,4.2604,4.3113,4.3729,4.4343,4.4919,4.5597,4.6002,4.6029,4.6229,4.6616,3.4365,3.3931,3.4445,3.4387,3.4043,3.4251,3.4274,3.4205,3.409,3.4013,3.4004,3.4035,3.4099,3.4099,3.4099,3.4121,3.4207,3.3707,3.4154,3.4553,3.4096,3.4114,3.4568,3.4575,3.4399,3.4646,3.4523,3.4238,3.4146,3.4125,3.4487,3.5184,3.5734,3.6326,3.7135,3.7791,3.7919,3.8091,3.8091,3.8068,3.7976,3.793,3.7885,3.7895,3.8225,3.8617,3.87,3.9278,3.9569,3.9698,3.9697,3.9661,3.9567,3.9367,3.9308,3.9426,3.9308,3.9072,3.8812,3.8752,3.8596,3.8298,3.832,3.8118,3.7878,3.7758,3.7698,3.7435,3.7314,3.7214,3.6993,3.6896,3.6865,3.6873,3.6834,3.6813,3.7125,3.7205,3.7138,3.691,3.6577,3.6639,3.6929,3.7053,3.726,3.755,3.7902,3.7943,3.8071,3.8378,3.8769,3.888,3.9012,3.9078,3.9297,3.9428,3.967,4.0149,4.0344,4.0409,4.0582,4.0777,4.1251,4.1704,4.1956,4.2303,4.2834,4.3396,4.3943,4.4608,4.5439,4.5745,4.5748,4.5838,4.617,3.3917,3.3621,3.4163,3.4406,3.4316,3.3935,3.3463,3.3159,3.3071,3.2648,3.2588,3.2767,3.3012,3.3012,3.2991,3.3221,3.3393,3.3497,3.3726,3.4202,3.4049,3.4217,3.4752,3.4793,3.4737,3.4881,3.5087,3.4776,3.4383,3.4217,3.464,3.5431,3.5776,3.6443,3.7577,3.7873,3.8535,3.8984,3.902,3.8813,3.8492,3.8366,3.8194,3.8228,3.871,3.9161,3.9094,3.9639,3.9978,3.9697,3.9485,3.9226,3.899,3.8871,3.8716,3.8716,3.8716,3.8775,3.8477,3.8418,3.8298,3.7998,3.7938,3.7758,3.7637,3.7561,3.7583,3.7435,3.7219,3.7062,3.6985,3.6786,3.6728,3.6792,3.6875,3.7058,3.7366,3.7514,3.7488,3.7591,3.7301,3.7281,3.7425,3.7508,3.7612,3.7902,3.815,3.8171,3.8325,3.857,3.8769,3.8814,3.9078,3.9231,3.9428,3.9494,3.9822,4.0214,4.0367,4.0454,4.065,4.0825,4.1084,4.1495,4.1772,4.2321,4.3036,4.3533,4.3805,4.4374,4.5108,4.5364,4.5414,4.5572,4.5775,3.3623,3.3529,3.3604,3.378,3.3901,3.345,3.305,3.2818,3.2737,3.2566,3.2421,3.2566,3.2669,3.269,3.2669,3.286,3.3073,3.3176,3.3448,3.386,3.4003,3.4207,3.4472,3.4574,3.4737,3.4902,3.5025,3.4944,3.4635,3.4756,3.5166,3.5493,3.5921,3.6349,3.7374,3.7616,3.7856,3.8074,3.8194,3.8127,3.803,3.8081,3.8168,3.8118,3.9082,3.9326,3.936,3.9768,3.9814,3.9426,3.9049,3.8871,3.8656,3.8537,3.8418,3.8178,3.8238,3.8238,3.8118,3.8141,3.7938,3.7758,3.7637,3.7577,3.75,3.7636,3.7667,3.7505,3.7641,3.7479,3.7189,3.7024,3.7086,3.7124,3.7161,3.7429,3.7674,3.7715,3.7819,3.7943,3.8026,3.7881,3.7777,3.7839,3.786,3.8005,3.8171,3.8237,3.8304,3.8503,3.8681,3.8814,3.9165,3.9428,3.9625,3.9757,3.9975,4.0367,4.0694,4.0716,4.0869,4.1023,4.1286,4.1573,4.1948,4.259,4.3324,4.3722,4.388,4.4359,4.4841,4.5094,4.5415,4.5415,4.5663,3.2976,3.3116,3.3084,3.32,3.3346,3.3008,3.279,3.2706,3.2669,3.2669,3.2669,3.269,3.2731,3.2814,3.2839,3.2953,3.3328,3.3189,3.3537,3.3902,3.4042,3.4183,3.4469,3.4528,3.4465,3.4485,3.4859,3.4922,3.5129,3.5253,3.5335,3.5418,3.5786,3.6218,3.6524,3.6911,3.7253,3.7555,3.7555,3.7473,3.7511,3.7774,3.8014,3.8373,3.899,3.9403,3.9249,3.9521,3.9344,3.893,3.8693,3.8596,3.8298,3.8238,3.8118,3.7878,3.7818,3.7796,3.7818,3.7758,3.7637,3.7539,3.7488,3.7514,3.7558,3.7823,3.7981,3.7691,3.7696,3.7657,3.7466,3.7316,3.7353,3.7452,3.755,3.786,3.8067,3.8005,3.7984,3.8046,3.8109,3.815,3.8088,3.8129,3.815,3.8171,3.8258,3.8258,3.837,3.8549,3.8615,3.8747,3.8835,3.9165,3.9494,3.9757,4.004,4.052,4.0847,4.1087,4.1197,4.1395,4.1661,4.1926,4.2258,4.2817,4.3531,4.3775,4.402,4.4614,4.5117,4.53,4.5438,4.5438,4.5483,3.1774,3.2149,3.2704,3.2867,3.2763,3.2706,3.2742,3.2669,3.2669,3.269,3.2731,3.2731,3.3,3.3186,3.3176,3.3368,3.4126,3.3862,3.4023,3.4368,3.457,3.4425,3.4423,3.4423,3.4423,3.4673,3.4735,3.4922,3.5232,3.5108,3.5294,3.5418,3.5541,3.5932,3.6178,3.6423,3.6728,3.7011,3.7071,3.7132,3.7253,3.7495,3.7758,3.7976,3.8455,3.8752,3.8477,3.8871,3.8871,3.8477,3.8358,3.8178,3.7878,3.7818,3.7698,3.7517,3.7517,3.7495,3.7456,3.7517,3.7456,3.7444,3.7479,3.7576,3.7601,3.7718,3.7826,3.7806,3.7869,3.7613,3.7505,3.7415,3.7618,3.7698,3.7839,3.7984,3.815,3.815,3.8129,3.8171,3.8191,3.8212,3.8253,3.8253,3.8191,3.8191,3.8304,3.837,3.8437,3.857,3.8615,3.8615,3.8503,3.8769,3.9231,3.9558,4.0126,4.0671,4.1153,4.1415,4.1612,4.1832,4.2163,4.2208,4.2544,4.3107,4.3602,4.3872,4.43,4.5026,4.5415,4.5438,4.5438,4.5438,4.5438,3.2313,3.2457,3.2684,3.2731,3.2706,3.238,3.2421,3.2649,3.2669,3.2892,3.3083,3.3235,3.3461,3.3644,3.3469,3.3536,3.3902,3.3656,3.3813,3.3865,3.3859,3.3859,3.3922,3.3922,3.3859,3.4067,3.4193,3.4298,3.4423,3.4797,3.4922,3.5046,3.5314,3.5479,3.5747,3.5849,3.6034,3.6095,3.6218,3.6218,3.6218,3.6524,3.6828,3.7314,3.7916,3.8298,3.8418,3.8693,3.8477,3.8178,3.7878,3.7637,3.7396,3.7335,3.7214,3.7154,3.7275,3.7275,3.7154,3.7236,3.7444,3.7526,3.7557,3.7649,3.7739,3.7997,3.8017,3.7994,3.8033,3.7966,3.7892,3.7885,3.7943,3.7984,3.8067,3.8191,3.8212,3.8233,3.8191,3.8212,3.8253,3.8295,3.8336,3.8357,3.8253,3.8258,3.837,3.8524,3.8608,3.872,3.8741,3.8678,3.8611,3.8919,3.9382,3.9817,4.0231,4.0865,4.1481,4.1786,4.2092,4.2529,4.2795,4.2823,4.2872,4.3348,4.3733,4.4096,4.4482,4.5028,4.5278,4.5438,4.5438,4.5438,4.5438,3.2752,3.2913,3.2876,3.2934,3.2871,3.2468,3.2534,3.2905,3.2871,3.2974,3.3302,3.3393,3.3677,3.3818,3.3679,3.3619,3.3715,3.3525,3.3497,3.3529,3.3544,3.3481,3.352,3.3681,3.3862,3.3804,3.393,3.4203,3.4475,3.4503,3.463,3.49,3.5293,3.5521,3.5418,3.5418,3.5438,3.5418,3.5418,3.5418,3.5479,3.5788,3.6095,3.6646,3.7132,3.7456,3.7637,3.7736,3.7676,3.7456,3.7214,3.7032,3.685,3.6728,3.6728,3.685,3.6911,3.6972,3.6911,3.6954,3.7187,3.7369,3.7483,3.7593,3.7869,3.8185,3.8199,3.8109,3.8315,3.8437,3.8191,3.8129,3.8109,3.8109,3.8357,3.8481,3.8357,3.8316,3.8253,3.8233,3.8357,3.8543,3.8647,3.8709,3.8709,3.8585,3.8569,3.874,3.8927,3.8958,3.8883,3.8866,3.8828,3.9181,3.9687,3.9944,4.0378,4.1453,4.2005,4.2311,4.266,4.3032,4.3184,4.3035,4.3222,4.3606,4.3883,4.4207,4.4595,4.4937,4.5142,4.537,4.5438,4.5438,4.5438,3.2975,3.3348,3.3368,3.3368,3.341,3.2998,3.3105,3.3391,3.3194,3.3095,3.3215,3.3256,3.3498,3.376,3.3636,3.3651,3.3723,3.3591,3.3505,3.365,3.3598,3.3666,3.3804,3.4,3.4191,3.4512,3.4433,3.4521,3.4939,3.4788,3.4669,3.4979,3.56,3.5935,3.55,3.5438,3.5438,3.5459,3.5521,3.55,3.5562,3.5727,3.5911,3.6156,3.6423,3.6667,3.685,3.6911,3.685,3.6728,3.6606,3.6484,3.6423,3.6423,3.6423,3.6484,3.6484,3.6484,3.6465,3.6444,3.6784,3.7231,3.7466,3.7655,3.7903,3.8169,3.82,3.8138,3.8283,3.8258,3.8191,3.8191,3.8191,3.8357,3.8605,3.8703,3.8647,3.8647,3.8667,3.8647,3.875,3.8807,3.8951,3.9123,3.9164,3.9081,3.8895,3.8978,3.9206,3.9464,3.9551,3.9399,3.934,3.9717,4.0158,4.0088,4.0544,4.1733,4.2464,4.2704,4.2879,4.3097,4.3184,4.3184,4.3324,4.3511,4.3927,4.4319,4.4663,4.5006,4.5142,4.5301,4.537,4.537,4.5301,3.3244,3.341,3.3699,3.4069,3.4217,3.3651,3.3452,3.3555,3.3397,3.3355,3.3557,3.3574,3.3835,3.3995,3.3808,3.3701,3.3757,3.3544,3.3544,3.3583,3.3735,3.3892,3.4113,3.4367,3.4557,3.4524,3.4491,3.4556,3.4798,3.4832,3.5127,3.5416,3.6049,3.641,3.639,3.6328,3.6349,3.6287,3.6101,3.5873,3.5832,3.5707,3.5685,3.587,3.6055,3.6116,3.63,3.63,3.63,3.63,3.6178,3.6116,3.6116,3.6116,3.6239,3.6444,3.6566,3.6777,3.6807,3.6833,3.6981,3.7382,3.7613,3.7817,3.81,3.8113,3.8171,3.8212,3.8253,3.8233,3.8191,3.8212,3.8274,3.8605,3.8786,3.8972,3.9061,3.9206,3.9268,3.9247,3.922,3.9261,3.9433,3.9682,3.9744,3.9772,3.9606,3.9413,3.9537,4.0161,4.0448,4.0244,4.0202,4.0473,4.0629,4.0736,4.1065,4.2083,4.2704,4.2988,4.3141,4.3184,4.3184,4.3184,4.3324,4.3372,4.3927,4.448,4.48,4.5074,4.5074,4.5074,4.5074,4.5006,4.4937,3.3634,3.3886,3.4176,3.4526,3.4693,3.4002,3.3639,3.3517,3.3386,3.3443,3.3627,3.3677,3.3839,3.3902,3.3859,3.3733,3.367,3.3544,3.3594,3.3652,3.3926,3.425,3.457,3.4773,3.5034,3.4975,3.4812,3.4792,3.5034,3.4882,3.5311,3.6111,3.6664,3.7027,3.705,3.7032,3.6618,3.6432,3.6142,3.5956,3.579,3.5583,3.5479,3.5665,3.5726,3.5809,3.587,3.5993,3.6014,3.5953,3.5953,3.587,3.5932,3.6076,3.6262,3.6593,3.6869,3.7061,3.7087,3.7147,3.7356,3.7783,3.7884,3.7978,3.8134,3.8171,3.8316,3.8378,3.8378,3.8523,3.8585,3.8564,3.873,3.8993,3.9199,3.9475,3.9385,3.9509,3.9682,3.9682,3.9765,3.9806,3.993,4.0179,4.0365,4.0373,4.041,4.0124,3.9979,4.045,4.0938,4.0779,4.0647,4.0789,4.1147,4.1478,4.1921,4.2569,4.2944,4.3228,4.3184,4.3184,4.3184,4.3254,4.3324,4.3511,4.4066,4.4548,4.4732,4.48,4.4732,4.4732,4.48,4.4732,4.4594,3.3948,3.4693,3.4837,3.4776,3.4715,3.4106,3.3711,3.3442,3.3461,3.3461,3.3481,3.3524,3.3544,3.3481,3.3481,3.3418,3.354,3.3476,3.3711,3.4068,3.4303,3.4713,3.5113,3.5422,3.5599,3.5705,3.5493,3.5156,3.5399,3.5521,3.6002,3.6664,3.7115,3.7476,3.7587,3.7405,3.6929,3.6763,3.6515,3.6244,3.5975,3.5624,3.5521,3.55,3.5583,3.5521,3.55,3.5562,3.5562,3.5542,3.5687,3.5831,3.5995,3.622,3.6618,3.6979,3.7171,3.7318,3.7421,3.7494,3.7746,3.8091,3.7832,3.7885,3.8026,3.8212,3.8357,3.8585,3.8641,3.8993,3.9241,3.933,3.9392,3.964,3.9868,3.9909,3.9806,3.9868,3.9951,4.0034,4.0158,4.0282,4.051,4.0737,4.0717,4.0726,4.0643,4.0643,4.0497,4.0443,4.0871,4.1038,4.0953,4.1061,4.1396,4.2046,4.2536,4.3097,4.3163,4.3381,4.3294,4.332,4.3412,4.3482,4.3346,4.3603,4.4135,4.4411,4.4548,4.4548,4.448,4.4548,4.4594,4.4388,4.4319,3.4226,3.4472,3.5025,3.5108,3.48,3.416,3.3928,3.411,3.3859,3.3859,3.411,3.3607,3.3481,3.3733,3.3481,3.3418,3.3535,3.3711,3.3906,3.4283,3.4825,3.5356,3.5739,3.5949,3.6214,3.6087,3.5807,3.5566,3.5897,3.6122,3.6656,3.7345,3.7504,3.7934,3.7959,3.7902,3.7653,3.7405,3.7115,3.6717,3.6383,3.6093,3.5824,3.5577,3.5847,3.5763,3.5619,3.5994,3.6076,3.6265,3.637,3.6434,3.606,3.6457,3.679,3.6916,3.7334,3.7796,3.7913,3.8145,3.842,3.8541,3.8437,3.8225,3.8283,3.8295,3.846,3.8683,3.8972,3.9282,3.9571,3.9765,3.9868,4.0075,4.0261,4.0261,4.022,4.0323,4.0406,4.0448,4.0551,4.0717,4.0965,4.0873,4.0852,4.0882,4.0882,4.0882,4.0912,4.0838,4.0967,4.1116,4.1425,4.1534,4.2011,4.2596,4.311,4.3512,4.3534,4.3604,4.3626,4.3653,4.3797,4.3709,4.3551,4.3764,4.4204,4.4342,4.4273,4.4342,4.4342,4.4411,4.4342,4.4135,4.3997,3.439,3.4574,3.517,3.5232,3.4839,3.418,3.4055,3.4278,3.3922,3.3922,3.4298,3.367,3.3544,3.3796,3.3544,3.3418,3.3457,3.3848,3.4141,3.4596,3.5303,3.5751,3.6115,3.6245,3.6324,3.6217,3.6023,3.5781,3.6132,3.6694,3.726,3.7327,3.777,3.8037,3.8017,3.7842,3.7863,3.781,3.7715,3.7315,3.6938,3.6603,3.6211,3.5939,3.6292,3.617,3.5963,3.6485,3.6547,3.6483,3.6462,3.6552,3.6473,3.6933,3.7118,3.7307,3.8044,3.8353,3.8512,3.8963,3.9125,3.9093,3.9057,3.8927,3.8714,3.8709,3.8874,3.9013,3.9261,3.9509,3.9847,4.0096,4.0282,4.0468,4.0551,4.0613,4.0717,4.082,4.0862,4.0882,4.0965,4.111,4.1172,4.1008,4.0987,4.108,4.0956,4.074,4.0811,4.0963,4.1084,4.1347,4.1771,4.2171,4.2651,4.2975,4.3311,4.3578,4.3665,4.3757,4.3823,4.3981,4.4074,4.3951,4.3713,4.3925,4.4135,4.3997,4.3927,4.4066,4.4157,4.4041,4.395,4.3719,4.3719,3.441,3.4736,3.5108,3.5046,3.4736,3.4102,3.4019,3.4278,3.3733,3.3796,3.4173,3.3733,3.3646,3.3915,3.3603,3.3496,3.3672,3.4023,3.4375,3.4726,3.5473,3.5981,3.6245,3.6268,3.6395,3.6375,3.6298,3.6103,3.6269,3.6773,3.7233,3.7099,3.7482,3.777,3.7971,3.7502,3.7482,3.7775,3.7575,3.7201,3.6958,3.6862,3.6758,3.6544,3.6606,3.6541,3.6371,3.6241,3.6261,3.6132,3.6217,3.6517,3.692,3.7242,3.7449,3.7843,3.8516,3.8865,3.9046,3.9479,3.9667,3.9654,3.9558,3.9392,3.9117,3.8972,3.9096,3.9495,3.9765,4.0054,4.0344,4.0468,4.0613,4.0675,4.0717,4.0758,4.08,4.0894,4.0915,4.0997,4.1079,4.1161,4.1017,4.0852,4.0853,4.11,4.11,4.0709,4.076,4.0995,4.123,4.1465,4.1898,4.2321,4.2624,4.297,4.3311,4.3604,4.384,4.4036,4.4233,4.437,4.437,4.4167,4.3915,4.3877,4.3927,4.4016,4.4061,4.4063,4.3994,4.3669,4.3529,4.3482,4.3709,3.3639,3.4065,3.418,3.4235,3.4173,3.3928,3.3948,3.3985,3.3859,3.3985,3.4298,3.4004,3.3954,3.4215,3.3642,3.3555,3.3945,3.4238,3.4551,3.5027,3.565,3.611,3.6451,3.6482,3.6601,3.6769,3.6769,3.6493,3.6562,3.7012,3.7327,3.714,3.7448,3.7759,3.7893,3.7402,3.7294,3.7697,3.7441,3.7258,3.7075,3.6856,3.6723,3.6316,3.6124,3.6389,3.6389,3.6556,3.6876,3.711,3.6977,3.6977,3.7064,3.7172,3.7417,3.7793,3.8568,3.9089,3.9509,3.9931,4.0084,4.0077,3.9896,3.9571,3.9337,3.9344,3.9468,3.984,4.017,4.053,4.0737,4.082,4.0903,4.0903,4.0882,4.0882,4.0903,4.1008,4.1017,4.1024,4.1122,4.1102,4.098,4.089,4.0779,4.0853,4.0884,4.0832,4.0894,4.1078,4.1376,4.159,4.1869,4.2202,4.2661,4.3209,4.366,4.4102,4.4495,4.4626,4.4713,4.4545,4.442,4.426,4.4096,4.4051,4.4191,4.4467,4.4467,4.4331,4.4232,4.4176,4.3811,4.3648,4.3947,3.3135,3.3497,3.3789,3.3922,3.3859,3.3733,3.367,3.367,3.3859,3.3922,3.3922,3.3816,3.3891,3.4235,3.3642,3.3672,3.4101,3.4492,3.4805,3.5242,3.574,3.6239,3.6533,3.6728,3.6927,3.7094,3.7045,3.6907,3.6886,3.7242,3.7473,3.7282,3.7533,3.7827,3.7963,3.7521,3.7245,3.7854,3.7516,3.7368,3.7314,3.7146,3.6864,3.6408,3.6475,3.6562,3.6562,3.6756,3.6796,3.7227,3.7219,3.7184,3.738,3.7739,3.8058,3.8493,3.9027,3.9522,3.9943,4.0269,4.0529,4.0472,4.0485,4.015,4.017,4.0108,3.9803,4.0112,4.0226,4.0422,4.0728,4.0862,4.1089,4.1172,4.1048,4.0944,4.1234,4.1534,4.148,4.1351,4.1542,4.1936,4.1833,4.1685,4.1649,4.1706,4.1617,4.1307,4.1358,4.1276,4.1533,4.1863,4.2179,4.2571,4.3021,4.3601,4.4233,4.4648,4.5063,4.5289,4.5362,4.4842,4.4475,4.4546,4.4551,4.4397,4.456,4.4794,4.4839,4.4697,4.4688,4.4794,4.4338,4.3949,4.431,3.2794,3.3115,3.3585,3.3859,3.3796,3.3607,3.3418,3.3481,3.3733,3.3733,3.3501,3.3496,3.3686,3.3749,3.3564,3.3833,3.4141,3.4531,3.4922,3.5351,3.5801,3.6377,3.6789,3.7035,3.7282,3.7459,3.7509,3.7173,3.6936,3.7479,3.7746,3.75,3.7768,3.8107,3.8306,3.7828,3.7292,3.7843,3.7851,3.7758,3.7556,3.7442,3.7327,3.724,3.7219,3.7152,3.6997,3.6821,3.6618,3.7069,3.7493,3.7377,3.7448,3.7823,3.8491,3.8873,3.9298,3.9795,4.0294,4.0684,4.0859,4.0912,4.0882,4.0882,4.077,4.0636,4.0329,4.0361,4.0382,4.0525,4.0832,4.0965,4.1193,4.1534,4.1276,4.1214,4.1648,4.2062,4.1912,4.1664,4.2024,4.2481,4.2385,4.233,4.2379,4.2459,4.2348,4.2175,4.1947,4.1876,4.196,4.2376,4.2804,4.317,4.3452,4.4017,4.4735,4.4837,4.5208,4.5735,4.5896,4.5231,4.4946,4.5244,4.5229,4.476,4.4738,4.4948,4.4992,4.497,4.5373,4.5411,4.4683,4.4451,4.4779,3.2413,3.29,3.3328,3.3481,3.3544,3.367,3.367,3.3481,3.3733,3.3733,3.3579,3.3809,3.4009,3.4034,3.3618,3.3809,3.4551,3.4766,3.5,3.5391,3.5918,3.6494,3.6986,3.7391,3.7698,3.7986,3.8153,3.8027,3.7496,3.7888,3.8257,3.8114,3.7797,3.8047,3.8287,3.7818,3.7448,3.7938,3.8147,3.7977,3.8185,3.8113,3.8178,3.7992,3.7708,3.7519,3.7193,3.6888,3.7074,3.7625,3.8122,3.7746,3.7668,3.7957,3.8557,3.8989,3.9414,3.987,4.035,4.0565,4.0668,4.074,4.076,4.0771,4.0771,4.0648,4.0576,4.0894,4.0956,4.0946,4.1048,4.1048,4.1234,4.1721,4.1783,4.1876,4.2186,4.2295,4.2317,4.2235,4.2363,4.2383,4.2089,4.2124,4.2344,4.2405,4.2443,4.2237,4.234,4.2352,4.2364,4.2825,4.3363,4.3687,4.3872,4.4552,4.507,4.52,4.5331,4.574,4.588,4.5522,4.5369,4.5706,4.5347,4.4786,4.4924,4.5259,4.515,4.5266,4.6014,4.6051,4.5252,4.491,4.5216]}]]